[[{"header":{"parameterUnit":"m.s-1","parameterCategory":1,"la1":30.6,"la2":28.766,"lo1":-90.7593,"lo2":-88.6598,"dy":0.0162,"dx":0.0183,"nx":116,"ny":114,"refTime":"2023-10-02T06:00:00:Z","depth":0,"parameterNumber":2,"parameterNumberName":"U-component_of_WINDS"},"data":[0.0,0.0,0.0,0.0,0.0,0.0,0.0,0.0,0.0,0.0,0.0,0.0,0.0,0.0,0.0,0.0,0.0,0.0,0.0,0.0,0.0,0.0,0.0,0.0,0.0,0.0,0.0,0.0,0.0,0.0,0.0,0.0,0.0,0.0,0.0,0.0,0.0,0.0,0.0,0.0,0.0,0.0,0.0,0.0,0.0,0.0,0.0,0.0,0.0,0.0,0.0,0.0,0.0,0.0,0.0,0.0,0.0,0.0,0.0,0.0,0.0,0.0,0.0,0.0,0.0,0.0,0.0,0.0,0.0,0.0,0.0,0.0,0.0,0.0,0.0,0.0,0.0,0.0,0.0,0.0,0.0,0.0,0.0,0.0,0.0,0.0,0.0,0.0,0.0,0.0,0.0,0.0,0.0,0.0,0.0,0.0,0.0,0.0,0.0,0.0,0.0,0.0,0.0,0.0,0.0,0.0,0.0,0.0,0.0,0.0,0.0,0.0,0.0,0.0,0.0,0.0,0.0,0.0,0.0,0.0,0.0,0.0,0.0,0.0,0.0,0.0,0.0,0.0,0.0,0.0,0.0,0.0,0.0,0.0,0.0,0.0,0.0,0.0,0.0,0.0,0.0,0.0,0.0,0.0,0.0,0.0,0.0,0.0,0.0,0.0,0.0,0.0,0.0,0.0,0.0,0.0,0.0,0.0,0.0,0.0,0.0,0.0,0.0,0.0,0.0,0.0,0.0,0.0,0.0,0.0,0.0,0.0,0.0,0.0,0.0,0.0,0.0,0.0,0.0,0.0,0.0,0.0,0.0,0.0,0.0,0.0,0.0,0.0,0.0,0.0,0.0,0.0,0.0,0.0,0.0,0.0,0.0,0.0,0.0,0.0,0.0,0.0,0.0,0.0,0.0,0.0,0.0,0.0,0.0,0.0,0.0,0.0,0.0,0.0,0.0,0.0,0.0,0.0,0.0,0.0,0.0,0.0,0.0,0.0,0.0,0.0,0.0,0.0,0.0,0.0,0.0,0.0,0.0,0.0,0.0,0.0,0.0,0.0,0.0,0.0,0.0,0.0,0.0,0.0,0.0,0.0,0.0,0.0,0.0,0.0,0.0,0.0,0.0,0.0,0.0,0.0,0.0,0.0,0.0,0.0,0.0,0.0,0.0,0.0,0.0,0.0,0.0,0.0,0.0,0.0,0.0,0.0,0.0,0.0,0.0,0.0,0.0,0.0,0.0,0.0,0.0,0.0,0.0,0.0,0.0,0.0,0.0,0.0,0.0,0.0,0.0,0.0,0.0,0.0,0.0,0.0,0.0,0.0,0.0,0.0,0.0,0.0,0.0,0.0,0.0,0.0,0.0,0.0,0.0,0.0,0.0,0.0,0.0,0.0,0.0,0.0,0.0,0.0,0.0,0.0,0.0,0.0,0.0,0.0,0.0,0.0,0.0,0.0,0.0,0.0,0.0,0.0,0.0,0.0,0.0,0.0,0.0,0.0,0.0,0.0,0.0,0.0,0.0,0.0,0.0,0.0,0.0,0.0,0.0,0.0,0.0,0.0,0.0,0.0,0.0,0.0,0.0,0.0,0.0,0.0,0.0,0.0,0.0,0.0,0.0,0.0,0.0,0.0,0.0,0.0,0.0,0.0,0.0,0.0,0.0,0.0,0.0,0.0,0.0,0.0,0.0,0.0,0.0,0.0,0.0,0.0,0.0,0.0,0.0,0.0,0.0,0.0,0.0,0.0,0.0,0.0,0.0,0.0,0.0,0.0,0.0,0.0,0.0,0.0,0.0,0.0,0.0,0.0,0.0,0.0,0.0,0.0,0.0,0.0,0.0,0.0,0.0,0.0,0.0,0.0,0.0,0.0,0.0,0.0,0.0,0.0,0.0,0.0,0.0,0.0,0.0,0.0,0.0,0.0,0.0,0.0,0.0,0.0,0.0,0.0,0.0,0.0,0.0,0.0,0.0,0.0,0.0,0.0,0.0,0.0,0.0,0.0,0.0,0.0,0.0,0.0,0.0,0.0,0.0,0.0,0.0,0.0,0.0,0.0,0.0,0.0,0.0,0.0,0.0,0.0,0.0,0.0,0.0,0.0,0.0,0.0,0.0,0.0,0.0,0.0,0.0,0.0,0.0,0.0,0.0,0.0,0.0,0.0,0.0,0.0,0.0,0.0,0.0,0.0,0.0,0.0,0.0,0.0,0.0,0.0,0.0,0.0,0.0,0.0,0.0,0.0,0.0,0.0,0.0,0.0,0.0,0.0,0.0,0.0,0.0,0.0,0.0,0.0,0.0,0.0,0.0,0.0,0.0,0.0,0.0,0.0,0.0,0.0,0.0,0.0,0.0,0.0,0.0,0.0,0.0,0.0,0.0,0.0,0.0,0.0,0.0,0.0,0.0,0.0,0.0,0.0,0.0,0.0,0.0,0.0,0.0,0.0,0.0,0.0,0.0,0.0,0.0,0.0,0.0,0.0,0.0,0.0,0.0,0.0,0.0,0.0,0.0,0.0,0.0,0.0,0.0,0.0,0.0,0.0,0.0,0.0,0.0,0.0,0.0,0.0,0.0,0.0,0.0,0.0,0.0,0.0,0.0,0.0,0.0,0.0,0.0,0.0,0.0,0.0,0.0,0.0,0.0,0.0,0.0,0.0,0.0,0.0,0.0,0.0,0.0,0.0,0.0,0.0,0.0,0.0,0.0,0.0,0.0,0.0,0.0,0.0,0.0,0.0,0.0,0.0,0.0,0.0,0.0,0.0,0.0,0.0,0.0,0.0,0.0,0.0,0.0,0.0,0.0,0.0,0.0,0.0,0.0,0.0,0.0,0.0,0.0,0.0,0.0,0.0,0.0,0.0,0.0,0.0,0.0,0.0,0.0,0.0,0.0,0.0,0.0,0.0,0.0,0.0,0.0,0.0,0.0,0.0,0.0,0.0,0.0,0.0,0.0,0.0,0.0,0.0,0.0,0.0,0.0,0.0,0.0,0.0,0.0,0.0,0.0,0.0,0.0,0.0,0.0,0.0,0.0,0.0,0.0,0.0,0.0,0.0,0.0,0.0,0.0,0.0,0.0,0.0,0.0,0.0,0.0,0.0,0.0,0.0,0.0,0.0,0.0,0.0,0.0,0.0,0.0,0.0,0.0,0.0,0.0,0.0,0.0,0.0,0.0,0.0,0.0,0.0,0.0,0.0,0.0,0.0,0.0,0.0,0.0,0.0,0.0,0.0,0.0,0.0,0.0,0.0,0.0,0.0,0.0,0.0,0.0,0.0,0.0,0.0,0.0,0.0,0.0,0.0,0.0,0.0,0.0,0.0,0.0,0.0,0.0,0.0,0.0,0.0,0.0,0.0,0.0,0.0,0.0,0.0,0.0,0.0,0.0,0.0,0.0,0.0,0.0,0.0,0.0,0.0,0.0,0.0,0.0,0.0,0.0,0.0,0.0,0.0,0.0,0.0,0.0,0.0,0.0,0.0,0.0,0.0,0.0,0.0,0.0,0.0,0.0,0.0,0.0,0.0,0.0,0.0,0.0,0.0,0.0,0.0,0.0,0.0,0.0,0.0,0.0,0.0,0.0,0.0,0.0,0.0,0.0,0.0,0.0,0.0,0.0,0.0,0.0,0.0,0.0,0.0,0.0,0.0,0.0,0.0,0.0,0.0,0.0,0.0,0.0,0.0,0.0,0.0,0.0,0.0,0.0,0.0,0.0,0.0,0.0,0.0,0.0,0.0,0.0,0.0,0.0,0.0,0.0,0.0,0.0,0.0,0.0,0.0,0.0,0.0,0.0,0.0,0.0,0.0,0.0,0.0,0.0,0.0,0.0,0.0,0.0,0.0,0.0,0.0,0.0,0.0,0.0,0.0,0.0,0.0,0.0,0.0,0.0,0.0,0.0,0.0,0.0,0.0,0.0,0.0,0.0,0.0,0.0,0.0,0.0,0.0,0.0,0.0,0.0,0.0,0.0,0.0,0.0,0.0,0.0,0.0,0.0,0.0,0.0,0.0,0.0,0.0,0.0,0.0,0.0,0.0,0.0,0.0,0.0,0.0,0.0,0.0,0.0,0.0,0.0,0.0,0.0,0.0,0.0,0.0,0.0,0.0,0.0,0.0,0.0,0.0,0.0,0.0,0.0,0.0,0.0,0.0,0.0,0.0,0.0,0.0,0.0,0.0,0.0,0.0,0.0,0.0,0.0,0.0,0.0,0.0,0.0,0.0,0.0,0.0,0.0,0.0,0.0,0.0,0.0,0.0,0.0,0.0,0.0,0.0,0.0,0.0,0.0,0.0,0.0,0.0,0.0,0.0,0.0,0.0,0.0,0.0,0.0,0.0,0.0,0.0,0.0,0.0,0.0,0.0,0.0,0.0,0.0,0.0,0.0,0.0,0.0,0.0,0.0,0.0,0.0,0.0,0.0,0.0,0.0,0.0,0.0,0.0,0.0,0.0,0.0,0.0,0.0,0.0,0.0,0.0,0.0,0.0,0.0,0.0,0.0,0.0,0.0,0.0,0.0,0.0,0.0,0.0,0.0,0.0,0.0,0.0,0.0,0.0,0.0,0.0,0.0,0.0,0.0,0.0,0.0,0.0,0.0,0.0,0.0,0.0,0.0,0.0,0.0,0.0,0.0,0.0,0.0,0.0,0.0,0.0,0.0,0.0,0.0,0.0,0.0,0.0,0.0,0.0,0.0,0.0,0.0,0.0,0.0,0.0,0.0,0.0,0.0,0.0,0.0,0.0,0.0,0.0,0.0,0.0,0.0,0.0,0.0,0.0,0.0,0.0,0.0,0.0,0.0,0.0,0.0,0.0,0.0,0.0,0.0,0.0,0.0,0.0,0.0,0.0,0.0,0.0,0.0,0.0,0.0,0.0,0.0,0.0,0.0,0.0,0.0,0.0,0.0,0.0,0.0,0.0,0.0,0.0,0.0,0.0,0.0,0.0,0.0,0.0,0.0,0.0,0.0,0.0,0.0,0.0,0.0,0.0,0.0,0.0,0.0,0.0,0.0,0.0,0.0,0.0,0.0,0.0,0.0,0.0,0.0,0.0,0.0,0.0,0.0,0.0,0.0,0.0,0.0,0.0,0.0,0.0,0.0,0.0,0.0,0.0,0.0,0.0,0.0,0.0,0.0,0.0,0.0,0.0,0.0,0.0,0.0,0.0,0.0,0.0,0.0,0.0,0.0,0.0,0.0,0.0,0.0,0.0,0.0,0.0,0.0,0.0,0.0,0.0,0.0,0.0,0.0,0.0,0.0,0.0,0.0,0.0,0.0,0.0,0.0,0.0,0.0,0.0,0.0,0.0,0.0,0.0,0.0,0.0,0.0,0.0,0.0,0.0,0.0,0.0,0.0,0.0,0.0,0.0,0.0,0.0,0.0,0.0,0.0,0.0,0.0,0.0,0.0,0.0,0.0,0.0,0.0,0.0,0.0,0.0,0.0,0.0,0.0,0.0,0.0,0.0,0.0,0.0,0.0,0.0,0.0,0.0,0.0,0.0,0.0,0.0,0.0,0.0,0.0,0.0,0.0,0.0,0.0,0.0,0.0,0.0,0.0,0.0,0.0,0.0,0.0,0.0,0.0,0.0,0.0,0.0,0.0,0.0,0.0,0.0,0.0,0.0,0.0,0.0,0.0,0.0,0.0,0.0,0.0,0.0,0.0,0.0,0.0,0.0,0.0,0.0,0.0,0.0,0.0,0.0,0.0,0.0,0.0,0.0,0.0,0.0,0.0,0.0,0.0,0.0,0.0,0.0,0.0,0.0,0.0,0.0,0.0,0.0,0.0,0.0,0.0,0.0,0.0,0.0,0.0,0.0,0.0,0.0,0.0,0.0,0.0,0.0,0.0,0.0,0.0,0.0,0.0,0.0,0.0,0.0,0.0,0.0,0.0,0.0,0.0,0.0,0.0,0.0,0.0,0.0,0.0,0.0,0.0,0.0,0.0,0.0,0.0,0.0,0.0,0.0,0.0,0.0,0.0,0.0,0.0,0.0,0.0,0.0,0.0,0.0,0.0,0.0,0.0,0.0,0.0,0.0,0.0,0.0,0.0,0.0,0.0,0.0,0.0,0.0,0.0,0.0,0.0,0.0,0.0,0.0,-2.2403,0.0,0.0,0.0,0.0,0.0,0.0,0.0,0.0,0.0,0.0,0.0,0.0,0.0,0.0,0.0,0.0,0.0,0.0,0.0,0.0,0.0,0.0,0.0,0.0,0.0,0.0,0.0,0.0,0.0,0.0,0.0,0.0,0.0,0.0,0.0,0.0,0.0,0.0,-2.6976,-2.7239,-2.812,-2.9563,-2.9938,-2.88,-2.641,0.0,0.0,0.0,0.0,0.0,0.0,0.0,0.0,0.0,0.0,0.0,0.0,0.0,0.0,0.0,0.0,0.0,0.0,0.0,0.0,0.0,0.0,0.0,0.0,0.0,0.0,0.0,0.0,0.0,0.0,0.0,0.0,0.0,0.0,0.0,0.0,0.0,0.0,0.0,0.0,0.0,0.0,0.0,0.0,0.0,0.0,0.0,0.0,0.0,0.0,0.0,0.0,0.0,0.0,0.0,0.0,0.0,0.0,0.0,0.0,0.0,0.0,0.0,0.0,0.0,0.0,0.0,0.0,0.0,0.0,0.0,-2.2648,0.0,0.0,0.0,0.0,0.0,0.0,0.0,0.0,0.0,0.0,0.0,0.0,0.0,0.0,0.0,0.0,0.0,0.0,0.0,0.0,0.0,0.0,0.0,-1.7896,-1.8072,-1.8511,-1.8511,-1.893,-1.9951,0.0,0.0,0.0,0.0,0.0,-2.3491,-2.4641,-2.5999,-2.7632,-2.8046,-2.8858,-2.998,-3.0135,-2.9407,-2.7976,-2.6248,0.0,0.0,0.0,0.0,0.0,0.0,0.0,0.0,0.0,0.0,0.0,0.0,0.0,0.0,0.0,0.0,0.0,0.0,0.0,0.0,0.0,0.0,0.0,0.0,0.0,0.0,0.0,0.0,0.0,0.0,0.0,0.0,0.0,0.0,0.0,0.0,0.0,0.0,0.0,0.0,0.0,0.0,0.0,0.0,0.0,0.0,0.0,0.0,0.0,0.0,0.0,0.0,0.0,0.0,0.0,0.0,0.0,0.0,0.0,0.0,0.0,0.0,0.0,-2.8848,-2.933,-3.001,-2.9313,-2.9113,-2.9119,-2.623,-2.4361,-2.321,-2.2346,0.0,0.0,0.0,0.0,0.0,0.0,0.0,0.0,0.0,0.0,0.0,0.0,0.0,0.0,0.0,0.0,0.0,0.0,0.0,-1.756,-1.8174,-1.8233,-1.8599,-1.9544,-1.9368,-1.9376,-1.9813,0.0,0.0,0.0,0.0,-2.2597,-2.3918,-2.4809,-2.5742,-2.6683,-2.8501,-2.9611,-3.0004,-3.0821,-3.0852,-3.0214,-2.8769,-2.7458,-2.626,0.0,0.0,0.0,0.0,0.0,0.0,0.0,0.0,0.0,0.0,0.0,0.0,0.0,0.0,0.0,0.0,0.0,0.0,0.0,0.0,0.0,0.0,0.0,0.0,0.0,0.0,0.0,0.0,0.0,0.0,0.0,0.0,0.0,0.0,0.0,0.0,0.0,0.0,0.0,0.0,0.0,-2.1508,-2.1553,0.0,0.0,0.0,0.0,0.0,0.0,0.0,0.0,0.0,0.0,0.0,0.0,0.0,-2.61,-2.6658,-2.703,-2.7373,-2.7656,-2.8208,-2.852,-2.8626,-2.852,-2.849,-2.8536,-2.7763,0.0,-2.5698,-2.4034,0.0,0.0,0.0,0.0,0.0,0.0,0.0,0.0,0.0,0.0,0.0,0.0,0.0,0.0,0.0,0.0,0.0,0.0,0.0,0.0,0.0,-1.9008,-1.9374,-1.9974,-2.0237,-2.0194,-1.9837,-1.9888,0.0,0.0,-2.0692,-2.1595,-2.2492,-2.3669,-2.5178,-2.6975,-2.854,-2.9723,-3.0553,-3.1258,-3.1574,-3.1517,-3.0867,-2.9756,-2.8147,-2.6575,0.0,0.0,0.0,0.0,0.0,0.0,0.0,0.0,0.0,0.0,0.0,0.0,0.0,0.0,0.0,0.0,0.0,0.0,0.0,0.0,0.0,0.0,0.0,0.0,0.0,0.0,0.0,0.0,0.0,0.0,0.0,0.0,0.0,0.0,0.0,0.0,0.0,0.0,0.0,-2.2246,-2.2623,-2.2257,-2.2205,-2.1883,0.0,0.0,0.0,0.0,0.0,0.0,0.0,0.0,0.0,-2.4134,-2.4148,-2.5037,-2.6954,-2.6553,-2.6854,-2.7959,-2.7415,-2.7068,-2.6727,-2.5976,-2.5567,-2.5481,-2.512,-2.4714,-2.4229,-2.4718,-2.3856,-2.2052,0.0,0.0,0.0,0.0,-1.8566,-1.8763,0.0,0.0,0.0,0.0,0.0,0.0,0.0,0.0,0.0,0.0,0.0,0.0,-1.8991,-1.9425,-1.986,-2.0282,-2.0686,-2.0714,-2.0186,-1.991,-1.9614,-1.9184,-2.0183,-2.0964,-2.1406,-2.3078,-2.5023,-2.7271,-2.8743,-3.0025,-3.1012,-3.1976,-3.247,-3.2603,-3.2603,-3.1774,-3.0252,-2.8991,-2.6941,-2.447,0.0,0.0,0.0,0.0,0.0,0.0,0.0,0.0,0.0,0.0,0.0,0.0,0.0,0.0,0.0,0.0,0.0,0.0,0.0,0.0,0.0,0.0,0.0,0.0,0.0,0.0,0.0,0.0,0.0,0.0,0.0,0.0,0.0,0.0,0.0,0.0,0.0,-2.2912,-2.3278,-2.2174,-2.2256,-2.1844,0.0,0.0,0.0,0.0,0.0,0.0,-2.145,-2.1895,-2.25,-2.3247,-2.3155,-2.4251,-2.6525,-2.5672,-2.5886,-2.7179,-2.6087,-2.5348,-2.502,-2.3975,-2.3409,-2.3227,-2.2894,-2.276,-2.2717,-2.4123,-2.3506,-2.149,-2.0456,-1.9245,-1.7961,-1.7597,-1.7663,-1.794,0.0,0.0,0.0,0.0,0.0,0.0,0.0,0.0,0.0,0.0,0.0,-1.7787,-1.8352,-1.8982,-1.9696,-2.0578,-2.0438,-2.0454,-2.0985,-2.0286,-1.988,-2.011,-2.0806,-2.1354,-2.1786,-2.3922,-2.5754,-2.7305,-2.9495,-3.0714,-3.1039,-3.3243,-3.4061,-3.374,-3.374,-3.3496,-3.3,-3.0254,-2.8987,-2.8589,-2.5374,0.0,0.0,0.0,0.0,0.0,0.0,0.0,0.0,0.0,0.0,0.0,0.0,0.0,0.0,0.0,0.0,0.0,0.0,0.0,0.0,0.0,0.0,0.0,0.0,0.0,0.0,0.0,0.0,0.0,0.0,0.0,0.0,0.0,0.0,0.0,0.0,0.0,0.0,-2.0706,-2.1366,0.0,0.0,0.0,0.0,-1.9599,-1.9654,-2.0131,-2.1068,-2.1424,-2.2054,-2.3022,-2.3295,-2.3737,-2.4171,-2.3771,-2.3783,-2.4206,-2.3794,-2.3817,-2.4046,-2.3709,-2.35,-2.3477,-2.3143,-2.2936,-2.2917,-2.1724,-2.119,-2.0902,-1.9786,-1.9264,-1.916,-1.8637,-1.8633,-1.8877,0.0,0.0,0.0,0.0,0.0,0.0,0.0,0.0,-1.4628,-1.504,-1.5743,-1.6435,-1.6984,-1.7521,-1.802,-1.8484,-1.8752,-1.8789,-1.8533,-1.9171,-1.9502,-1.935,-2.0568,-2.154,-2.2272,-2.3305,-2.4729,-2.6602,-2.7604,-2.8798,-3.0189,-3.0995,-3.1502,-3.1789,-3.1789,-3.1884,-3.2008,-3.1739,-3.0416,-2.8296,-2.7091,-2.4541,0.0,0.0,0.0,0.0,0.0,0.0,0.0,0.0,0.0,0.0,0.0,0.0,0.0,0.0,0.0,0.0,0.0,0.0,0.0,0.0,0.0,0.0,0.0,0.0,0.0,0.0,0.0,0.0,0.0,0.0,0.0,0.0,0.0,0.0,0.0,0.0,0.0,-2.0854,-2.1145,0.0,-1.9116,-1.8591,-1.8504,-1.8651,-1.9045,-1.9531,-2.0073,-2.0386,-2.0692,-2.1009,-2.0498,-2.0998,-2.2611,-2.1677,-2.1677,-2.2611,-2.1677,-2.0912,-2.0482,-1.9702,-1.934,-1.9219,-1.9059,-1.8949,-1.8885,-1.8348,-1.8769,-1.9662,-1.8901,-1.7752,-1.6507,-1.6158,-1.6131,-1.6167,0.0,0.0,0.0,0.0,0.0,0.0,0.0,-1.2895,-1.3519,-1.4022,-1.4742,-1.5409,-1.5965,-1.6531,-1.6934,-1.7266,-1.7662,-1.7707,-1.731,-1.8011,-1.8313,-1.8005,-1.9042,-2.0355,-2.1999,-2.232,-2.3508,-2.5596,-2.6397,-2.7442,-2.8771,-2.9127,-2.9665,-3.0343,-3.0343,-3.0616,-3.1075,-3.2032,-3.1218,-2.9184,-2.8875,-2.667,-2.3493,0.0,0.0,0.0,0.0,0.0,0.0,0.0,0.0,0.0,0.0,0.0,0.0,0.0,0.0,0.0,0.0,0.0,0.0,0.0,0.0,0.0,0.0,0.0,0.0,0.0,0.0,0.0,0.0,0.0,0.0,0.0,0.0,0.0,0.0,0.0,-2.083,-1.9491,-1.9953,-1.9687,-1.814,-1.7846,-1.7767,-1.7891,-1.8372,-1.8649,-1.8846,-1.9069,-1.914,-1.914,-1.847,-1.8866,-2.0414,-1.9388,-1.9438,-2.0298,-1.9351,-1.8672,-1.7989,-1.7375,-1.7047,-1.6942,-1.6942,-1.6868,-1.6755,-1.6698,-1.7246,-1.8181,-1.7615,-1.6564,-1.522,-1.5041,-1.4903,-1.4757,0.0,0.0,0.0,0.0,0.0,0.0,-1.0188,-1.1309,-1.2276,-1.2636,-1.382,-1.4766,-1.5241,-1.5968,-1.6583,-1.705,-1.7092,-1.7224,-1.7544,-1.6943,-1.6525,-1.6335,-1.6478,-1.7921,-2.0803,-2.104,-2.2167,-2.4247,-2.5882,-2.6713,-2.6783,-2.7888,-2.8804,-2.9525,-2.9525,-2.9948,-3.0578,-3.0949,-3.1302,-3.1543,-3.072,-2.9084,-2.7022,0.0,0.0,0.0,0.0,0.0,0.0,0.0,0.0,0.0,0.0,0.0,0.0,0.0,0.0,0.0,0.0,0.0,0.0,0.0,0.0,0.0,0.0,0.0,0.0,0.0,0.0,0.0,0.0,0.0,0.0,0.0,0.0,0.0,-1.8021,-1.9373,-1.9245,-1.673,-1.7815,-1.8164,-1.6506,-1.6828,-1.7274,-1.7607,-1.7478,-1.7453,-1.7616,-1.7632,-1.7632,-1.7632,-1.7478,-1.7396,-1.7396,-1.7218,-1.7128,-1.712,-1.712,-1.712,-1.7112,-1.7112,-1.7112,-1.7112,-1.7024,-1.7024,-1.7008,-1.676,-1.6583,-1.6467,-1.6103,-1.5853,-1.5667,-1.5489,-1.5198,-1.4827,0.0,0.0,0.0,0.0,0.0,0.0,-0.9875,-1.0473,-1.1088,-1.1541,-1.218,-1.2759,-1.3286,-1.3799,-1.4156,-1.4551,-1.4587,-1.4656,-1.4716,-1.5366,-1.6171,-1.7299,-1.7692,-1.8547,-1.9747,-1.9866,-2.0368,-2.121,-2.1687,-2.2612,-2.3981,-2.4317,-2.5439,-2.7158,-2.7158,-2.7408,-2.7807,-2.8147,-2.8954,-3.001,-3.0019,-2.8657,-2.6456,0.0,0.0,0.0,0.0,0.0,0.0,0.0,0.0,0.0,0.0,0.0,0.0,0.0,0.0,0.0,0.0,0.0,0.0,0.0,0.0,0.0,0.0,0.0,0.0,0.0,0.0,0.0,0.0,0.0,0.0,0.0,0.0,-1.5957,-1.6721,-1.742,-1.7673,-1.7488,-1.7886,-1.7961,-1.7494,-1.7607,-1.7632,-1.7469,-1.7413,-1.7348,-1.7258,-1.7388,-1.7453,-1.7453,-1.7534,-1.7575,-1.7575,-1.7518,-1.7429,-1.7307,-1.7307,-1.7242,-1.7112,-1.7112,-1.7112,-1.7024,-1.6042,-1.5601,-1.5506,-1.4407,-1.3867,-1.3774,-1.4467,-1.4609,-1.4268,-1.3034,-1.2434,-1.2179,0.0,0.0,0.0,0.0,0.0,0.0,-0.8969,-0.9676,-1.0404,-1.0969,-1.1282,-1.1619,-1.2065,-1.2421,-1.2696,-1.3117,-1.3202,-1.321,-1.3417,-1.4053,-1.4846,-1.5883,-1.6362,-1.7145,-1.8233,-1.8392,-1.903,-2.004,-1.994,-2.0535,-2.1742,-2.1562,-2.241,-2.3895,-2.3997,-2.4291,-2.4727,-2.5088,-2.574,-2.6503,-2.6776,-2.7258,-2.7678,-2.6907,-2.5614,-2.3956,-2.32,-2.29,-2.2786,-2.1796,0.0,0.0,0.0,0.0,0.0,0.0,0.0,0.0,0.0,0.0,0.0,0.0,0.0,0.0,0.0,0.0,0.0,0.0,0.0,0.0,0.0,0.0,0.0,0.0,-1.4482,-1.5249,-1.5061,-1.636,-1.7421,-1.7762,-1.7867,-1.7916,-1.7916,-1.7851,-1.7778,-1.7721,-1.7648,-1.7591,-1.7559,-1.7656,-1.7721,-1.7721,-1.7746,-1.7794,-1.7859,-1.7076,-1.699,-1.7607,-1.619,-1.5802,-1.6325,-1.5639,-1.5337,-1.5249,-1.4448,-1.3912,-1.3464,-1.2585,-1.1885,0.0,0.0,0.0,0.0,0.0,-1.1315,-1.1137,0.0,0.0,0.0,0.0,0.0,0.0,-0.7624,-0.8719,-0.976,-1.0247,-1.0476,-1.0649,-1.1006,-1.1337,-1.177,-1.2269,-1.2487,-1.2569,-1.2744,-1.2744,-1.2906,-1.3128,-1.3689,-1.4826,-1.6638,-1.6852,-1.7815,-1.9584,-1.9385,-1.9461,-1.9881,-1.9517,-1.9853,-2.0704,-2.0902,-2.129,-2.1919,-2.2248,-2.2372,-2.2418,-2.2597,-2.516,-2.8788,-2.7583,-2.6595,-2.58,-2.4888,-2.426,-2.3747,-2.3582,0.0,0.0,0.0,0.0,0.0,0.0,0.0,0.0,0.0,0.0,0.0,0.0,0.0,0.0,0.0,0.0,0.0,0.0,0.0,0.0,0.0,0.0,0.0,0.0,-1.3043,-1.4055,-1.3493,-1.5753,-1.7372,-1.7175,-1.7293,-1.7396,-1.7419,-1.7293,-1.7325,-1.7709,-1.7482,-1.7443,-1.767,0.0,0.0,0.0,0.0,-1.7551,-1.7701,-1.6029,-1.5957,-1.7356,-1.4426,-1.3739,-1.4944,-1.3471,-1.2787,-1.268,-1.2414,-1.1788,-1.0979,-1.0806,-1.0205,-0.9385,-1.1326,-1.1885,-1.1517,-1.0972,-1.0632,-1.0486,0.0,0.0,0.0,0.0,0.0,0.0,-0.5965,-0.6548,-0.7091,-0.7365,-0.7585,-0.7828,-0.8161,-0.9353,-1.0219,-1.0563,-1.1603,-1.1711,-1.0696,-1.0785,-1.1096,-1.169,-1.3289,-1.4634,-1.5537,-1.573,-1.6013,-1.6397,-1.6363,-1.6984,-1.8348,-1.8221,-1.9171,-2.0805,-2.0859,-2.1,-2.1399,-2.1568,-2.1785,-2.2052,-2.2208,-2.2905,-2.3744,-2.3584,-2.4012,-2.4598,-2.4125,-2.5179,-2.6599,-2.5552,-2.4993,-2.4404,-2.1842,-1.9739,0.0,0.0,0.0,0.0,0.0,0.0,0.0,0.0,0.0,0.0,0.0,0.0,0.0,0.0,0.0,0.0,0.0,0.0,0.0,-1.2148,-1.2995,-1.3542,-1.3731,-1.426,-1.4622,-1.4464,-1.4358,-1.4422,-1.4627,-1.4616,-1.4552,-1.4596,-1.4455,-1.4338,-1.4248,-1.4335,-1.4335,-1.4335,-1.4425,-1.449,-1.461,-1.4285,-1.4121,-1.4296,0.0,0.0,-1.3424,-1.231,-1.1794,-1.1605,-0.9646,-0.8757,-0.849,-0.7252,-0.6678,-0.6589,-0.853,-0.8947,-0.8451,-0.7656,-0.7247,-0.6986,0.0,0.0,0.0,0.0,0.0,0.0,-0.4572,-0.539,-0.6022,-0.6341,-0.6424,-0.6594,-0.6859,-0.7577,-0.811,-0.8491,-0.9285,-0.9558,-0.8952,-0.9157,-0.9478,-0.9965,-1.0968,-1.1738,-1.2035,-1.3009,-1.3566,-1.3722,-1.4796,-1.5812,-1.679,-1.6857,-1.7503,-1.8403,-1.8403,-1.8516,-1.8714,-1.8817,-1.907,-1.9278,-1.9401,-1.9542,-1.9776,-2.1735,-2.2932,-2.3458,-2.3248,-2.3853,-2.4615,-2.3891,-2.3411,-2.2716,-2.0539,-1.8922,-1.7398,0.0,0.0,0.0,0.0,0.0,0.0,0.0,0.0,0.0,0.0,0.0,0.0,0.0,0.0,-1.0142,0.0,0.0,-1.0202,-1.073,-1.1634,-1.2145,-1.1716,-1.2283,-1.3052,-1.3692,-1.377,-1.3698,-1.3855,-1.3921,-1.3843,-1.3777,-1.371,-1.3644,-1.3572,-1.3667,-1.3376,-1.2896,-1.2991,-1.274,-1.2319,-1.1497,-1.1467,-1.2126,-1.0512,-1.0012,-1.0504,-0.9304,-0.8668,-0.8498,-0.7338,-0.6538,-0.6001,-0.4753,-0.4548,-0.502,-0.5904,-0.6327,-0.6415,-0.5895,-0.5673,-0.5422,0.0,0.0,0.0,0.0,0.0,0.0,-0.3599,-0.4338,-0.5,-0.5247,-0.5276,-0.5357,-0.554,-0.5691,-0.6073,-0.6692,-0.6819,-0.7009,-0.7212,-0.7468,-0.7735,-0.8046,-0.8549,-0.8843,-0.9026,-1.034,-1.1213,-1.1527,-1.3177,-1.4149,-1.4448,-1.5021,-1.5293,-1.5262,-1.5715,-1.5727,-1.5509,-1.5539,-1.5632,-1.5864,-1.5956,-1.6293,-1.6917,-2.0058,-2.1587,-2.2105,-2.2105,-2.2012,-2.1924,-2.1967,-2.1373,-2.044,-1.8956,-1.8126,-1.7373,-1.5295,-1.4822,0.0,0.0,0.0,0.0,0.0,0.0,0.0,0.0,-1.2192,-1.1782,-1.1247,-1.0194,-0.9531,-0.9954,-0.9302,-0.8836,-0.9122,-1.024,-1.0605,-0.9314,-1.0228,-1.1314,-1.2379,-1.2851,-1.3034,-1.3034,-1.3051,-1.297,-1.277,-1.2748,-1.2639,-1.2439,-1.2418,-1.2003,-1.1105,-1.1114,-1.0715,-1.0003,-0.863,-0.863,-0.9902,-0.7334,-0.6685,-0.768,-0.6259,-0.5545,-0.5414,-0.5224,-0.4765,-0.3949,-0.3233,-0.3305,-0.3896,-0.3863,-0.4207,-0.475,-0.4829,-0.4775,-0.4632,0.0,0.0,0.0,0.0,0.0,0.0,0.0,0.0,-0.2349,-0.2357,-0.2447,-0.246,-0.2379,-0.3464,-0.4722,-0.6047,-0.525,-0.4724,-0.4943,-0.5258,-0.567,-0.6247,-0.7841,-0.8883,-0.9319,-0.9562,-0.97,-0.9821,-0.9983,-1.0109,-1.0123,-1.1918,-1.2677,-1.2817,-1.4493,-1.4309,-1.2771,-1.2977,-1.304,-1.3066,-1.3211,-1.4245,-1.5858,-1.6305,-1.8051,-2.0221,-2.0221,-2.11,-2.2362,-2.2482,-2.2139,-2.1431,-1.9965,-1.9146,-1.8311,-1.6215,-1.5309,-1.4871,-1.4456,-1.3618,-1.2963,-1.3354,-1.2602,-1.1928,0.0,-1.167,-1.0646,-1.0998,-1.0055,-0.9207,-0.9249,-0.9237,-0.922,-0.9261,-0.9493,-0.9304,-0.8233,-0.8296,-0.8238,-0.7433,-0.8875,-1.002,-1.002,-1.0097,-0.9744,-0.884,-0.8673,-0.8134,-0.7243,-0.7089,-0.6933,-0.6776,-0.6767,-0.6737,-0.6591,-0.6539,-0.6539,-0.6591,-0.6342,-0.6207,-0.619,-0.5104,-0.4612,-0.4514,-0.356,-0.3168,-0.3053,-0.2964,-0.2962,-0.3047,-0.3045,-0.3001,-0.3185,-0.3801,-0.4003,-0.3832,0.0,0.0,0.0,0.0,0.0,0.0,0.0,0.0,-0.2735,-0.2023,-0.19,-0.1913,-0.1954,-0.2464,-0.3045,-0.3648,-0.3305,-0.3161,-0.3315,-0.3511,-0.3809,-0.4064,-0.4833,-0.528,-0.5596,-0.6584,-0.7134,-0.7258,-0.8652,-0.9266,-0.9362,-1.0304,-1.0751,-1.0811,-1.1481,-1.1391,-1.071,-1.0843,-1.0897,-1.1047,-1.1101,-1.1603,-1.2278,-1.2289,-1.3028,-1.4398,-1.6763,-1.8187,0.0,-1.8921,-1.8875,-1.8687,-1.7758,-1.7256,-1.6784,-1.5586,-1.5289,-1.5017,-1.3916,-1.2195,-1.0786,-1.0936,-1.0634,-1.0204,-0.9899,-0.9234,-0.8581,-0.824,-0.8237,-0.8096,-0.7602,-0.8036,-0.8271,0.0,-0.7682,-0.7618,-0.7118,-0.7142,-0.6944,-0.6506,-0.7245,-0.7764,-0.7721,-0.7848,-0.7663,-0.716,-0.7133,-0.6917,-0.6417,-0.6395,-0.6073,-0.5354,-0.5324,-0.4991,-0.4364,-0.4357,-0.4428,-0.4385,-0.4404,-0.4379,-0.4224,-0.3833,-0.3617,-0.3482,-0.3085,-0.2885,-0.2874,-0.2874,-0.2874,-0.2874,-0.2874,-0.2848,-0.2797,-0.3114,-0.3188,-0.3034,0.0,0.0,0.0,0.0,0.0,0.0,0.0,0.0,0.0,0.0,-0.1678,-0.1679,-0.168,-0.1721,-0.1683,-0.1745,-0.1908,-0.2032,-0.2101,-0.2358,-0.254,-0.2551,-0.2656,-0.2761,-0.2782,-0.4062,-0.4783,-0.4963,-0.6548,-0.7445,-0.7563,-0.8232,-0.8602,-0.8597,-0.899,-0.8972,-0.8543,-0.8543,-0.8568,-0.8779,-0.8718,-0.9083,-0.9527,-0.9539,-0.9559,-1.0109,-1.3095,-1.4575,-1.4899,-1.4563,-1.4705,-1.4922,-1.4877,-1.4445,-1.4047,-1.4047,-1.3949,-1.3542,-1.2229,-1.0346,-0.8809,-0.8735,-0.8615,-0.8309,-0.734,-0.7138,-0.6958,-0.6296,-0.6836,-0.7172,-0.6473,-0.6988,-0.7302,-0.6648,-0.6455,-0.6346,-0.6029,-0.6027,-0.5906,-0.5554,-0.5516,-0.5558,-0.5549,-0.6166,-0.6371,-0.6052,-0.6052,-0.5952,-0.5649,-0.5549,-0.5246,-0.4339,-0.44,-0.3963,-0.3144,-0.3112,-0.3082,-0.3148,-0.3148,-0.304,-0.3018,-0.301,-0.2969,-0.2904,-0.2891,-0.2882,-0.2874,-0.2874,-0.2874,-0.2874,-0.2874,-0.286,-0.2831,-0.2748,-0.2673,-0.2604,0.0,0.0,0.0,0.0,0.0,0.0,0.0,0.0,0.0,0.0,0.0,-0.1235,-0.0956,-0.094,-0.0967,-0.1027,-0.1404,-0.1504,-0.1331,-0.208,-0.2409,-0.21,-0.2578,-0.2782,-0.2784,-0.2811,-0.293,-0.2962,-0.3052,-0.3036,-0.3007,-0.4905,-0.5787,-0.5907,-0.7829,-0.7595,-0.5814,-0.5814,-0.5781,-0.5822,-0.5792,-0.6892,-0.8576,-0.8576,-0.8799,-0.9216,-0.9795,-1.0399,-1.0758,-1.0152,-1.0349,-1.0993,-1.1823,-1.1155,-1.0284,-1.1777,-1.0948,-0.9492,-0.9045,-0.8202,-0.7374,-0.7458,-0.6772,-0.6085,-0.6087,-0.6224,-0.6349,-0.6258,-0.6403,-0.6548,-0.645,-0.6553,-0.6553,-0.6556,-0.6455,-0.6132,-0.4983,-0.4875,-0.4464,-0.3344,-0.3245,-0.3267,0.0,-0.5288,-0.6009,-0.4946,-0.4843,-0.444,-0.333,-0.333,-0.333,-0.323,-0.3202,-0.3174,-0.3144,-0.3112,-0.3082,-0.3148,-0.3148,-0.3052,-0.305,-0.3021,-0.2958,-0.2876,-0.2904,-0.29,-0.2874,-0.2874,-0.2874,-0.2874,-0.2874,-0.2874,-0.2866,-0.2803,-0.2722,-0.2641,0.0,0.0,0.0,0.0,0.0,0.0,0.0,0.0,0.0,0.0,0.0,0.0,0.0,0.0,0.0,0.0,-0.119,-0.1253,-0.1265,-0.1563,-0.1634,-0.1606,-0.1752,-0.1878,-0.1892,-0.1913,-0.1852,-0.1885,-0.2245,-0.242,-0.2412,-0.3404,-0.3837,-0.3799,-0.4429,-0.4419,-0.3777,-0.3777,-0.3769,-0.3757,-0.3742,-0.4084,-0.4853,-0.5972,-0.6327,-0.6391,0.0,-0.8776,-0.961,-0.9264,-0.9403,-0.9724,-0.9766,-0.9327,-0.8955,-0.9352,-0.8297,-0.6973,-0.7023,-0.5687,-0.4366,-0.4441,-0.4265,-0.3986,-0.4065,-0.4113,-0.4156,-0.4208,-0.4885,-0.5151,-0.4359,-0.4829,-0.5113,-0.4356,-0.4284,-0.4206,-0.3815,-0.3737,-0.3621,-0.315,-0.3213,0.0,0.0,0.0,0.0,-0.387,-0.3791,-0.358,-0.3232,-0.3269,-0.3281,-0.3261,-0.327,-0.3253,-0.3201,-0.3172,-0.3122,-0.3052,-0.3032,-0.3032,-0.3051,-0.3021,-0.298,-0.2931,-0.292,-0.29,-0.2874,-0.2874,-0.2874,-0.2874,-0.2874,-0.2874,-0.2871,-0.2851,-0.2785,-0.2698,0.0,0.0,0.0,0.0,0.0,0.0,0.0,0.0,0.0,0.0,0.0,0.0,0.0,0.0,0.0,0.0,0.0,-0.0825,-0.0798,-0.1133,-0.1259,-0.1064,-0.1269,-0.1386,-0.1402,-0.1413,-0.1437,-0.1389,-0.1909,-0.2182,-0.2207,-0.2648,-0.2821,-0.2812,-0.2812,-0.2801,-0.2782,-0.2772,-0.2761,-0.2833,-0.3212,-0.3442,-0.3685,-0.533,-0.575,0.0,-0.6153,-0.6891,-0.7587,-0.7395,-0.7236,-0.7173,-0.7233,-0.7162,-0.7009,-0.6408,-0.5462,-0.4729,-0.4898,-0.3983,-0.2919,-0.2979,-0.3017,-0.3058,-0.3127,-0.3152,-0.3167,-0.3194,-0.3752,-0.4001,-0.321,-0.3663,-0.3837,-0.3187,-0.3119,-0.3153,-0.3194,-0.3216,-0.3215,-0.3179,-0.3242,-0.3266,0.0,0.0,0.0,-0.3275,-0.3303,-0.3303,-0.3265,-0.3299,-0.3311,-0.3292,-0.3311,-0.3292,-0.3231,-0.3212,-0.3157,-0.3067,-0.3037,-0.3028,-0.3036,-0.3016,-0.299,-0.296,-0.293,-0.2905,-0.2889,-0.2878,-0.2874,-0.2874,-0.2874,-0.2874,-0.2874,-0.2874,-0.283,-0.2759,0.0,0.0,0.0,0.0,0.0,0.0,0.0,0.0,0.0,0.0,0.0,0.0,0.0,0.0,0.0,0.0,0.0,0.0,0.0,-0.0796,-0.1038,-0.0569,-0.1035,-0.129,-0.1231,-0.1308,-0.1332,-0.1297,-0.1786,-0.2063,-0.2043,-0.247,-0.2742,-0.277,-0.277,-0.277,-0.2767,-0.2739,-0.271,-0.2845,-0.4168,-0.4636,-0.4776,-0.6333,-0.6815,-0.6518,-0.5271,-0.4738,-0.4643,-0.4382,-0.3933,-0.3592,-0.4324,-0.4657,-0.449,-0.3007,-0.2695,-0.2795,-0.2825,-0.29,-0.2981,-0.3039,-0.3077,-0.3107,-0.3137,-0.3167,-0.3179,-0.3146,-0.3115,-0.3082,-0.305,-0.3021,-0.3003,-0.3006,-0.3036,-0.3081,-0.3141,-0.3152,-0.3174,0.0,0.0,0.0,0.0,0.0,0.0,-0.3283,0.0,-0.3324,-0.3321,-0.3324,-0.3325,-0.3324,-0.3325,-0.3296,-0.3235,-0.3228,-0.3183,-0.3097,-0.3067,-0.3037,-0.3011,-0.301,-0.2992,-0.2962,-0.2931,-0.2916,-0.2912,-0.2885,-0.2874,-0.2874,-0.2874,-0.2874,-0.2874,-0.2874,-0.2853,-0.2818,0.0,0.0,0.0,0.0,0.0,0.0,0.0,0.0,0.0,0.0,0.0,0.0,0.0,0.0,0.0,0.0,0.0,0.0,0.0,-0.0185,0.0192,0.1275,0.021,0.0145,0.1108,0.0149,-0.0379,-0.0386,-0.109,-0.1493,-0.1507,-0.224,-0.2575,-0.2583,-0.2583,-0.2583,-0.2582,-0.2575,-0.2567,-0.2636,-0.4086,-0.399,-0.3372,-0.6102,-0.6322,-0.5262,-0.6213,-0.5725,-0.4346,-0.319,-0.2844,-0.2902,-0.311,-0.3178,-0.3168,-0.2891,-0.2791,-0.2857,-0.2886,-0.2976,-0.3061,-0.3054,-0.3092,-0.3133,-0.3141,-0.3167,-0.3174,-0.312,-0.3067,-0.3007,-0.2932,-0.293,-0.2954,-0.2999,-0.3089,0.0,-0.3234,-0.3281,0.0,-0.3268,0.0,-0.332,-0.329,-0.3328,0.0,0.0,-0.3371,-0.3369,-0.3324,-0.3365,-0.3378,-0.3355,-0.3377,-0.3359,-0.3298,-0.3209,-0.3142,-0.3097,-0.3067,-0.3059,-0.3074,-0.3051,-0.3024,-0.2994,-0.2964,-0.2926,-0.2885,-0.2876,-0.2874,-0.2874,-0.2874,-0.2874,-0.2874,-0.2874,-0.2841,-0.2792,0.0,0.0,0.0,0.0,0.0,0.0,0.0,0.0,0.0,0.0,0.0,0.0,0.0,0.0,0.0,0.0,0.0,0.0,0.0,-0.041,-0.006,0.0689,0.0,-0.0066,0.0679,0.0,-0.0418,-0.0428,-0.1085,-0.1469,-0.1494,-0.2107,-0.2423,-0.2435,-0.2435,-0.2442,-0.2454,-0.244,-0.2443,0.0,0.0,-0.4043,-0.3614,-0.612,-0.647,-0.5577,-0.5978,-0.5086,-0.3562,-0.2736,-0.2559,-0.2628,-0.2688,-0.2728,-0.2763,-0.2823,-0.2875,-0.2919,-0.2947,-0.3025,-0.3093,-0.3077,-0.3108,-0.3135,-0.311,-0.3116,-0.3111,-0.3051,-0.298,-0.2909,-0.2845,-0.2868,-0.2904,-0.2926,0.0,0.0,-0.3246,-0.3296,-0.3329,0.0,-0.3366,0.0,-0.3339,-0.3366,-0.3392,0.0,-0.3422,-0.3411,-0.3363,-0.3405,-0.3412,-0.3367,-0.3396,-0.3382,-0.3322,-0.3216,-0.3148,-0.3116,-0.31,-0.3086,-0.3078,-0.3074,-0.3048,-0.3005,0.0,-0.2935,-0.2891,-0.2879,-0.2874,-0.2874,-0.2874,-0.2874,-0.2874,-0.2874,-0.2836,-0.2784,0.0,0.0,0.0,0.0,0.0,0.0,0.0,0.0,0.0,0.0,0.0,0.0,0.0,0.0,0.0,0.0,0.0,0.0,0.0,0.0,-0.0805,-0.0645,-0.0937,-0.1069,-0.0858,-0.1226,-0.1375,-0.1364,-0.165,-0.1831,-0.1827,-0.2115,-0.2203,-0.2154,-0.2154,-0.2168,-0.2262,-0.224,-0.2246,-0.2338,-0.3723,-0.4193,-0.4127,0.0,-0.6191,-0.5932,-0.4777,-0.3582,-0.2623,-0.2637,-0.2656,-0.2733,-0.2799,-0.2834,-0.2864,-0.2923,-0.2953,-0.2973,-0.3005,-0.3054,-0.3096,-0.3093,-0.3114,-0.3122,-0.3065,-0.305,-0.3028,-0.2964,-0.2885,-0.2816,-0.2778,-0.2821,-0.2859,-0.2848,-0.2991,-0.3135,-0.323,-0.3272,-0.3324,-0.3403,-0.3412,-0.3412,-0.3412,-0.3415,-0.3429,-0.3454,-0.3461,-0.345,-0.3419,-0.3442,-0.3431,-0.3374,-0.3395,-0.3378,-0.3322,-0.3232,-0.3175,-0.3149,-0.3141,-0.3111,-0.3065,-0.3092,-0.307,-0.3011,-0.298,0.0,-0.2913,-0.2886,-0.2874,-0.2874,-0.2874,-0.2874,-0.2874,-0.2874,-0.2836,-0.2784,0.0,0.0,0.0,0.0,0.0,0.0,0.0,0.0,0.0,0.0,-0.1004,-0.0911,0.0,0.0,0.0,0.0,0.0,0.0,0.0,0.0,0.0,0.0691,-0.1194,-0.1832,-0.0768,-0.2779,-0.386,-0.3891,-0.3271,-0.289,-0.2597,-0.2014,-0.1579,-0.1319,-0.1319,-0.1321,-0.1324,-0.1604,-0.1545,-0.1484,-0.3225,-0.2991,-0.1831,-0.3339,0.0,0.0,-0.2368,-0.2516,-0.2578,-0.2276,-0.2504,-0.2891,-0.2979,-0.2992,-0.2988,-0.3048,-0.3033,-0.3005,-0.3036,-0.307,-0.3092,-0.3066,-0.3082,-0.3096,-0.3061,-0.3032,-0.2991,-0.2906,-0.2857,-0.2804,-0.2724,-0.2758,-0.283,-0.2923,-0.3048,-0.3175,-0.329,-0.3354,-0.3395,0.0,-0.3412,-0.3412,-0.3412,-0.3434,0.0,0.0,-0.348,-0.3482,-0.345,-0.3454,-0.3441,-0.3405,-0.3385,-0.3356,-0.3321,-0.3232,-0.3186,-0.318,-0.3129,-0.3112,-0.3127,-0.3133,-0.3101,-0.3043,-0.3011,0.0,-0.2913,-0.2886,-0.2874,-0.2874,-0.2874,-0.2874,-0.2874,-0.2874,-0.2836,-0.2784,0.0,0.0,0.0,0.0,0.0,0.0,0.0,-0.1591,-0.1673,-0.1598,-0.1452,-0.1359,-0.1383,-0.1349,-0.1372,0.0,0.0,0.0,0.0,0.0,0.0,-0.1357,-0.247,-0.3153,-0.3141,-0.4322,-0.5002,-0.5042,0.0,-0.4517,-0.4367,-0.3311,-0.2644,-0.2267,-0.1575,-0.1203,-0.1086,-0.1231,-0.1243,-0.119,-0.2053,-0.1882,-0.1195,-0.1935,0.0,0.0,-0.151,-0.1801,-0.1929,-0.1819,-0.1969,-0.231,-0.2571,-0.2864,-0.3039,-0.3084,-0.3077,-0.3056,-0.3071,-0.311,-0.3137,-0.3107,-0.3111,-0.31,-0.3022,-0.2981,-0.2934,-0.2845,-0.2815,-0.2782,-0.2706,-0.2769,-0.2838,-0.2864,-0.2996,-0.3131,-0.3238,-0.3303,-0.3359,-0.3407,-0.3412,-0.3412,-0.3412,-0.3425,-0.344,-0.3456,-0.3471,-0.3472,-0.3457,-0.3442,-0.3427,-0.3412,-0.3382,-0.3344,-0.3298,-0.3239,-0.3187,-0.3141,-0.3144,-0.3127,-0.3097,-0.3129,-0.3092,-0.3005,-0.3006,0.0,-0.2915,-0.2901,-0.2896,-0.2894,-0.2879,-0.2874,-0.2874,-0.2874,-0.2667,-0.2456,0.0,0.0,0.0,0.0,0.0,0.0,0.0,-0.1643,-0.1739,-0.1805,-0.204,-0.2227,-0.2273,-0.1988,-0.1836,0.0,0.0,0.0,0.0,0.0,0.0,0.0,0.0,0.0,-0.575,0.0,0.0,-0.6362,-0.6191,0.0,0.0,0.0,0.0,0.0,-0.2589,-0.1986,-0.1697,-0.1408,-0.1298,0.0,0.0,-0.0913,-0.0848,0.0,0.0,0.0,0.0,-0.1221,-0.1336,-0.136,-0.1408,-0.165,-0.1893,-0.239,-0.297,-0.3091,-0.3005,-0.2913,-0.3107,-0.3044,-0.2974,-0.3051,-0.3129,-0.3086,-0.2984,-0.2923,-0.2868,-0.2797,-0.2773,-0.2751,-0.271,-0.2774,-0.2826,-0.2797,-0.2923,-0.3062,-0.3172,-0.3239,-0.331,-0.3401,-0.3412,0.0,-0.3207,-0.3208,0.0,-0.3139,-0.3136,-0.3241,-0.3457,-0.3429,-0.3306,-0.3198,-0.3389,-0.3347,-0.308,-0.3147,-0.3195,-0.3126,-0.3161,-0.3144,-0.2986,-0.2934,-0.2803,-0.2711,-0.2633,0.0,0.0,-0.2556,-0.2552,-0.2549,-0.2614,-0.2604,-0.2604,-0.2604,-0.232,-0.1944,0.0,0.0,0.0,0.0,0.0,0.0,0.0,-0.1643,-0.1746,-0.1779,-0.2889,-0.3643,-0.3696,-0.2601,-0.1891,0.0,0.0,0.0,0.0,0.0,0.0,0.0,0.0,0.0,0.0,0.0,0.0,-0.8887,-0.7925,0.0,0.0,0.0,0.0,0.0,0.0,-0.4122,-0.401,-0.2862,0.0,0.0,0.0,0.0,0.0,0.0,0.0,0.0,0.0,-0.0961,-0.1294,-0.0928,-0.103,-0.1389,-0.0996,-0.1598,-0.2513,-0.2999,-0.2727,-0.2452,-0.2942,-0.275,-0.2457,-0.2947,-0.3081,-0.3009,-0.2971,-0.2875,-0.2793,-0.2785,-0.2739,-0.2707,-0.2729,-0.272,-0.2735,-0.2812,-0.2883,-0.299,-0.3164,-0.3239,-0.331,-0.3401,0.0,0.0,-0.2695,-0.2697,-0.249,-0.1966,-0.1953,-0.2376,-0.3457,-0.3429,-0.3198,-0.2665,-0.3195,-0.3167,-0.2591,-0.2953,-0.3225,-0.3217,-0.317,-0.2861,-0.2481,-0.2485,-0.2163,-0.1638,-0.1625,0.0,0.0,-0.1562,-0.155,-0.1549,-0.1533,-0.1526,-0.1526,-0.1526,-0.1516,-0.1502,0.0,0.0,0.0,0.0,0.0,0.0,-0.1613,-0.1643,-0.2019,-0.2878,-0.3457,-0.415,-0.5029,-0.4631,-0.4318,-0.4322,0.0,0.0,0.0,0.0,0.0,0.0,0.0,0.0,0.0,0.0,-0.8987,-0.8248,-0.7816,0.0,0.0,0.0,0.0,0.0,0.0,-0.4916,-0.4681,-0.4253,0.0,0.0,0.0,0.0,0.0,0.0,0.0,0.0,0.0,0.0,-0.0477,-0.0326,-0.0417,-0.0595,-0.0692,-0.1079,-0.15,-0.2004,-0.2231,-0.2262,-0.2176,-0.1997,-0.1911,-0.2101,-0.2141,-0.2174,-0.2434,-0.2443,-0.2363,-0.2418,-0.2579,-0.2568,-0.1951,-0.2291,-0.264,-0.24,-0.2607,-0.2853,-0.2981,-0.305,-0.3043,-0.2773,-0.2801,0.0,0.0,0.0,-0.1932,-0.1723,-0.1709,-0.1918,-0.2356,-0.2444,-0.2321,-0.2098,-0.2308,-0.2281,-0.1924,-0.2111,-0.2191,-0.2165,-0.2162,-0.2066,-0.1877,-0.1877,-0.1759,-0.1534,-0.1519,0.0,0.0,-0.1471,-0.1464,-0.147,-0.1446,-0.1436,-0.1436,-0.1436,-0.1253,-0.0981,0.0,0.0,0.0,0.0,0.0,-0.1594,-0.1602,-0.1942,-0.2549,-0.3616,-0.4432,-0.5319,-0.6315,-0.6798,-0.7059,-0.7096,-0.6105,0.0,0.0,0.0,0.0,0.0,0.0,0.0,0.0,0.0,-0.7895,-0.7025,-0.709,-0.716,0.0,0.0,-0.6536,-0.7583,0.0,0.0,0.0,0.0,0.0,0.0,0.0,0.0,0.0,0.0,0.0,0.0,0.0,0.0,0.0,0.0,0.0,-0.0417,-0.0588,-0.0867,-0.1172,-0.1398,-0.1633,-0.177,-0.1683,-0.1508,-0.1426,-0.1518,-0.1571,-0.1615,-0.2063,-0.2175,-0.21,-0.2233,-0.2575,-0.2488,-0.1695,-0.2037,-0.2377,-0.1853,-0.2123,-0.234,-0.2513,-0.2564,-0.2456,-0.2191,0.0,-0.2047,0.0,-0.1278,-0.1175,-0.1168,-0.1164,-0.1162,-0.1163,-0.1157,-0.1255,-0.1459,-0.1662,-0.1643,-0.1407,-0.1503,-0.159,-0.1569,-0.1575,-0.1482,-0.1287,-0.1378,-0.1265,-0.1053,-0.1039,0.0,0.0,-0.101,-0.1099,-0.1012,-0.0995,-0.0988,-0.0988,-0.0988,-0.0808,-0.0449,0.0,0.0,0.0,0.0,0.0,0.0,-0.1568,-0.2633,-0.3432,-0.3559,-0.5921,-0.7551,-0.7557,-0.8883,-0.9815,-0.997,-0.741,0.0,0.0,0.0,0.0,0.0,0.0,0.0,0.0,0.0,-0.571,-0.571,-0.5883,-0.5906,-0.5906,-0.5998,-0.6741,-0.8082,0.0,0.0,0.0,0.0,0.0,0.0,0.0,0.0,-0.3489,0.0,0.0,0.0,0.0,0.0,0.0,0.0,0.0,0.0,0.0,-0.1273,-0.19,-0.1622,-0.1135,-0.0884,-0.1473,-0.1195,-0.0909,-0.1515,-0.1571,-0.1612,-0.2138,-0.2151,-0.2254,-0.2573,-0.2714,-0.2618,-0.2133,-0.2035,-0.1851,-0.1346,-0.1359,-0.1476,-0.1541,-0.1564,-0.1598,0.0,0.0,-0.1496,-0.0931,-0.0319,0.0,0.0,0.0,0.0,0.0,0.0,-0.0313,-0.0841,-0.1459,-0.1447,-0.0819,-0.1319,-0.1616,-0.1616,-0.1601,-0.1301,-0.0807,-0.0792,-0.0488,0.0,0.0,0.0,0.0,0.0,0.0,0.0,0.0,0.0,0.0,0.0,0.0,0.0,0.0,0.0,0.0,0.0,0.0,0.0,0.0,-0.4131,-0.4778,-0.5982,-0.6873,-0.7858,-0.8973,-0.9577,-0.9936,-0.9984,-0.8916,0.0,0.0,0.0,0.0,0.0,0.0,0.0,0.0,-0.8648,-0.8149,-0.7311,-0.638,-0.6441,-0.7526,-0.6605,-0.7385,-0.957,-0.9462,-0.9659,0.0,0.0,0.0,0.0,0.0,-0.6976,-0.6505,0.0,0.0,0.0,0.0,0.0,0.0,0.0,0.0,0.0,0.0,0.0,0.0,-0.1376,-0.1532,-0.1604,-0.1416,-0.134,-0.1259,-0.1338,-0.1408,-0.1475,-0.1637,-0.1597,-0.156,-0.1372,-0.1526,-0.1516,-0.0761,-0.1097,-0.1349,-0.0935,-0.1109,-0.1378,-0.132,-0.1453,0.0,-0.1065,-0.0708,-0.0521,0.0,0.0,0.0,0.0,0.0,0.0,0.0,0.0,-0.0102,-0.0304,-0.0407,-0.0404,-0.0299,-0.04,-0.05,-0.05,-0.0499,-0.0399,-0.03,-0.0296,-0.0195,0.0,0.0,0.0,0.0,0.0,0.0,0.0,0.0,0.0,0.0,0.0,0.0,0.0,0.0,0.0,0.0,0.0,0.0,0.0,0.0,-0.5281,-0.5911,-0.7078,-0.7715,-0.8508,-0.9746,-0.9985,-1.0073,-1.0259,-0.9944,0.0,0.0,0.0,0.0,0.0,0.0,0.0,-0.896,-0.8604,-0.8026,-0.7348,-0.5974,-0.6102,-0.7582,-0.6126,-0.6987,-0.9657,-0.9607,-0.9877,0.0,0.0,0.0,0.0,-0.9678,-0.8936,-0.8361,0.0,0.0,0.0,0.0,0.0,0.0,0.0,0.0,0.0,0.0,0.0,0.0,0.0,-0.295,-0.3062,-0.1642,-0.13,-0.1317,-0.13,-0.1375,-0.1356,-0.1342,-0.1404,-0.1292,-0.1022,-0.1099,-0.1092,-0.0419,-0.0672,-0.0927,-0.0507,-0.0681,-0.0774,-0.0786,-0.0814,0.0,-0.0485,0.0,0.0,0.0,0.0,0.0,0.0,0.0,0.0,0.0,0.0,0.0,0.0,0.0,0.0,0.0,0.0,0.0,0.0,0.0,0.0,0.0,0.0,0.0,0.0,0.0,0.0,0.0,0.0,0.0,0.0,0.0,0.0,0.0,0.0,0.0,0.0,0.0,0.0,0.0,0.0,0.0,0.0,0.0,-0.6203,-0.69,-0.7169,-0.835,-0.9431,-1.0006,-1.0012,-1.0246,-1.0707,0.0,0.0,0.0,0.0,0.0,0.0,0.0,0.0,-0.8033,-0.6917,-0.6415,-0.6419,-0.5185,-0.5326,-0.6649,-0.5272,-0.6105,-0.8767,-0.8596,-0.9336,0.0,0.0,0.0,0.0,-1.1274,-1.0536,0.0,0.0,0.0,0.0,0.0,0.0,0.0,0.0,0.0,0.0,0.0,0.0,0.0,0.0,0.0,0.0,0.0,-0.145,-0.1381,-0.1379,-0.136,-0.1338,-0.1324,-0.1301,0.0,-0.1181,-0.1178,-0.1091,-0.0748,-0.0669,-0.0504,-0.0083,0.0,0.0,0.0,0.0,0.0,0.0,0.0,0.0,0.0,0.0,0.0,0.0,0.0,0.0,0.0,0.0,0.0,0.0,0.0,0.0,0.0,0.0,0.0,0.0,0.0,0.0,0.0,0.0,0.0,0.0,0.0,0.0,0.0,0.0,0.0,0.0,0.0,0.0,0.0,0.0,0.0,0.0,0.0,0.0,0.0,0.0,0.0,0.0,0.0,0.0,0.0,0.0,-0.8781,-0.9191,-0.9834,-1.0108,-1.0306,0.0,0.0,0.0,0.0,0.0,0.0,0.0,0.0,0.0,-0.9329,-0.9162,-0.9162,-0.9329,-0.807,-0.8186,-0.9666,-0.823,-0.8507,-1.018,-1.0148,-1.0353,0.0,0.0,0.0,0.0,-1.1314,-1.1244,0.0,0.0,0.0,0.0,-0.8976,-0.8328,0.0,0.0,0.0,0.0,0.0,0.0,0.0,0.0,-0.6262,-0.5161,-0.4408,0.0,-0.2345,-0.2306,-0.2317,-0.2157,0.0,-0.1366,-0.1194,-0.0422,-0.0337,-0.0253,-0.017,-0.0169,-0.0169,0.0,0.0,0.0,0.0,0.0,0.0,0.0,0.0,0.0,0.0,0.0,0.0,0.0,0.0,0.0,0.0,0.0,0.0,0.0,0.0,0.0,0.0,0.0,0.0,0.0,0.0,0.0,0.0,0.0,0.0,0.0,0.0,0.0,0.0,0.0,0.0,0.0,0.0,0.0,0.0,0.0,0.0,0.0,0.0,0.0,0.0,0.0,0.0,0.0,0.0,0.0,0.0,0.0,0.0,-0.9137,-0.9845,-1.0053,0.0,0.0,0.0,0.0,0.0,0.0,0.0,0.0,0.0,-0.9856,-0.9862,-1.0073,-1.0229,-1.0378,-0.9145,-0.9275,-1.0759,-0.9273,-0.9413,-1.0819,-1.0751,-1.0717,0.0,0.0,0.0,-1.1084,-1.1301,0.0,0.0,0.0,0.0,0.0,-1.065,-1.0358,0.0,-1.0049,-1.0254,-1.0378,0.0,0.0,0.0,0.0,-0.7252,-0.6174,-0.4399,-0.3321,-0.2706,-0.2575,-0.2505,-0.219,-0.1431,-0.1174,-0.0837,-0.0168,0.0,0.0,0.0,0.0,0.0,0.0,0.0,0.0,0.0,0.0,0.0,0.0,0.0,0.0,0.0,0.0,0.0,0.0,0.0,0.0,0.0,0.0,0.0,0.0,0.0,0.0,0.0,0.0,0.0,0.0,0.0,0.0,0.0,0.0,0.0,0.0,0.0,0.0,0.0,0.0,0.0,0.0,0.0,0.0,0.0,0.0,0.0,0.0,0.0,0.0,0.0,0.0,0.0,0.0,0.0,0.0,0.0,0.0,0.0,0.0,0.0,0.0,0.0,0.0,0.0,0.0,0.0,0.0,0.0,0.0,-0.9889,-0.9842,-0.995,-0.9936,-1.0011,-1.0129,-0.8855,-0.9069,-1.0567,-0.9305,-0.9514,-1.0907,-1.0846,-1.0772,0.0,0.0,0.0,-1.0968,-1.1287,0.0,0.0,0.0,0.0,0.0,0.0,0.0,0.0,-1.2595,-1.2775,-1.2996,-1.2624,0.0,0.0,0.0,0.0,0.0,-0.3583,-0.2646,-0.2515,-0.2478,-0.223,-0.191,-0.1338,-0.0907,-0.0573,-0.0084,0.0,0.0,0.0,0.0,0.0,0.0,0.0,0.0,0.0,0.0,0.0,0.0,0.0,0.0,0.0,0.0,0.0,0.0,0.0,0.0,0.0,0.0,0.0,0.0,0.0,0.0,0.0,0.0,0.0,0.0,0.0,0.0,0.0,0.0,0.0,0.0,0.0,0.0,0.0,0.0,0.0,0.0,0.0,0.0,0.0,0.0,0.0,0.0,0.0,0.0,0.0,0.0,0.0,0.0,0.0,0.0,0.0,0.0,0.0,0.0,0.0,0.0,0.0,0.0,0.0,0.0,0.0,0.0,0.0,-1.0432,-1.0161,-0.9903,-0.9856,-0.8929,-0.8422,-0.8439,-0.7365,-0.7693,-0.9262,-0.9131,-0.9753,-1.1131,-1.1104,-1.1029,-1.0847,-1.0873,0.0,-1.1328,-1.1375,0.0,0.0,0.0,0.0,0.0,0.0,0.0,0.0,-1.1081,-1.142,-1.1944,-0.9112,0.0,0.0,0.0,0.0,0.0,-0.3815,-0.2561,-0.1587,-0.1945,-0.2055,-0.1838,-0.0985,-0.0734,-0.0572,-0.0083,0.0,0.0,0.0,0.0,0.0,0.0,0.0,0.0,0.0,0.0,0.0,0.0,0.0,0.0,0.0,0.0,0.0,0.0,0.0,0.0,0.0,0.0,0.0,0.0,0.0,0.0,0.0,0.0,0.0,0.0,0.0,0.0,0.0,0.0,0.0,0.0,0.0,0.0,0.0,0.0,0.0,0.0,0.0,0.0,0.0,0.0,0.0,0.0,0.0,0.0,0.0,0.0,0.0,0.0,0.0,0.0,0.0,0.0,0.0,0.0,0.0,0.0,0.0,0.0,0.0,0.0,0.0,0.0,-1.0493,-1.0263,-1.0058,-0.999,-1.0066,-0.8799,-0.8151,-0.828,-0.7075,-0.6922,-0.778,-0.7826,-0.8145,-0.8744,-0.8681,-0.8623,-0.8507,-0.8507,-0.8676,-0.8899,0.0,0.0,0.0,0.0,0.0,0.0,0.0,0.0,0.0,0.0,-1.0067,-1.02,-0.7787,0.0,0.0,0.0,0.0,0.0,-0.2736,-0.1884,-0.1244,-0.1218,-0.1242,-0.127,-0.0838,-0.0497,-0.0248,-0.0084,0.0,0.0,0.0,0.0,0.0,0.0,0.0,0.0,0.0,0.0,0.0,0.0,0.0,0.0,0.0,0.0,0.0,0.0,0.0,0.0,0.0,0.0,0.0,0.0,0.0,0.0,0.0,0.0,0.0,0.0,0.0,0.0,0.0,0.0,0.0,0.0,0.0,0.0,0.0,0.0,0.0,0.0,0.0,0.0,0.0,0.0,0.0,0.0,0.0,0.0,0.0,0.0,0.0,0.0,0.0,0.0,0.0,0.0,0.0,0.0,0.0,0.0,0.0,0.0,0.0,0.0,0.0,-1.0297,-1.0344,-1.0051,-1.0038,-1.0141,-1.0222,-0.8846,-0.8026,-0.7942,-0.6647,-0.614,-0.6407,-0.7194,-0.7208,-0.6682,-0.6645,-0.6597,-0.6597,-0.6527,-0.6579,-0.6658,0.0,0.0,0.0,0.0,0.0,0.0,0.0,0.0,0.0,0.0,0.0,0.0,0.0,0.0,0.0,-0.355,-0.304,-0.2784,-0.1362,-0.0978,-0.0909,-0.0575,-0.0584,-0.068,-0.0598,-0.0252,0.0,0.0,0.0,0.0,0.0,0.0,0.0,0.0,0.0,0.0,0.0,0.0,0.0,0.0,0.0,0.0,0.0,0.0,0.0,0.0,0.0,0.0,0.0,0.0,0.0,0.0,0.0,0.0,0.0,0.0,0.0,0.0,0.0,0.0,0.0,0.0,0.0,0.0,0.0,0.0,0.0,0.0,0.0,0.0,0.0,0.0,0.0,0.0,0.0,0.0,0.0,0.0,0.0,0.0,0.0,0.0,0.0,0.0,0.0,0.0,0.0,0.0,0.0,0.0,0.0,0.0,0.0,0.0,0.0,-1.0202,-1.0283,-1.0263,-1.0263,-1.0202,-1.0004,-0.8736,-0.7541,-0.6421,-0.52,-0.4749,-0.5208,-0.8239,-0.8736,-0.7003,-0.6909,-0.6831,-0.676,-0.6689,-0.6598,-0.6456,-0.6383,0.0,0.0,0.0,0.0,0.0,0.0,0.0,0.0,0.0,0.0,0.0,0.0,0.0,-0.2438,-0.0787,-0.0315,-0.0237,-0.0162,-0.0082,-0.0083,-0.0084,-0.0334,-0.0584,-0.017,0.0,0.0,0.0,0.0,0.0,0.0,0.0,0.0,0.0,0.0,0.0,0.0,0.0,0.0,0.0,0.0,0.0,0.0,0.0,0.0,0.0,0.0,0.0,0.0,0.0,0.0,0.0,0.0,0.0,0.0,0.0,0.0,0.0,0.0,0.0,0.0,0.0,0.0,0.0,0.0,0.0,0.0,0.0,0.0,0.0,0.0,0.0,0.0,0.0,0.0,0.0,0.0,0.0,0.0,0.0,0.0,0.0,0.0,0.0,0.0,0.0,0.0,0.0,0.0,0.0,0.0,0.0,0.0,0.0,0.0,-0.991,-1.0039,-1.0134,-1.0046,-1.0059,-1.0188,-0.8916,-0.8075,-0.7728,-0.6575,-0.6142,-0.6304,-0.6548,-0.6224,-0.5351,-0.4445,-0.4002,-0.4002,-0.3745,-0.3622,-0.3494,-0.2985,-0.2694,0.0,0.0,0.0,0.0,0.0,0.0,0.0,0.0,-0.3677,-0.4106,-0.117,-0.0549,-0.0793,-0.0157,0.0,0.0,0.0,0.0,0.0,0.0,-0.0166,-0.0252,0.0,0.0,0.0,0.0,0.0,0.0,0.0,0.0,0.0,0.0,0.0,0.0,0.0,0.0,0.0,0.0,0.0,0.0,0.0,0.0,0.0,0.0,0.0,0.0,0.0,0.0,0.0,0.0,0.0,0.0,0.0,0.0,0.0,0.0,0.0,0.0,0.0,0.0,0.0,0.0,0.0,0.0,0.0,0.0,0.0,0.0,0.0,0.0,0.0,0.0,0.0,0.0,0.0,0.0,0.0,0.0,0.0,0.0,0.0,0.0,0.0,0.0,0.0,0.0,0.0,0.0,0.0,0.0,0.0,0.0,-0.8336,-0.8803,-0.9188,-0.9284,-0.9322,-0.9623,-1.0276,-0.9552,-0.8995,-0.866,-0.8073,-0.7538,-0.697,-0.5949,-0.5078,-0.4333,-0.2943,-0.2229,-0.2102,-0.1892,-0.1677,-0.1385,-0.0802,-0.0511,0.0,0.0,0.0,0.0,0.0,0.0,0.0,0.0,-0.2036,-0.2215,-0.0546,0.0,0.0,0.0,0.0,0.0,0.0,0.0,0.0,0.0,0.0,0.0,0.0,0.0,0.0,0.0,0.0,0.0,0.0,0.0,0.0,0.0,0.0,0.0,0.0,0.0,0.0,0.0,0.0,0.0,0.0,0.0,0.0,0.0,0.0,0.0,0.0,0.0,0.0,0.0,0.0,0.0,0.0,0.0,0.0,0.0,0.0,0.0,0.0,0.0,0.0,0.0,0.0,0.0,0.0,0.0,0.0,0.0,0.0,0.0,0.0,0.0,0.0,0.0,0.0,0.0,0.0,0.0,0.0,0.0,0.0,0.0,0.0,0.0,0.0,0.0,0.0,0.0,0.0,0.0,0.0,0.0,-0.5737,-0.6901,-0.7682,-0.7795,-0.8149,-0.8927,-1.0276,-1.0568,-1.0122,-0.8905,-0.9402,-0.8691,-0.681,-0.7083,-0.6217,-0.4443,-0.2965,-0.2105,-0.1781,-0.1759,-0.1312,-0.0584,-0.0584,-0.0365,0.0,0.0,0.0,0.0,0.0,0.0,0.0,0.0,-0.1098,-0.2194,-0.0549,0.0,0.0,0.0,0.0,0.0,0.0,0.0,0.0,0.0,0.0,0.0,0.0,0.0,0.0,0.0,0.0,0.0,0.0,0.0,0.0,0.0,0.0,0.0,0.0,0.0,0.0,0.0,0.0,0.0,0.0,0.0,0.0,0.0,0.0,0.0,0.0,0.0,0.0,0.0,0.0,0.0,0.0,0.0,0.0,0.0,0.0,0.0,0.0,0.0,0.0,0.0,0.0,0.0,0.0,0.0,0.0,0.0,0.0,0.0,0.0,0.0,0.0,0.0,0.0,0.0,0.0,0.0,0.0,0.0,0.0,0.0,0.0,0.0,0.0,0.0,0.0,0.0,0.0,0.0,0.0,0.0,-0.8342,-0.8594,-0.8897,-0.9191,-0.9236,-0.9581,-1.027,-1.0677,-1.0723,-1.0531,-1.0754,-1.0001,-0.8318,-0.7006,-0.5568,-0.3935,-0.2206,-0.143,-0.1286,-0.1088,-0.0798,-0.0576,-0.0291,-0.0073,0.0,0.0,0.0,0.0,0.0,0.0,0.0,0.0,0.0,0.0,-0.0156,0.0,0.0,0.0,0.0,0.0,0.0,0.0,0.0,0.0,0.0,0.0,0.0,0.0,0.0,0.0,0.0,0.0,0.0,0.0,0.0,0.0,0.0,0.0,0.0,0.0,0.0,0.0,0.0,0.0,0.0,0.0,0.0,0.0,0.0,0.0,0.0,0.0,0.0,0.0,0.0,0.0,0.0,0.0,0.0,0.0,0.0,0.0,0.0,0.0,0.0,0.0,0.0,0.0,0.0,0.0,0.0,0.0,0.0,0.0,0.0,0.0,0.0,0.0,0.0,0.0,0.0,0.0,0.0,0.0,0.0,0.0,0.0,0.0,-0.9646,-0.946,0.0,0.0,0.0,0.0,0.0,0.0,0.0,-0.8375,-0.8688,-0.8998,-0.9025,-0.9492,-1.0446,-1.0645,-1.0751,-1.0785,-1.0991,-1.0246,-0.866,-0.6795,-0.5048,-0.3558,-0.1865,-0.1082,-0.0856,-0.0652,-0.0507,-0.0358,-0.0072,0.0,0.0,0.0,0.0,0.0,0.0,0.0,0.0,0.0,0.0,0.0,0.0,0.0,0.0,0.0,0.0,0.0,0.0,0.0,0.0,0.0,0.0,0.0,0.0,0.0,0.0,0.0,0.0,0.0,0.0,0.0,0.0,0.0,0.0,0.0,0.0,0.0,0.0,0.0,0.0,0.0,0.0,0.0,0.0,0.0,0.0,0.0,0.0,0.0,0.0,0.0,0.0,0.0,0.0,0.0,0.0,0.0,0.0,0.0,0.0,0.0,0.0,0.0,0.0,0.0,0.0,0.0,0.0,0.0,0.0,0.0,0.0,0.0,0.0,0.0,0.0,0.0,0.0,0.0,0.0,0.0,0.0,0.0,0.0,0.0,-0.9503,-0.9123,0.0,0.0,0.0,0.0,0.0,0.0,0.0,-0.7082,-0.7801,-0.8002,-0.8296,-0.9186,-1.0624,-1.0504,-1.0383,-1.0193,-1.0457,-0.9686,-0.799,-0.6321,-0.4627,-0.2993,-0.1684,-0.0883,-0.0509,-0.0509,-0.0361,0.0,0.0,0.0,0.0,0.0,0.0,0.0,0.0,0.0,0.0,0.0,0.0,0.0,0.0,0.0,0.0,0.0,0.0,0.0,0.0,0.0,0.0,0.0,0.0,0.0,0.0,0.0,0.0,0.0,0.0,0.0,0.0,0.0,0.0,0.0,0.0,0.0,0.0,0.0,0.0,0.0,0.0,0.0,0.0,0.0,0.0,0.0,0.0,0.0,0.0,0.0,0.0,0.0,0.0,0.0,0.0,0.0,0.0,0.0,0.0,0.0,0.0,0.0,0.0,0.0,0.0,0.0,0.0,0.0,0.0,0.0,0.0,0.0,0.0,0.0,0.0,0.0,0.0,0.0,0.0,0.0,0.0,0.0,0.0,0.0,0.0,0.0,0.0,0.0,0.0,0.0,0.0,0.0,0.0,0.0,0.0,-0.8929,-0.9117,-0.9338,-0.9823,-1.0214,-1.0541,-1.0624,-1.0485,-1.0193,-1.009,-0.8663,-0.5994,-0.5332,-0.3582,-0.1056,-0.0501,-0.0215,-0.0141,-0.0141,-0.007,0.0,0.0,0.0,0.0,0.0,0.0,0.0,0.0,0.0,0.0,0.0,0.0,0.0,0.0,0.0,0.0,0.0,0.0,0.0,0.0,0.0,0.0,0.0,0.0,0.0,0.0,0.0,0.0,0.0,0.0,0.0,0.0,0.0,0.0,0.0,0.0,0.0,0.0,0.0,0.0,0.0,0.0,0.0,0.0,0.0,0.0,0.0,0.0,0.0,0.0,0.0,0.0,0.0,0.0,0.0,0.0,0.0,0.0,0.0,0.0,0.0,0.0,0.0,0.0,0.0,0.0,0.0,0.0,0.0,0.0,0.0,0.0,0.0,0.0,0.0,0.0,0.0,0.0,0.0,0.0,0.0,0.0,0.0,0.0,0.0,0.0,0.0,0.0,0.0,0.0,0.0,0.0,0.0,0.0,0.0,0.0,0.0,-0.9836,-1.0127,-1.0439,-1.0602,-1.0602,-1.0485,-1.0326,-0.9994,-0.9655,-0.803,-0.5095,-0.4726,-0.3047,-0.0278,-0.0071,0.0,0.0,0.0,0.0,0.0,0.0,0.0,0.0,0.0,0.0,0.0,0.0,0.0,0.0,0.0,0.0,0.0,0.0,0.0,0.0,0.0,0.0,0.0,0.0,0.0,0.0,0.0,0.0,0.0,0.0,0.0,0.0,0.0,0.0,0.0,0.0,0.0,0.0,0.0,0.0,0.0,0.0,0.0,0.0,0.0,0.0,0.0,0.0,0.0,0.0,0.0,0.0,0.0,0.0,0.0,0.0,0.0,0.0,0.0,0.0,0.0,0.0,0.0,0.0,0.0,0.0,0.0,0.0,0.0,0.0,0.0,0.0,0.0,0.0,0.0,0.0,0.0,0.0,0.0,0.0,0.0,0.0,0.0,0.0,0.0,0.0,0.0,0.0,0.0,0.0,0.0,0.0,0.0,0.0,0.0,0.0,0.0,0.0,0.0,0.0,0.0,0.0,-1.0446,-1.0622,-1.0717,-1.0717,-1.0452,-1.006,-0.9728,-0.9389,-0.7794,-0.513,-0.4842,-0.3289,-0.0756,-0.0773,-0.0631,-0.0344,-0.0347,-0.0208,0.0,0.0,0.0,0.0,0.0,0.0,0.0,0.0,0.0,0.0,0.0,0.0,0.0,0.0,0.0,0.0,0.0,0.0,0.0,0.0,0.0,0.0,0.0,0.0,0.0,0.0,0.0,0.0,0.0,0.0,0.0,0.0,0.0,0.0,0.0,0.0,0.0,0.0,0.0,0.0,0.0,0.0,0.0,0.0,0.0,0.0,0.0,0.0,0.0,0.0,0.0,0.0,0.0,0.0,0.0,0.0,0.0,0.0,0.0,0.0,0.0,0.0,0.0,0.0,0.0,0.0,0.0,0.0,0.0,0.0,0.0,0.0,0.0,0.0,0.0,0.0,0.0,0.0,0.0,0.0,0.0,0.0,0.0,0.0,0.0,0.0,0.0,-0.9357,-0.9388,0.0,0.0,0.0,0.0,0.0,0.0,-0.9612,0.0,0.0,-1.0304,-1.0575,-1.0717,-1.0717,-1.0651,-1.0326,-0.9728,-0.9661,-0.8553,-0.6529,-0.6264,-0.5276,-0.37,-0.3714,-0.3027,-0.1852,-0.1834,-0.1149,0.0,0.0,0.0,0.0,0.0,0.0,0.0,0.0,0.0,0.0,0.0,0.0,0.0,0.0,0.0,0.0,0.0,0.0,0.0,0.0,0.0,0.0,0.0,0.0,0.0,0.0,0.0,0.0,0.0,0.0,0.0,0.0,0.0,0.0,0.0,0.0,0.0,0.0,0.0,0.0,0.0,0.0,0.0,0.0,0.0,0.0,0.0,0.0,0.0,0.0,0.0,0.0,0.0,0.0,0.0,0.0,0.0,0.0,0.0,0.0,0.0,0.0,0.0,0.0,0.0,0.0,0.0,0.0,0.0,0.0,0.0,0.0,0.0,0.0,0.0,0.0,0.0,0.0,0.0,0.0,0.0,0.0,0.0,0.0,0.0,0.0,0.0,0.0,-0.932,0.0,0.0,0.0,-0.9374,-0.9523,-0.968,-0.9781,-1.0039,-1.0222,-1.0392,-1.0521,-1.0629,-1.0717,-1.0525,-1.0193,-0.9728,-0.9455,-0.8912,-0.797,-0.7915,-0.6729,-0.4555,-0.4522,-0.3659,-0.2195,-0.2163,-0.1272,0.0,0.0,0.0,0.0,0.0,0.0,0.0,0.0,0.0,0.0,0.0,0.0,0.0,0.0,0.0,0.0,0.0,0.0,0.0,0.0,0.0,0.0,0.0,0.0,0.0,0.0,0.0,0.0,0.0,0.0,0.0,0.0,0.0,0.0,0.0,0.0,0.0,0.0,0.0,0.0,0.0,0.0,0.0,0.0,0.0,0.0,0.0,0.0,0.0,0.0,0.0,0.0,0.0,0.0,0.0,0.0,0.0,0.0,0.0,0.0,0.0,0.0,0.0,0.0,0.0,0.0,0.0,0.0,0.0,0.0,0.0,0.0,0.0,0.0,0.0,0.0,0.0,0.0,0.0,0.0,0.0,0.0,0.0,0.0,0.0,0.0,0.0,0.0,0.0,0.0,0.0,0.0,0.0,-0.9462,-0.9659,-0.9862,-0.9943,-1.0105,-1.0426,-1.0408,-1.0431,-1.0585,-1.0259,-0.9927,-0.9528,-0.925,-0.9081,-0.8971,-0.9133,-0.8069,-0.6032,-0.5486,-0.434,-0.2755,-0.2303,-0.1273,0.0,0.0,0.0,0.0,0.0,0.0,0.0,0.0,0.0,0.0,0.0,0.0,0.0,0.0,0.0,0.0,0.0,0.0,0.0,0.0,0.0,0.0,0.0,0.0,0.0,0.0,0.0,0.0,0.0,0.0,0.0,0.0,0.0,0.0,0.0,0.0,0.0,0.0,0.0,0.0,0.0,0.0,0.0,0.0,0.0,0.0,0.0,0.0,0.0,0.0,0.0,0.0,0.0,0.0,0.0,0.0,0.0,0.0,0.0,0.0,0.0,0.0,0.0,0.0,0.0,0.0,0.0,0.0,0.0,0.0,0.0,0.0,0.0,0.0,0.0,0.0,0.0,0.0,0.0,0.0,0.0,0.0,0.0,0.0,0.0,0.0,0.0,0.0,0.0,-0.9591,-0.9469,-0.932,-0.9234,-0.9364,-0.9462,-0.9618,-0.9835,-1.0058,-1.0283,-1.0096,0.0,-1.0187,-0.9927,-0.9528,-0.9117,-0.9117,-0.9166,-0.9285,-0.9291,-0.9402,-0.9476,-0.7672,-0.5866,-0.4115,-0.2719,-0.1287,0.0,0.0,0.0,0.0,0.0,0.0,0.0,0.0,0.0,0.0,0.0,0.0,0.0,0.0,0.0,0.0,0.0,0.0,0.0,0.0,0.0,0.0,0.0,0.0,0.0,0.0,0.0,0.0,0.0,0.0,0.0,0.0,0.0,0.0,0.0,0.0,0.0,0.0,0.0,0.0,0.0,0.0,0.0,0.0,0.0,0.0,0.0,0.0,0.0,0.0,0.0,0.0,0.0,0.0,0.0,0.0,0.0,0.0,0.0,0.0,0.0,0.0,0.0,0.0,0.0,0.0,0.0,0.0,0.0,0.0,0.0,0.0,0.0,0.0,0.0,0.0,0.0,0.0,0.0,0.0,0.0,0.0,0.0,0.0,0.0,0.0,0.0,0.0,0.0,0.0,-0.9693,-0.9605,-0.9456,-0.9496,-0.9591,-0.9734,-0.9842,-0.9888,-0.9939,-0.987,-0.9818,-0.9854,-0.9522,-0.925,-0.9117,-0.8851,-0.8889,-0.9079,-0.916,-0.9264,-0.931,-0.7801,-0.6694,-0.5863,-0.3207,-0.1811,-0.1266,-0.0387,0.0,0.0,0.0,0.0,0.0,0.0,0.0,0.0,0.0,0.0,0.0,0.0,0.0,0.0,0.0,0.0,0.0,0.0,0.0,0.0,0.0,0.0,0.0,0.0,0.0,0.0,0.0,0.0,0.0,0.0,0.0,0.0,0.0,0.0,0.0,0.0,0.0,0.0,0.0,0.0,0.0,0.0,0.0,0.0,0.0,0.0,0.0,0.0,0.0,0.0,0.0,0.0,0.0,0.0,0.0,0.0,0.0,0.0,0.0,0.0,0.0,0.0,0.0,0.0,0.0,0.0,0.0,0.0,0.0,0.0,0.0,0.0,0.0,0.0,0.0,0.0,0.0,0.0,0.0,0.0,0.0,0.0,0.0,0.0,-1.0125,0.0,0.0,0.0,0.0,-0.9781,-0.9686,-0.9727,-0.9774,-0.9815,-0.9917,-0.9942,-0.9882,-0.987,-0.9812,-0.9854,-0.9389,-0.9099,-0.9053,-0.8728,-0.8633,-0.8829,-0.891,-0.9019,-0.9062,-0.7597,-0.6673,-0.5976,-0.3298,-0.1886,-0.1331,-0.0385,0.0,0.0,0.0,0.0,0.0,0.0,0.0,0.0,0.0,0.0,0.0,0.0,0.0,0.0,0.0,0.0,0.0,0.0,0.0,0.0,0.0,0.0,0.0,0.0,0.0,0.0,0.0,0.0,0.0,0.0,0.0,0.0,0.0,0.0,0.0,0.0,0.0,0.0,0.0,0.0,0.0,0.0,0.0,0.0,0.0,0.0,0.0,0.0,0.0,0.0,0.0,0.0,0.0,0.0,0.0,0.0,0.0,0.0,0.0,0.0,0.0,0.0,0.0,0.0,0.0,0.0,0.0,0.0,0.0,0.0,0.0,0.0,0.0,0.0,0.0,0.0,0.0,0.0,0.0,0.0,0.0,0.0,0.0,-1.0458,-1.0101,0.0,0.0,0.0,0.0,0.0,-0.9836,-0.9909,-0.993,-0.9842,-1.0114,-1.0283,-1.029,-1.0096,-1.0045,-1.0187,-0.9455,-0.9059,-0.8938,-0.8612,-0.847,-0.8645,-0.8579,-0.8769,-0.9025,-0.7238,-0.5762,-0.4477,-0.2909,-0.144,-0.0137,-0.0065,0.0,0.0,0.0,0.0,0.0,0.0,0.0,0.0,0.0,0.0,0.0,0.0,0.0,0.0,0.0,0.0,0.0,0.0,0.0,0.0,0.0,0.0,0.0,0.0,0.0,0.0,0.0,0.0,0.0,0.0,0.0,0.0,0.0,0.0,0.0,0.0,0.0,0.0,0.0,0.0,0.0,0.0,0.0,0.0,0.0,0.0,0.0,0.0,0.0,0.0,0.0,0.0,0.0,0.0,0.0,0.0,0.0,0.0,0.0,0.0,0.0,0.0,0.0,0.0,0.0,0.0,0.0,0.0,0.0,0.0,0.0,0.0,0.0,0.0,0.0,0.0,0.0,0.0,0.0,0.0,-1.2507,-1.2031,-1.1464,-1.1091,0.0,0.0,0.0,-0.993,-0.9923,-1.0032,-1.0148,-1.0195,-1.0202,-1.0154,-1.0236,-1.026,-1.011,-1.0019,-0.9979,-0.9861,-0.9661,-0.9462,-0.9258,-0.9199,-0.9098,-0.9039,-0.8781,-0.8759,-0.8945,-0.8178,-0.7053,-0.5644,-0.3169,-0.2454,-0.2959,-0.0836,0.0,0.0,0.0,0.0,0.0,0.0,0.0,0.0,0.0,0.0,0.0,0.0,0.0,0.0,0.0,0.0,0.0,0.0,0.0,0.0,0.0,0.0,0.0,0.0,0.0,0.0,0.0,0.0,0.0,0.0,0.0,0.0,0.0,0.0,0.0,0.0,0.0,0.0,0.0,0.0,0.0,0.0,0.0,0.0,0.0,0.0,0.0,0.0,0.0,0.0,0.0,0.0,0.0,0.0,0.0,0.0,0.0,0.0,0.0,0.0,0.0,0.0,0.0,0.0,0.0,0.0,0.0,0.0,0.0,0.0,0.0,0.0,0.0,0.0,0.0,0.0,0.0,0.0,-1.4505,-1.3672,-1.2957,-1.2194,-1.1734,-1.1367,0.0,0.0,0.0,-1.0154,-1.0256,-1.0337,-1.0365,-1.0426,-1.0439,-1.0371,-1.0426,-1.0408,-1.0234,-1.0228,-1.0234,-1.012,-0.9994,-0.9827,-0.9561,-0.9432,-0.927,-0.9087,-0.8899,-0.8781,-0.8706,-0.8469,-0.7922,-0.696,-0.4588,-0.3546,-0.3119,-0.0903,0.0,0.0,0.0,0.0,0.0,0.0,0.0,0.0,0.0,0.0,0.0,0.0,0.0,0.0,0.0,0.0,0.0,0.0,0.0,0.0,0.0,0.0,0.0,0.0,0.0,0.0,0.0,0.0,0.0,0.0,0.0,0.0,0.0,0.0,0.0,0.0,0.0,0.0,0.0,0.0,0.0,0.0,0.0,0.0,0.0,0.0,0.0,0.0,0.0,0.0,0.0,0.0,0.0,0.0,0.0,0.0,0.0,0.0,0.0,0.0,0.0,0.0,0.0,0.0,0.0,0.0,0.0,0.0,0.0,0.0,0.0,0.0,0.0,0.0,0.0,0.0,0.0,-1.578,-1.4348,-1.4162,-1.3722,-1.2123,-1.1702,-1.1408,0.0,-1.0635,-1.0385,-1.0405,-1.0609,-1.0704,-1.0602,-1.067,-1.067,-1.0548,-1.0656,-1.0656,-1.0521,-1.0649,-1.0717,-1.0717,-1.0392,-1.0117,-0.9888,-0.957,-0.9243,-0.8976,-0.8976,-0.8793,-0.8584,-0.8462,-0.8358,-0.8118,-0.6412,-0.435,-0.2093,-0.0776,-0.0131,0.0,0.0,0.0,0.0,0.0,0.0,0.0,0.0,0.0,0.0,0.0,0.0,0.0,0.0,0.0,0.0,0.0,0.0,0.0,0.0,0.0,0.0,0.0233,0.0308,0.0383,0.0,0.0409,0.0329,0.05,0.0251,0.0084,0.0251,0.0084,0.0,0.0,0.0,0.0,0.0,0.0,0.0,0.0,0.0,0.0,0.0,0.0,0.0,0.0,0.0,0.0,0.0,0.0,0.0,0.0,0.0,0.0,0.0,0.0,0.0,0.0,0.0,0.0,0.0,0.0,0.0,0.0,0.0,0.0,0.0,0.0,0.0,0.0,0.0,0.0,0.0,0.0,-1.4196,-1.4493,-1.3509,-1.2837,-1.2499,-1.2601,-1.1993,-1.15,-1.1518,-1.126,-1.1036,-1.1158,-1.1016,-1.0989,-1.1199,-1.0914,-1.0758,-1.0786,-1.0772,-1.0704,-1.0677,-1.0704,-1.0717,-1.0717,-1.0651,-1.0444,-1.0213,-1.0149,-0.9933,-0.964,-0.9335,-0.9172,-0.913,-0.8744,-0.8479,-0.8195,-0.5613,0.0,-0.3426,-0.2154,0.0,0.0,0.0,0.0,0.0,0.0,0.0,0.0,0.0,0.0,0.0,0.0,0.0,0.0,0.0,0.0,0.0,0.0,0.0,0.0,0.0,0.0,0.0,0.195,0.2397,0.2884,0.0,0.2975,0.245,0.3477,0.1604,0.0403,0.1674,0.0822,0.0,0.0,0.0,0.0,0.0,0.0,0.0,0.0,0.0,0.0,0.0,0.0,0.0,0.0,0.0,0.0,0.0,0.0,0.0,0.0,0.0,0.0,0.0,0.0,0.0,0.0,0.0,0.0,0.0,0.0,0.0,0.0,0.0,0.0,0.0,0.0,0.0,0.0,0.0,0.0,0.0,-1.2832,-1.2824,-1.3013,-1.2598,-1.2361,-1.227,-1.2573,-1.2113,-1.1781,-1.186,-1.16,-1.1362,-1.1287,-1.1145,-1.109,-1.1165,-1.0894,-1.0751,-1.0826,-1.0765,-1.0717,-1.0717,-1.0717,-1.0717,-1.0717,-1.0717,-1.0609,-1.0385,-1.0317,-1.0161,-0.9869,-0.9673,-0.9379,-0.907,-0.8283,-0.7773,-0.7256,-0.5196,-0.3849,-0.3022,-0.1567,0.0,0.0,0.0,0.0127,0.0255,0.0255,0.0258,0.0261,0.0265,0.0134,0.0,0.0,0.0,0.0,0.0,0.0,0.0,0.0,0.0,0.0,0.0281,0.0,0.0,0.0,0.2982,0.3359,0.4601,0.4126,0.3671,0.4396,0.2607,0.1313,0.2097,0.0962,0.0,0.0,0.0,0.0,0.0,0.0,0.0,0.0,0.0,0.0,0.0,0.0,0.0,0.0,0.0,0.0,0.0,0.0,0.0,0.0,0.0,0.0,0.0,0.0,0.0,0.0,0.0,0.0,0.0,0.0,0.0,0.0,0.0,0.0,0.0,0.0,0.0,0.0,0.0,0.0,0.0,-1.2173,-1.1909,-1.177,-1.1933,-1.202,-1.2128,-1.2318,-1.2114,-1.1938,-1.1958,-1.1784,-1.1586,-1.1402,-1.1274,-1.1206,-1.1136,-1.088,-1.0591,-1.0437,-1.0339,-1.0141,-0.9877,-0.9902,-0.9902,-0.9877,-1.0167,-1.0096,-0.9663,-0.9819,-0.9677,-0.9187,-0.9075,-0.8786,-0.829,-0.739,-0.6695,-0.6138,-0.4756,-0.3492,-0.2254,0.0,-0.0063,0.0,0.0,0.0189,0.0382,0.0446,0.0515,0.0456,0.0526,0.0268,0.0,0.0,0.0,0.0,0.0,0.0,0.0,0.0,0.0,0.0,0.0,0.0,0.1477,0.0,0.0,0.0,0.4693,0.4435,0.0,0.0,0.0,0.0,0.0,0.0,0.0,0.0,0.0,0.0,0.0,0.0,0.0,0.0,0.0,0.0,0.0,0.0,0.0,0.0,0.0,0.0,0.0,0.0,0.0,0.0,0.0,0.0,0.0,0.0,0.0,0.0,0.0,0.0,0.0,0.0,0.0,0.0,0.0,0.0,0.0,0.0,0.0,0.0,0.0,0.0,0.0,-1.1776,-1.1512,-1.143,-1.1918,-1.1603,-1.1538,-1.2123,-1.1761,-1.1514,-1.1671,-1.1728,-1.1898,-1.2135,-1.1687,-1.1572,-1.2094,0.0,0.0,-0.9445,0.0,-0.816,-0.6915,-0.6859,-0.6863,-0.6915,-0.8188,-0.8136,-0.6699,-0.7906,-0.7791,-0.6342,-0.6329,-0.6315,-0.6224,-0.5949,-0.571,-0.5528,-0.401,-0.3017,0.0,-0.0994,-0.0248,0.0,0.0,0.0,0.0122,0.0365,0.0491,0.0438,0.0,0.0266,0.0,0.0,0.0,0.0071,0.0,0.0,0.0,0.0,0.0,0.0,0.0,0.0952,0.0,0.0,0.0,0.3543,0.4629,0.0,0.0,0.0,0.0,0.0,0.0,0.0,0.0,0.0,0.0,0.0,0.0,0.0,0.0,0.0,0.0,0.0,0.0,0.0,0.0,0.0,0.0,0.0,0.0,0.0,0.0,0.0,0.0,0.0,0.0,0.0,0.0,0.0,0.0,0.0,0.0,0.0,0.0,0.0,0.0,0.0,0.0,0.0,0.0,0.0,0.0,0.0,0.0,-1.1446,-1.1181,-1.1031,-1.1319,-1.1199,-1.1268,-1.1883,-1.206,-1.2094,-1.1904,-1.2074,-1.2271,-1.24,0.0,0.0,0.0,0.0,-1.0511,0.0,0.0,-0.7974,-0.6448,-0.6415,-0.6415,-0.6382,-0.7026,-0.6981,-0.6312,-0.6783,-0.6679,-0.6036,-0.5912,-0.5798,-0.5641,-0.4955,-0.453,-0.4234,-0.2843,-0.1948,0.0,0.0,0.0,0.0,-0.0306,-0.0304,-0.0724,-0.0487,-0.0491,-0.0496,0.0,0.0264,0.0,0.0,0.0,0.0,0.0,0.0,0.0,0.0,0.0,0.0,0.0,0.0,0.0,0.0,0.0,0.3345,0.0,0.0,0.0,0.0,0.0,0.0,0.0,0.1876,0.0,0.0,0.0,0.0,0.0,0.0,0.0,0.0,0.0,0.0,0.0,0.0,0.0,0.0,0.0,0.0,0.0,0.0,0.0,0.0,0.0,0.0,0.0,0.0,0.0,0.0,0.0,0.0,0.0,0.0,0.0,0.0,0.0,0.0,0.0,0.0,0.0,0.0,0.0,0.0,0.0,-1.1168,-1.0905,-1.0765,-1.0853,-1.088,-1.1069,-1.1687,-1.2176,-1.24,-1.2155,-1.2277,-1.244,-1.261,-1.2291,0.0,0.0,-1.1911,-1.0708,0.0,0.0,-0.7332,0.0,0.0,0.0,0.0,-0.5613,-0.5653,-0.5194,-0.5447,-0.5378,-0.4999,-0.4936,-0.4755,-0.4536,-0.3766,-0.325,-0.308,-0.2086,-0.1598,-0.159,-0.1369,-0.1935,-0.2723,-0.1536,-0.1395,-0.1857,-0.1702,-0.153,-0.123,-0.0316,-0.0263,0.0,-0.0134,0.0,0.0,0.0,0.0,0.0,0.0786,0.0,0.0,0.0,0.0,0.0,0.0,0.0,0.0,0.0,0.0,0.0,0.0,0.0,0.0,0.0,0.0,0.0781,0.0,0.0,0.0,0.0,0.0,0.0,0.0,0.0,0.0,0.0,0.0,0.0,0.0,0.0,0.0,0.0,0.0,0.0,0.0,0.0,0.0,0.0,0.0,0.0,0.0,0.0,0.0,0.0,0.0,0.0,0.0,0.0,0.0,0.0,0.0,0.0,0.0,0.0,0.0,0.0,-1.1186,-1.0914,-1.0765,-1.0853,-1.088,-1.1035,-1.1558,-1.1755,-1.1959,-1.2244,-1.2162,0.0,0.0,0.0,0.0,0.0,0.0,-1.0432,-0.7824,0.0,-0.5413,0.0,0.0,-0.2274,0.0,0.0,-0.3687,-0.2241,-0.3565,-0.3539,-0.2256,-0.2256,-0.219,-0.2187,-0.2093,-0.2096,-0.2119,-0.2,-0.255,-0.339,-0.3346,-0.3973,-0.4942,0.0,-0.3634,-0.3413,-0.3348,0.0,0.0,-0.1418,-0.171,0.0,0.0,0.0,0.0,0.0,0.0,0.0,0.0,0.0,0.0,0.072,0.0,0.0,0.0,0.0,0.007,0.0,0.0,0.0,0.0,0.0,0.0,0.0,0.0,0.0,0.0,0.0,0.0,0.0,0.0,0.0,0.0,0.0,0.0,0.0,0.0,0.0,0.0,0.0,0.0,0.0,0.0,0.0,0.0,0.0,0.0,0.0,0.0,0.0,0.0,0.0,0.0,0.0,0.0,0.0,0.0,0.0,0.0,0.0,0.0,0.0,0.0,0.0,0.0,0.0,-1.122,-1.1084,-1.1002,-1.0887,-1.0799,-1.0982,-1.1531,-1.1911,-1.2277,0.0,-1.2691,0.0,0.0,-1.3186,-1.301,0.0,0.0,-1.0944,-0.7546,-0.7178,0.0,0.0,0.0,-0.224,0.0,0.0,0.0,-0.2109,-0.2597,-0.2578,-0.2128,-0.2084,-0.2094,-0.2094,-0.2083,-0.2525,-0.3348,0.0,0.0,0.0,0.0,-0.6357,-0.6797,0.0,0.0,-0.554,-0.5375,-0.4998,0.0,-0.3632,-0.3439,-0.3274,-0.1832,-0.1727,-0.175,0.007,0.0635,0.0,0.0,0.0,0.0724,0.0287,0.0,0.0,0.0,0.0,0.0,0.0,0.0,0.0,0.0,0.0,0.0,0.0,0.0,0.0,0.0,0.0,0.0,0.0,0.0,0.0,0.0,0.0,0.0,0.0,0.0,0.0,0.0,0.0,0.0,0.0,0.0232,0.0381,0.0367,0.0367,0.0369,0.0372,0.0149,0.0,0.0,0.0,0.0,0.0,0.0,0.0,0.0,0.0,0.0,0.0,0.0,0.0,0.0,0.0,0.0,0.0,-1.1541,-1.1425,-1.1199,-1.105,-1.0989,-1.1124,-1.1619,-1.2074,0.0,0.0,-1.3051,0.0,-1.3715,0.0,-1.3363,0.0,-1.2983,-1.1262,-0.7612,-0.7828,0.0,-0.239,-0.2766,0.0,0.0,0.0,0.0,0.0,-0.2106,-0.2161,-0.2162,-0.2116,-0.2383,-0.2832,-0.2846,-0.3607,-0.4766,-0.4965,-0.5637,0.0,0.0,-0.8573,0.0,0.0,-0.7909,-0.7655,0.0,-0.6833,-0.6231,-0.5342,-0.5023,-0.4733,-0.2751,-0.2449,-0.248,-0.0273,0.0414,0.0421,0.0352,0.0354,0.0,0.0071,0.0,0.0,0.0,0.0,0.0,0.0,0.0,0.0,0.0,0.0,0.0,0.0,0.0,0.0,0.0,0.0,0.0,0.0,0.0,0.0,0.0,0.0,0.0,0.0,0.0,0.0,0.0,0.0,0.0,0.0,0.0228,0.0377,0.0365,0.0365,0.0366,0.0369,0.0148,0.0,0.0,0.0,0.0,0.0,0.0,0.0,0.0,0.0,0.0,0.0,0.0,0.0,0.0,0.0,0.0,0.0,-1.202,-1.1708,-1.1369,-1.1302,-1.1307,0.0,0.0,0.0,-1.261,0.0,-1.3234,-1.3478,-1.3641,-1.3519,-1.3417,-1.341,-1.3132,-1.1439,-0.7809,-0.8889,0.0,0.0,-0.3679,-0.3787,-0.2204,0.0,0.0,0.0,0.0,-0.2158,-0.2159,-0.2157,-0.2805,-0.4084,-0.4209,-0.5027,-0.631,-0.6471,-0.7238,-0.8573,-0.9929,-1.0514,-1.0541,-1.0274,-1.006,-0.9697,-0.9045,-0.805,-0.6901,-0.6545,-0.6509,-0.6,-0.3143,-0.3157,-0.3758,-0.0874,0.0,0.0,0.0,0.0,0.0,0.0,0.0,0.0,0.0,0.0,0.0,0.0,0.0,0.0,0.0,0.0,0.0,0.0,0.0,0.0,0.0,0.0,0.0,0.0,0.0,0.0,0.0,0.0,0.0,0.0,0.0,0.0,0.0,0.0,0.0,0.0,0.0,0.0,0.0,0.0,0.0,0.0,0.0,0.0,0.0,0.0,0.0,0.0,0.0,0.0,0.0,0.0,0.0,0.0,0.0,0.0,0.0,0.0,0.0,0.0084,-1.1904,-1.1796,-1.1742,0.0,-1.1586,-1.1531,0.0,0.0,0.0,0.0,-1.3451,-1.3715,-1.4089,-1.3892,-1.3688,-1.358,-1.32,0.0,0.0,0.0,0.0,-0.2566,-0.3827,-0.3935,-0.2339,-0.2281,0.0,-0.2256,0.0,-0.1855,-0.1804,-0.1496,-0.2081,-0.3477,-0.3756,-0.5248,-0.7447,-0.7883,-0.8844,-1.0143,-1.0511,-1.0792,0.0,0.0,-1.0652,-1.0668,-0.9788,-0.9228,-0.8964,-0.8861,-0.8673,-0.7872,-0.5021,-0.4225,-0.3758,-0.0874,0.0,0.0,0.0,0.0,0.0,0.0,0.0,0.0,0.0,0.0,0.0,0.0,0.0,0.0,0.0,0.0,0.0,0.0,0.0,0.0,0.0,0.0,0.0,0.0,0.0,0.0,0.0,0.0,0.0,0.0,0.0,0.0,0.0,0.0,0.0,0.0,0.0302,0.0455,0.0444,0.0448,0.0448,0.0444,0.0148,0.0,0.0,0.0,0.0,0.0,0.0,0.0,0.0,0.0,0.0,0.0,0.0,0.0248,0.0507,0.017,0.0,0.0,-1.2142,0.0,0.0,-1.2237,0.0,0.0,-1.2318,-1.2427,0.0,-1.3227,-1.3492,0.0,-1.3885,-1.3865,-1.3756,-1.3546,-1.3234,0.0,-0.9007,0.0,0.0,-0.4678,-0.5298,-0.502,-0.3361,-0.3237,0.0,-0.2058,0.0,-0.2552,-0.2362,-0.2108,-0.3149,-0.5255,-0.5591,-0.6982,-0.9079,-0.9479,-1.0076,-1.0745,-1.0744,0.0,0.0,-1.0785,-1.0826,-1.088,-1.0311,-1.006,-0.9927,-0.9728,-0.9123,-0.7979,-0.5563,-0.4225,-0.3157,-0.074,0.0,0.0,0.0,0.0,0.0,0.0,0.0,0.0,0.0,0.0,0.0,0.0,0.0,0.0,0.0,0.0,0.0,0.0,0.0,0.0,0.0,0.0,0.0,0.0,0.0,0.0,0.0,0.0,0.0,0.0,0.0,0.0,0.0,0.0,0.0,0.0,0.0229,0.0309,0.0375,0.0305,0.0305,0.03,0.0075,0.0,0.0,0.0,0.0,0.0,0.0,0.0,0.0,0.0,0.0,0.0,0.0,0.0166,0.034,0.0086,0.0172,0.0256,-1.2508,0.0,0.0,0.0,0.0,0.0,0.0,-1.2847,0.0,-1.3227,0.0,-1.3688,-1.3532,-1.3729,-1.3763,-1.3485,0.0,-1.2379,-1.0414,-1.1694,-1.0956,-0.7393,-0.7442,-0.6763,-0.4949,-0.4795,0.0,0.0,0.0,-0.3503,-0.3166,-0.3117,-0.4603,-0.744,-0.7968,-0.9153,0.0,-1.0793,-1.0853,-1.084,-1.0772,-1.0585,-1.0452,-1.0452,-1.0319,-1.0114,-1.0114,-1.0187,-1.0193,-0.9728,-0.8651,-0.7245,-0.5295,-0.3825,-0.242,-0.0606,-0.0067,-0.0067,0.0,0.0,0.0,0.0,0.0,0.0,0.0,0.0,-0.007,-0.0277,-0.0276,-0.0276,0.0,0.0,0.0,0.0,0.0,0.0,0.0,0.0,0.0,0.0,0.0,0.0,0.0,0.0,0.0,0.0,0.0,0.0,0.0,0.0,0.0,0.0,0.0,0.0,0.0,0.0,0.0,0.0,0.0,0.0,0.0,0.0,0.0,0.0079,0.0079,0.0159,0.016,0.0161,0.0161,0.0081,0.0082,0.0083,0.0085,0.0,0.0261,0.061,-1.2528,0.0,0.0,0.0,0.0,-1.3003,-1.3247,-1.3492,-1.3661,-1.3715,-1.4095,-1.4299,-1.4156,-1.4075,-1.396,-1.3777,-1.3519,0.0,0.0,0.0,0.0,-0.7752,-0.8822,-0.8675,-0.6771,-0.6624,-0.6221,0.0,0.0,-0.3241,-0.2857,-0.2449,-0.3352,-0.5408,-0.6978,-0.8795,-1.0724,-1.0751,0.0,-1.0758,-1.0731,-0.9981,-0.8972,-0.8972,-0.8235,-0.7169,-0.7169,-0.864,-1.0452,-0.9178,-0.8379,-0.7441,-0.483,-0.3562,-0.2758,-0.0942,-0.0404,-0.0337,-0.0067,0.0,0.0,0.0,0.0,0.0,0.0,0.0,-0.0356,-0.1632,-0.1829,-0.1745,-0.1883,0.0,0.0,0.0,0.0,0.0,0.0,0.0,0.0,0.0,0.0,0.0,0.0,0.0,0.0,0.0,0.0,0.0,0.0,0.0,0.0,0.0,0.0,0.0,0.0,0.0,0.0,0.0,0.0,0.0,0.0,0.0,0.0155,0.0471,0.0556,0.0802,0.1056,0.1148,0.0915,0.0592,0.0593,0.0602,0.0526,0.0176,0.0264,0.0616,-1.3085,0.0,0.0,0.0,0.0,0.0,0.0,-1.3946,0.0,-1.377,-1.3919,-1.4027,-1.396,-1.4021,-1.4007,-1.3858,-1.3641,-1.3085,-1.2037,-1.2634,-1.2099,-1.0247,-1.0164,0.0,-0.8445,-0.8183,-0.7382,-0.5904,0.0,0.0,-0.3596,-0.3523,-0.4492,-0.6297,-0.8302,-0.9856,0.0,0.0,0.0,-1.0772,-1.0021,-0.9236,-0.8507,-0.7769,-0.7031,-0.6431,-0.6431,-0.7303,-0.8374,-0.7702,-0.6836,-0.5837,-0.4297,-0.3159,-0.2153,-0.0875,-0.0471,-0.0404,-0.0068,0.0,0.0,0.0,0.0,0.0,0.0,0.0,-0.0429,-0.1999,-0.1626,-0.1047,-0.11,-0.0475,0.0,0.0,0.0,0.0,0.0,0.0,0.0,0.0,0.0,0.0,0.0,0.0,0.0,0.0,0.0,0.0,0.0,0.0,0.0,0.0,0.0,0.0,0.0,0.0,0.0,0.0,0.0,0.0,0.0,0.0,0.0234,0.0629,0.0636,0.0889,0.1316,0.1338,0.1276,0.1034,0.0772,0.0689,0.0609,0.0176,0.0176,0.0348,0.0,-1.3485,0.0,0.0,-1.3682,0.0,-1.3871,-1.4217,-1.4299,-1.3831,-1.3797,-1.3804,-1.3777,-1.398,-1.4061,-1.3905,-1.3756,-1.3559,-1.3288,-1.3241,-1.3037,-1.2617,-1.1445,-1.0546,-1.0042,-0.9854,-0.8765,0.0,0.0,0.0,0.0,-0.4784,-0.6019,-0.8138,0.0,0.0,0.0,0.0,-1.0399,-1.0331,-0.8894,-0.8075,-0.7574,-0.6388,-0.5781,-0.5499,-0.5517,-0.5513,-0.5499,-0.5499,-0.4967,-0.4233,-0.3629,-0.269,-0.1616,-0.0943,-0.0944,-0.1016,-0.0685,-0.0828,-0.0903,-0.0562,-0.0494,-0.0424,-0.0071,0.0,-0.0431,-0.2008,-0.1345,-0.0487,-0.0477,-0.0203,0.0,0.0,0.0,0.0,0.0,0.0,0.0,0.0,0.0,0.0,0.0,0.0,0.0,0.0,0.0,0.0,0.0,0.0,0.0,0.0,0.0,0.0,0.0,0.0,0.0,0.0,0.0,0.0,0.0,0.0,0.0236,0.0789,0.0796,0.1138,0.1587,0.1703,0.1642,0.1483,0.1126,0.095,0.0777,0.0439,0.0262,0.0344,0.0,0.0,0.0,0.0,0.0,0.0,-1.4048,-1.4204,-1.4299,-1.4245,-1.4346,-1.438,-1.4251,-1.4258,-1.4217,-1.4061,-1.3912,-1.3756,-1.3593,-1.3458,-1.3241,-1.2929,-1.2849,-1.2422,-1.1904,-1.1803,-1.1233,0.0,0.0,0.0,0.0,0.0,0.0,0.0,0.0,0.0,0.0,-0.939,-0.8894,-0.8894,-0.7319,-0.5908,-0.4708,-0.4564,-0.367,-0.2561,-0.2595,-0.2585,-0.2625,-0.2625,-0.3362,-0.4099,-0.2759,-0.2221,-0.2087,-0.1616,-0.224,-0.308,-0.2742,-0.342,-0.3911,-0.2422,-0.2086,-0.1741,-0.0291,0.0,-0.0437,-0.1962,-0.2208,-0.2029,-0.1955,-0.0829,0.0,0.0,0.0,0.0,0.0,0.0,0.0,0.0,0.0,0.0,0.0,0.0,0.0,0.0,0.0,0.0,0.0,0.0,0.0,0.0,0.0,0.0,0.0,0.0,0.0,0.0,0.0,0.0,0.0,0.0,0.0479,0.1198,0.1279,0.1721,0.2561,0.2678,0.2447,0.2031,0.2049,0.1778,0.1322,0.1324,0.1228,0.1301,0.0,0.0,0.0,0.0,0.0,0.0,0.0,-1.4265,-1.4299,-1.4299,-1.4346,-1.4367,-1.4306,-1.4299,-1.4204,-1.3953,-1.3878,-1.3743,-1.3505,-1.3349,-1.3214,-1.3091,-1.2915,-1.2664,-1.2332,-1.206,-1.1576,0.0,0.0,0.0,0.0,0.0,0.0,0.0,0.0,-0.8117,-0.8176,-0.7598,-0.7341,-0.7277,-0.5942,-0.4945,-0.4271,-0.3398,-0.2705,-0.2208,-0.2202,-0.2192,-0.2178,-0.2228,-0.2558,-0.2961,-0.2356,-0.2759,-0.3434,-0.3121,-0.382,-0.4607,-0.4332,-0.4458,-0.4575,-0.3891,-0.3769,-0.3567,-0.2985,-0.2841,-0.2985,-0.3639,-0.3729,-0.3742,-0.3643,-0.3205,-0.2789,0.0,0.0,0.0,0.0,0.0,0.0,0.0,0.0,0.0,0.0,0.0,0.0,0.0,0.0,0.0,0.0,0.0,0.0,0.0,0.0,0.0,0.0,0.0,0.0,0.0,0.0,0.0,0.0,0.0,0.0485,0.1294,0.1872,0.2152,0.2289,0.2572,0.2513,0.2103,0.2126,0.2032,0.1753,0.151,0.1406,0.1464,-1.4489,0.0,-1.4272,0.0,-1.4346,-1.4001,-1.3674,-1.3547,-1.3224,-1.2692,-1.2603,-1.3046,-1.421,-1.3761,-1.3588,-1.3907,-1.3892,-1.3749,-1.3546,-1.3349,-1.322,-1.3173,-1.2935,0.0,-1.2569,-1.2257,-1.1757,-1.1168,-0.7831,0.0,0.0,0.0,0.0,0.0,-0.6081,-0.613,-0.6287,-0.589,-0.5831,-0.5838,-0.448,-0.3827,-0.3641,-0.2605,-0.2183,-0.2034,-0.2021,-0.1943,-0.1865,-0.1846,-0.1909,-0.1907,-0.2103,-0.291,-0.3663,-0.3506,-0.4494,-0.5566,-0.5389,-0.572,-0.5972,-0.5541,-0.5414,-0.5348,-0.4853,-0.4782,-0.4776,-0.476,-0.4693,-0.4701,-0.4676,-0.4741,-0.4755,-0.4729,0.0,0.0,0.0,0.0,0.0,0.0,0.0,-0.1601,-0.2491,0.0,0.0,0.0,0.0,0.0,0.0,0.0,0.0,0.0,0.0,0.0,0.0,0.0,0.0,0.0,0.0,0.0082,0.0247,0.0328,0.0735,0.1303,0.1969,0.2075,0.1852,0.2121,0.2142,0.1906,0.1927,0.2014,0.2091,0.1769,0.1669,0.1815,-1.4509,-1.4753,-1.4957,-1.4964,-1.4835,-1.4088,-1.2249,-1.168,-1.0728,-0.8943,-0.8676,-1.01,-1.385,-1.2603,-1.2243,-1.4115,-1.4014,-1.3838,-1.3838,-1.3559,-1.3329,0.0,0.0,-1.2888,-1.2732,-1.2718,-1.2427,-1.1823,0.0,0.0,-0.602,0.0,-0.3887,-0.5139,-0.5344,-0.5581,-0.5799,-0.4393,-0.4137,-0.4496,-0.2932,-0.2273,-0.2248,-0.2279,-0.2058,-0.1686,-0.1709,-0.1419,-0.1122,-0.1122,-0.1122,-0.1259,-0.2002,-0.2199,-0.2206,-0.2236,-0.3886,-0.5774,-0.5774,-0.7482,-0.8894,-0.7534,-0.7191,-0.6767,-0.5343,-0.4982,-0.4965,-0.4826,-0.4721,-0.4729,-0.4716,-0.4724,-0.4796,-0.4727,0.0,0.0,0.0,0.0,0.0,0.0,-0.4241,-0.4174,-0.3883,0.0,0.0,0.0,0.0,0.0,0.0,0.0,0.0,0.0,0.0,0.0,0.0,0.0,0.0,0.0,0.0,0.0253,0.0673,0.1082,0.1316,0.1302,0.1302,0.1319,0.1346,0.1346,0.1355,0.137,0.1385,0.1652,0.2087,0.2088,0.2365,0.2731,-1.4645,-1.4746,-1.4848,-1.495,-1.476,-1.3945,-1.2034,-1.1536,-1.0728,-0.8854,-0.7427,-0.7606,-1.0105,-0.9833,-0.9689,0.0,-1.0081,-0.9978,0.0,-0.9687,-0.9458,-0.9243,-0.8996,-0.8756,-0.8468,-0.826,-0.802,-0.7676,0.0,0.0,0.0,-0.19,-0.1964,-0.239,-0.241,-0.2572,-0.2656,-0.2205,-0.2126,-0.2273,-0.1746,-0.1519,-0.1515,-0.1521,-0.1447,-0.1369,-0.1291,-0.1213,-0.1278,-0.2318,-0.2661,-0.2733,-0.2959,-0.2945,-0.293,-0.2968,-0.4053,-0.5499,-0.6697,-0.7391,-0.7874,-0.8568,-0.8745,-0.8701,-0.8281,-0.7323,-0.686,-0.7888,-0.7232,-0.6829,-0.7905,-0.8132,-0.8132,-0.8137,-0.7236,0.0,0.0,0.0,0.0,0.0,-0.4832,-0.4561,0.0,-0.4236,0.0,0.0,0.0,0.0,0.0,0.0,0.0,0.0,0.0,0.0,0.0,0.0,0.0,0.0,0.0339,0.0681,0.1191,0.1262,0.1331,0.1318,0.1318,0.1157,0.0832,0.1165,0.1173,0.0932,0.1285,0.1462,0.1637,0.1661,0.1754,0.1923,-1.359,-1.3795,-1.3877,-1.3914,-1.377,-1.2718,-1.0013,-0.9437,-0.8636,-0.6752,-0.5388,-0.5109,-0.6359,-0.6448,0.0,-0.8292,-0.8334,-0.8252,-0.8109,-0.7845,-0.7572,-0.7376,-0.6995,-0.6717,-0.6546,0.0,0.0,-0.5981,-0.3947,-0.2077,-0.0541,-0.0605,-0.0675,-0.0678,-0.0678,-0.0831,-0.0984,-0.0976,-0.1047,-0.1196,-0.1181,-0.1175,-0.1175,-0.117,-0.1098,-0.0954,-0.0942,-0.1157,-0.1665,-0.2642,-0.341,-0.3769,-0.3156,-0.2932,-0.2845,-0.2654,-0.3379,-0.461,-0.6272,-0.6857,-0.7456,-0.9191,-0.9584,-0.9601,-0.9764,-0.9,-0.8507,-0.9505,-0.8935,-0.853,-0.9516,-0.9704,-0.972,-0.9677,-0.8361,-0.7425,-0.7741,0.0,0.0,0.0,0.0,0.0,0.0,-0.4945,0.0,0.0,0.0,0.0,0.0,0.0,0.0,0.0,0.0,0.0,0.0,0.0,0.0,0.0,0.0509,0.085,0.1105,0.1102,0.1094,0.1083,0.0921,0.0669,0.0417,0.0667,0.0669,0.0506,0.0763,0.094,0.1121,0.1136,0.1406,0.1761,-1.1671,-1.1967,-1.2085,0.0,-1.1946,0.0,-0.6571,-0.5897,-0.5094,-0.3188,-0.2891,-0.2874,-0.2874,-0.2874,-0.4287,-0.7757,0.0,0.0,0.0,-0.734,-0.7048,-0.6958,-0.6387,-0.6133,-0.6199,-0.6136,-0.596,-0.5835,-0.3744,-0.1991,-0.0561,-0.0155,0.0,0.0,0.0,-0.023,-0.0531,-0.0531,-0.0758,-0.1136,-0.1122,-0.1115,-0.1113,-0.1101,-0.0883,-0.0593,-0.0586,-0.1322,-0.2293,-0.2414,-0.3498,-0.4444,-0.2919,-0.2408,-0.2116,-0.1314,-0.1895,-0.3066,-0.4728,-0.5876,-0.7125,-0.9142,-0.9688,-0.9753,-0.997,-0.9932,-0.9851,-0.9851,-0.9688,-0.9618,-0.9693,-0.9552,-0.9508,-0.9709,-0.8389,-0.777,-0.8923,0.0,0.0,0.0,0.0,0.0,0.0,-0.4951,-0.3643,0.0,0.0,0.0,0.0,0.0,0.0,0.0,0.0,0.0,0.0,0.0,0.0,0.0084,0.0505,0.0759,0.076,0.0681,0.0681,0.0675,0.0171,0.0,0.0,0.0,0.0,0.0,0.0,0.0256,0.0695,0.0696,0.1322,0.206,0.0,0.0,-0.9905,-0.9883,-0.9723,-0.882,-0.6374,-0.5897,-0.5094,-0.3188,-0.2891,-0.2874,-0.2874,-0.2874,-0.3219,-0.4065,-0.414,-0.4086,-0.4056,-0.3564,-0.3137,-0.2774,-0.2348,-0.1929,-0.1597,-0.1593,-0.1503,-0.1496,-0.0978,-0.0487,-0.0164,-0.0081,0.0,0.0,0.0,-0.0079,-0.0156,-0.0154,-0.023,-0.0307,-0.0303,-0.03,-0.0297,-0.0297,-0.0221,-0.0147,-0.0146,-0.1095,-0.2488,-0.3755,-0.4425,-0.4654,-0.4327,-0.3295,-0.2017,-0.066,-0.0511,-0.1024,-0.2588,-0.3181,-0.4161,-0.7173,-0.888,-0.9954,-1.0008,-0.9998,-0.9976,-0.9976,-0.8944,-0.8384,-0.9706,-0.7855,-0.6933,-0.9552,-0.7368,-0.6304,-0.893,-0.6827,0.0,0.0,-0.5945,-0.5068,-0.4467,-0.4333,-0.3634,0.0,0.0,0.0,0.0,0.0,0.0,0.0,0.0,0.0,0.0,0.0,0.0169,0.0511,0.0676,0.085,0.1208,0.0858,0.0683,0.0682,0.0171,0.0,0.0,0.0,0.0,0.0,0.0,0.0086,0.0172,0.0525,0.0883,0.1154,-0.8,-0.7701,-0.7837,-0.7707,-0.7697,-0.7018,-0.5011,-0.4549,-0.4125,-0.312,-0.29,-0.2874,-0.2874,-0.2874,-0.2861,-0.2831,-0.2829,-0.2801,-0.2739,-0.2147,-0.1633,-0.1367,-0.0683,-0.0256,0.0,0.0,0.0,0.0,0.0,0.0,0.0,0.0,0.0,0.0,0.0,0.0,0.0,0.0,0.0,0.0,0.0,0.0,0.0,0.0,0.0,0.0,0.0,-0.0968,-0.2466,-0.3364,-0.4111,-0.4563,-0.3844,-0.3023,-0.1961,-0.0447,0.0,-0.0372,-0.1957,-0.2331,-0.2932,-0.5511,-0.6933,-0.7736,-0.7736,-0.7686,-0.7715,-0.7715,-0.6997,-0.6601,-0.7556,-0.6204,-0.5631,-0.7451,-0.5492,-0.4522,-0.6869,-0.5029,0.0,-0.5208,-0.4739,-0.401,-0.314,-0.3227,-0.2681,-0.1202,-0.1138,0.0,-0.0074,0.0,0.0,0.0,0.0,0.0,0.0,0.0,0.0169,0.0342,0.034,0.0514,0.0782,0.0521,0.0346,0.0345,0.0087,0.0,0.0,0.0,0.0,0.0,0.0,0.0,0.0086,0.0527,0.0798,0.1158,-0.5887,-0.5557,-0.5668,-0.5527,-0.5655,-0.519,-0.3335,-0.2998,-0.296,-0.2956,-0.2908,-0.2874,-0.2874,-0.2874,-0.2863,-0.2838,-0.2836,-0.2821,-0.2785,-0.1916,-0.1393,-0.1391,-0.0522,0.0,0.0,0.0,0.0,0.0,0.0,0.0,0.0,0.0,0.0,0.0,0.0,0.0,0.0,0.0,0.0,0.0,0.0,0.0,0.0,0.0,0.0,0.0,0.0,-0.0991,-0.2302,-0.2357,-0.3258,-0.4091,-0.2734,-0.2129,-0.1673,-0.0381,0.0,-0.0306,-0.1769,-0.2223,-0.2675,-0.409,-0.4719,-0.5037,-0.5037,-0.4992,-0.5026,-0.5026,-0.4783,-0.4702,-0.4945,-0.4614,-0.442,-0.4886,-0.3379,-0.2758,-0.4469,0.0,-0.2325,-0.3799,-0.3787,-0.3192,-0.1908,-0.1762,-0.1318,-0.0073,0.0,0.0,0.0,0.0,0.0,0.0,0.0,0.0,0.0,0.0,0.0,0.0,0.0,0.0,0.0,0.0,0.0,0.0,0.0,0.0,0.0,0.0,0.0,0.0,0.0,0.0,0.0087,0.0528,0.0979,0.1436,-0.3041,-0.2577,-0.296,-0.286,-0.3246,-0.3429,-0.3113,-0.2984,-0.2953,-0.2927,-0.2894,-0.2874,-0.2874,-0.2874,-0.2872,-0.2867,-0.2867,-0.2844,-0.2787,-0.193,-0.1404,-0.1391,-0.0522,0.0,0.0,0.0,0.0,0.0,0.0,0.0,0.0,0.0,0.0,0.0,0.0,0.0,0.0,0.0,0.0,0.0,0.0,0.0,0.0,0.0,0.0,0.0,0.0,-0.0985,-0.2353,-0.2451,-0.2535,-0.2616,-0.2487,-0.1482,-0.0312,-0.0078,0.0,-0.0079,-0.031,-0.1406,-0.2533,-0.2775,-0.3923,-0.5013,-0.5013,-0.5021,-0.5026,-0.5026,-0.3892,-0.3327,-0.4702,-0.2657,-0.1679,-0.4536,-0.2379,-0.1413,-0.4275,0.0,-0.087,-0.2243,-0.1418,-0.061,-0.0382,-0.0306,-0.023,0.0,0.0,0.0,0.0,0.0,0.0,0.0,0.0,0.0,0.0,0.0,0.0,0.0,0.0,0.0,0.0,0.0,0.0,0.0,0.0,0.0,0.0,0.0,0.0,0.0,0.0,0.0,0.0087,0.0528,0.0979,0.1436,-0.2364,-0.1703,-0.1983,-0.216,-0.2439,-0.2717,-0.2984,-0.2957,-0.2932,-0.2917,-0.2891,-0.2874,-0.2874,-0.2874,-0.2784,-0.2515,-0.2515,-0.2415,-0.2036,-0.16,-0.1423,-0.1416,-0.0531,0.0,0.0,0.0,0.0,0.0,0.0,0.0,0.0,0.0,0.0,0.0,0.0,0.0,0.0,0.0,0.0,0.0,0.0,0.0,0.0,0.0,0.0,0.0,0.0,-0.0464,-0.1081,-0.1165,-0.109,-0.1091,-0.1096,-0.0628,0.0,0.0,0.0,0.0,0.0,-0.056,-0.1129,-0.1129,-0.1707,-0.2295,-0.2295,-0.2306,-0.232,-0.2335,-0.1671,-0.142,-0.2171,-0.1076,-0.0491,-0.2019,-0.1008,0.0,0.0,-0.0886,-0.022,-0.0892,-0.0382,0.0,0.0,0.0,0.0,0.0,0.0,0.0,0.0,0.0,0.0,0.0,0.0,0.0,0.0,0.0,0.0,0.0,0.0,0.0,0.0,0.0,0.0,0.0,0.0,0.0177,0.0351,0.0088,0.0174,0.0343,0.0087,0.0,0.0087,0.0528,0.0979,0.1436,-0.1882,-0.1221,-0.1405,-0.1854,-0.2036,-0.2311,-0.2584,-0.2748,-0.2822,-0.2543,-0.2617,-0.2694,-0.2604,-0.2515,-0.2425,-0.2066,-0.1976,-0.1795,-0.1436,-0.1257,-0.1257,-0.1257,-0.0449,0.0,0.0,0.0,0.0,0.0,0.0,0.0,0.0,0.0,0.0,0.0,0.0,0.0,0.0,0.0,0.0,0.0,0.0,0.0,0.0,0.0,0.0,0.0,0.0,0.0,0.0,0.0,0.0,0.0,0.0,0.0,0.0,0.0,0.0,0.0,0.0,0.0,0.0,0.0,0.0,0.0,0.0,0.0,0.0,0.0,0.0,0.0,0.0,0.0,0.0,0.0,0.0,0.0,0.0,0.0,0.0,0.0,0.0,0.0,0.0,0.0,0.0,0.0,0.0,0.0,0.0,0.0,0.0,0.0,0.0,0.0,0.0,0.0,0.0,0.0,0.0,0.0,0.0,0.0,0.0,0.0,0.0,0.0179,0.0532,0.0177,0.0175,0.0517,0.0174,0.0,0.0,0.044,0.0801,0.1257,-0.0659,-0.047,-0.0844,-0.0928,-0.1666,-0.2029,-0.1646,-0.2371,-0.2543,-0.162,-0.1976,-0.2066,-0.1526,-0.1526,-0.1526,-0.1436,-0.1436,-0.1436,-0.1436,-0.0988,-0.0718,-0.0718,-0.0269,0.0,0.0,0.0,0.0,0.0,0.0,0.0,0.0,0.0,0.0,0.0,0.0,0.0,0.0,0.0,0.0,0.0,0.0,0.0,0.0,0.0,0.0,0.0,0.0,0.0,0.0,0.0,0.0,0.0,0.0,0.0,0.0,0.0,0.0,0.0,0.0,0.0,0.0,0.0,0.0,0.0,0.0,0.0,0.0,0.0,0.0,0.0,0.0,0.0,0.0,0.0,0.0,0.0,0.0,0.0,0.0,0.0,0.0,0.0,0.0,0.0,0.0,0.0,0.0,0.0,0.0,0.0,0.0,0.0,0.0,0.0,0.0,0.0,0.0,0.0,0.0,0.0,0.0,0.0,0.0,0.0,0.0,0.0,0.009,0.0,0.0,0.0088,0.0,0.0,0.0,0.0,0.0356,0.0718,-0.0467,-0.0186,-0.0371,-0.0729,-0.0999,-0.127,-0.1446,-0.1715,-0.1803,-0.1437,-0.1616,-0.1616,-0.1436,-0.1436,-0.1257,-0.0988,-0.0988,-0.0808,-0.0539,-0.0359,-0.0269,-0.0269,-0.009,0.0,0.0,0.0,0.0,0.0,0.0,0.0,0.0,0.0,0.0,0.0,0.0,0.0,0.0,0.0,0.0,0.0,0.0,0.0,0.0,0.0,0.0,0.0,0.0,0.0,0.0,0.0,0.0,0.0,0.0,0.0,0.0,0.0,0.0,0.0,0.0,0.0,0.0,0.0,0.0,0.0,0.0,0.0,0.0,0.0,0.0,0.0,0.0,0.0,0.0,0.0,0.0,0.1813,0.1832,0.2798,0.3504,0.3422,0.339,0.2913,0.182,0.167,0.1176,0.0084,0.0,0.0,0.0,0.0,0.0,0.0,0.0,0.0,0.0,0.0,0.0,0.0,0.0,0.0,0.0,0.0,0.0,0.0,0.0,0.018,0.0449,0.009,0.0178,0.0442,0.0088,0.0,0.0,0.0,0.0445,0.1077,-0.028,0.0,-0.0092,-0.0453,-0.063,-0.0718,-0.0898,-0.1167,-0.1257,-0.0988,-0.1077,-0.1167,-0.0988,-0.0988,-0.0808,-0.0539,-0.0449,-0.0359,0.0,0.0,0.0,0.0,0.0,0.0,0.0,0.0,0.0,0.0,0.0,0.0,0.0,0.0,0.0,0.0,0.0,0.0,0.0,0.0,0.0,0.0,0.0,0.0,0.0,0.0,0.0,0.0,0.0,0.0,0.0,0.0,0.0,0.0,0.0,0.0,0.0,0.0,0.0,0.0,0.0,0.0,0.0,0.0,0.0,0.0,0.0,0.0,0.0,0.0,0.0,0.0,0.0,0.0,0.0,0.0,0.1628,0.2879,0.2914,0.4487,0.57,0.5613,0.5569,0.4813,0.2925,0.2868,0.2121,0.0169,0.0169,0.017,0.0,0.0,0.0,0.0,0.0,0.0,0.0,0.0,0.0,0.0,0.0,0.0,0.0,0.0,0.0,0.0,0.0,0.018,0.0449,0.009,0.0179,0.0444,0.0089,0.0,0.0,0.0,0.0446,0.0898,0.0,0.0,0.0,0.0,-0.0362,-0.0539,-0.009,-0.0808,-0.1077,-0.009,-0.0449,-0.0539,-0.009,0.0,0.0,0.0,0.0,0.0,0.0,0.0,0.0,0.0,0.0,0.0,0.0,0.0,0.0,0.0,0.0,0.0,0.0,0.0,0.0,0.0,0.0,0.0,0.0,0.0,0.0,0.0,0.0,0.0,0.0,0.0,0.0,0.0,0.0,0.0,0.0,0.0,0.0,0.0,0.0,0.0,0.0,0.0,0.0,0.0,0.0,0.0,0.0,0.0,0.0,0.0,0.0,0.0,0.0,0.0,0.0,0.0,0.0,0.0,0.0,0.0,0.1588,0.2899,0.2868,0.4509,0.5721,0.5721,0.5721,0.4922,0.3079,0.3364,0.2593,0.0171,0.0428,0.0516,0.0,0.0,0.0,0.0,0.0,0.0,0.0,0.0,0.0,0.0,0.0,0.0,0.0,0.0,0.0,0.0,0.0,0.0,0.0,0.0,0.0,0.0,0.0,0.0,0.0,0.0,0.0,0.009,0.0,0.0,0.0,0.0,-0.0091,-0.0181,0.0,-0.0269,-0.0359,0.0,-0.009,-0.018,0.0,0.0,0.0,0.0,0.0,0.0,0.0,-0.1256,-0.1435,-0.009,0.0,0.0,0.0,0.0,0.0,0.0,0.0,0.0,0.0,0.0,0.0,0.0,0.0,0.0,0.0,0.0,0.0,0.0,0.0,0.0,0.0,0.0,0.0,0.0,0.0,0.0,0.0,0.0,0.0,0.0,0.0,0.0,0.0,0.0,0.0,0.0,0.0,0.0,0.0,0.0,0.0,0.0,0.0,0.0,0.0,0.0,0.0,0.0,0.0,0.0,0.0,0.0,0.1606,0.294,0.293,0.4522,0.5657,0.5613,0.552,0.4976,0.3372,0.3377,0.2601,0.0606,0.0349,0.0175,0.0,0.0,0.0,0.0,0.0,0.0,0.0,0.0,0.0,0.0,0.0,0.0,0.0,0.0,0.0,0.0,0.0,0.0,0.0,0.0,0.0,0.0,0.0,0.018,0.0449,0.0449,0.0898,0.1526,0.0,0.0,0.0,0.0,0.0,0.0,0.0,0.0,0.0,0.0,0.0,0.0,0.0,0.0,0.0,0.0,-0.0718,-0.0807,-0.009,-0.1793,-0.2062,-0.009,0.0,0.0,0.0,0.0,0.0,0.0,0.0,0.0,0.0,0.0,0.0,0.0,0.0,0.0,0.0,0.0,0.0,0.0,0.0,0.0,0.0,0.0,0.0,0.0,0.0,0.0,0.0,0.0,0.0,0.0,0.0,0.0,0.0,0.0,0.0,0.0,0.0,0.0,0.0,0.0,0.0,0.0,0.0,0.0,0.0,0.0,0.0,0.0,0.0,0.0,0.0,0.0,0.1614,0.2867,0.2867,0.4476,0.5714,0.5587,0.5582,0.4943,0.3322,0.3331,0.2721,0.0875,0.0265,0.0,0.0,0.0,0.0,0.0,0.0,0.0,0.0,0.0,0.0,0.0,0.0,0.0,0.0,0.0,0.0,0.0,0.018,0.018,0.0,0.018,0.0269,0.0269,0.0269,0.0539,0.0988,0.0988,0.1347,0.1885,0.0,0.0,0.0,0.0,0.0,0.0,0.0,0.0,0.0,0.0,0.0,0.0,0.0,0.0,0.0,0.0,-0.1793,-0.2062,-0.009,-0.1793,-0.2062,-0.009,0.0,0.0,0.0,0.0,0.0,0.0,0.0,0.0,0.0,0.0,0.0,0.0,0.0,0.0,0.0,0.0,0.0,0.0,0.0,0.0,0.0,0.0,0.0,0.0,0.0,0.0,0.0,0.0,0.0,0.0,0.0,0.0,0.0,0.0,0.0,0.0,0.0,0.0,0.0,0.0,0.0,0.0,0.0,0.0,0.0,0.0,0.0,0.0,0.0,0.0,0.0,0.0,0.1525,0.2598,0.2598,0.4118,0.5191,0.5191,0.5191,0.4548,0.2829,0.3119,0.259,0.0797,0.0268,0.0,0.0,0.0,0.0,0.0,0.0,0.0,0.0,0.0,0.0,0.0,0.0,0.0,0.0,0.0,0.0,0.0,0.0539,0.0449,0.009,0.0539,0.0718,0.0718,0.0718,0.0988,0.1347,0.1347,0.1436,0.1526,0.0,0.0,0.0,0.0,0.0,0.0,0.0,0.0,0.0,0.0,0.0,0.0,0.0,0.0,0.0,0.0,-0.1793,-0.2062,-0.009,-0.1793,-0.2062,-0.009,0.0,0.0,0.0,0.0,0.0,0.0,0.0,0.0,0.0,0.0,0.0,0.0,0.0,0.0,0.0,0.0,0.0,0.0,0.0,0.0,0.0,0.0,0.0,0.0,0.0,0.0,0.0,0.0,0.0,0.0,0.0,0.0,0.0,0.0,0.0,0.0,0.0,0.0,0.0,0.0,0.0,0.0,0.0,0.0,0.0,0.0,0.0,0.0,0.0,0.0,0.0,0.0,0.0359,0.0628,0.0628,0.0987,0.1256,0.1256,0.1256,0.1254,0.1163,0.1254,0.1165,0.0716,0.0269,0.0,0.0,0.0,0.0,0.0,0.0,0.0,0.0,0.0,0.0,0.0,0.0,0.0,0.0,0.0,0.0,0.0,0.0539,0.0628,0.0628,0.1077,0.0988,0.0718,0.0718,0.0718,0.0898,0.1257,0.1706,0.2066,0.0,0.0,0.0,0.0,0.0,0.0,0.0,0.0,0.0,0.0,0.0,0.0,0.0,0.0,0.0,0.0,-0.1793,-0.2062,-0.009,-0.1793,-0.2062,-0.009,0.0,0.0,0.0,0.0,0.0,0.0,0.0,0.0,0.0,0.0,0.0,0.0,0.0,0.0,0.0,0.0,0.0,0.0,0.0,0.0,0.0,0.0,0.0,0.0,0.0,0.0,0.0,0.0,0.0,0.0,0.0,0.0,0.0,0.0,0.0,0.0,0.0,0.0,0.0,0.0,0.0,0.0,0.0,0.0,0.0,0.0,0.0,0.0,0.0,0.0,0.0,0.0,0.0,0.0,0.0,0.0,0.0,0.0,0.0,0.009,0.0359,0.0359,0.0359,0.0359,0.018,0.0,0.0,0.0,0.0,0.0,0.0,0.0,0.0,0.0,0.0,0.0,0.0,0.0,0.0,0.0,0.0,0.0,0.0539,0.0539,0.0449,0.1077,0.1167,0.0718,0.0988,0.1077,0.1077,0.1347,0.1706,0.2245,0.0,0.0,0.0,0.0,0.0,0.0,0.0,0.0,0.0,0.0,0.0,0.0,0.0,0.0,0.0,0.0,-0.1435,-0.1703,-0.009,-0.1525,-0.1703,-0.009,0.0,0.0,0.0,0.0,0.0,0.0,0.0,0.0,0.0,0.0,0.0,0.0,0.0,0.0,0.0,0.0,0.0,0.0,0.0,0.0,0.0,0.0,0.0,0.0,0.0,0.0,0.0,0.0,0.0,0.0,0.0,0.0,0.0,0.0,0.0,0.0,0.0,0.0,0.0,0.0,0.0,0.0,0.0,0.0,0.0,0.0,0.0,0.0,0.0,0.0,0.0,0.0,0.0,0.0,0.0,0.0,0.0,0.0,0.0,0.0,0.0,0.0,0.0,0.0,0.0,0.0,0.0,0.0,0.0,0.0,0.0,0.0,0.0,0.0,0.0,0.0,0.0,0.0,0.0,0.0,0.0,0.0,0.0539,0.0449,0.018,0.1077,0.1167,0.0718,0.1167,0.1257,0.1167,0.1257,0.1706,0.2156,0.0,0.0,0.0,0.0,0.0,0.0,0.0,0.0,0.0,0.0,0.0,0.0,0.0,0.0,0.0,0.0,-0.0269,-0.0269,0.0,-0.0269,-0.0269,0.0,0.0,0.0,0.0,0.0,0.0,0.0,0.0,0.0,0.0,0.0,0.0,0.0,0.0,0.0,0.0,0.0,0.0,0.0,0.0,0.0,0.0,0.0,0.0,0.0,0.0,0.0,0.0,0.0,0.0,0.0,0.0,0.0,0.0,0.0,0.0,0.0,0.0,0.0,0.0,0.0,0.0,0.0,0.0,0.0,0.0,0.0,0.0,0.0,0.0,0.0,0.0,0.0,0.0,0.0,0.0,0.0,0.0,0.0,0.0,0.0,0.0,0.0,0.0,0.0,0.0,0.0,0.0,0.0,0.0,0.0,0.0,0.0,0.0,0.0,0.0,0.0,0.0,0.0,0.0,0.0,0.0,0.0,0.0539,0.0628,0.0628,0.1167,0.1167,0.0718,0.0808,0.0539,0.0269,0.0628,0.1347,0.2156,-0.169,-0.0747,0.0,0.0,0.0,0.0,0.0,0.0,0.0,0.0,0.0,0.0,0.0,0.0,0.0,0.0,0.0,0.0,0.0,0.0,0.0,0.0,0.0,0.0,0.0,0.0,0.0,0.0,0.0,0.0,0.0,0.0,0.0,0.0,0.0,0.0,0.0,0.0,0.0,0.0,0.0,0.0,0.0,0.0,0.0168,0.0421,0.0421,0.0505,0.0673,0.0505,0.0505,0.0674,0.0424,0.0426,0.0343,0.0086,0.0,0.0,0.0,0.0,0.0,0.0,0.0,0.0,0.0,0.0,0.0,0.0,0.0,0.0,0.0,0.0,0.0,0.0,0.0,0.0,0.0,0.0,0.0,0.0,0.0,0.0,0.0,0.0,0.0,0.0,0.0,0.0,0.0,0.0,0.0,0.0,0.0,0.0,0.0,0.0,0.0,0.0,0.0,0.0,0.0,0.0,0.0,0.0,0.018,0.0269,0.0359,0.0808,0.0718,0.0359,0.0628,0.0539,0.0449,0.0628,0.1347,0.2156]},{"header":{"parameterUnit":"m.s-1","parameterCategory":1,"la1":30.6,"la2":28.766,"lo1":-90.7593,"lo2":-88.6598,"dy":0.0162,"dx":0.0183,"nx":116,"ny":114,"refTime":"2023-10-02T06:00:00:Z","depth":0,"parameterNumber":3,"parameterNumberName":"V-component_of_WINDS"},"data":[0.0,0.0,0.0,0.0,0.0,0.0,0.0,0.0,0.0,0.0,0.0,0.0,0.0,0.0,0.0,0.0,0.0,0.0,0.0,0.0,0.0,0.0,0.0,0.0,0.0,0.0,0.0,0.0,0.0,0.0,0.0,0.0,0.0,0.0,0.0,0.0,0.0,0.0,0.0,0.0,0.0,0.0,0.0,0.0,0.0,0.0,0.0,0.0,0.0,0.0,0.0,0.0,0.0,0.0,0.0,0.0,0.0,0.0,0.0,0.0,0.0,0.0,0.0,0.0,0.0,0.0,0.0,0.0,0.0,0.0,0.0,0.0,0.0,0.0,0.0,0.0,0.0,0.0,0.0,0.0,0.0,0.0,0.0,0.0,0.0,0.0,0.0,0.0,0.0,0.0,0.0,0.0,0.0,0.0,0.0,0.0,0.0,0.0,0.0,0.0,0.0,0.0,0.0,0.0,0.0,0.0,0.0,0.0,0.0,0.0,0.0,0.0,0.0,0.0,0.0,0.0,0.0,0.0,0.0,0.0,0.0,0.0,0.0,0.0,0.0,0.0,0.0,0.0,0.0,0.0,0.0,0.0,0.0,0.0,0.0,0.0,0.0,0.0,0.0,0.0,0.0,0.0,0.0,0.0,0.0,0.0,0.0,0.0,0.0,0.0,0.0,0.0,0.0,0.0,0.0,0.0,0.0,0.0,0.0,0.0,0.0,0.0,0.0,0.0,0.0,0.0,0.0,0.0,0.0,0.0,0.0,0.0,0.0,0.0,0.0,0.0,0.0,0.0,0.0,0.0,0.0,0.0,0.0,0.0,0.0,0.0,0.0,0.0,0.0,0.0,0.0,0.0,0.0,0.0,0.0,0.0,0.0,0.0,0.0,0.0,0.0,0.0,0.0,0.0,0.0,0.0,0.0,0.0,0.0,0.0,0.0,0.0,0.0,0.0,0.0,0.0,0.0,0.0,0.0,0.0,0.0,0.0,0.0,0.0,0.0,0.0,0.0,0.0,0.0,0.0,0.0,0.0,0.0,0.0,0.0,0.0,0.0,0.0,0.0,0.0,0.0,0.0,0.0,0.0,0.0,0.0,0.0,0.0,0.0,0.0,0.0,0.0,0.0,0.0,0.0,0.0,0.0,0.0,0.0,0.0,0.0,0.0,0.0,0.0,0.0,0.0,0.0,0.0,0.0,0.0,0.0,0.0,0.0,0.0,0.0,0.0,0.0,0.0,0.0,0.0,0.0,0.0,0.0,0.0,0.0,0.0,0.0,0.0,0.0,0.0,0.0,0.0,0.0,0.0,0.0,0.0,0.0,0.0,0.0,0.0,0.0,0.0,0.0,0.0,0.0,0.0,0.0,0.0,0.0,0.0,0.0,0.0,0.0,0.0,0.0,0.0,0.0,0.0,0.0,0.0,0.0,0.0,0.0,0.0,0.0,0.0,0.0,0.0,0.0,0.0,0.0,0.0,0.0,0.0,0.0,0.0,0.0,0.0,0.0,0.0,0.0,0.0,0.0,0.0,0.0,0.0,0.0,0.0,0.0,0.0,0.0,0.0,0.0,0.0,0.0,0.0,0.0,0.0,0.0,0.0,0.0,0.0,0.0,0.0,0.0,0.0,0.0,0.0,0.0,0.0,0.0,0.0,0.0,0.0,0.0,0.0,0.0,0.0,0.0,0.0,0.0,0.0,0.0,0.0,0.0,0.0,0.0,0.0,0.0,0.0,0.0,0.0,0.0,0.0,0.0,0.0,0.0,0.0,0.0,0.0,0.0,0.0,0.0,0.0,0.0,0.0,0.0,0.0,0.0,0.0,0.0,0.0,0.0,0.0,0.0,0.0,0.0,0.0,0.0,0.0,0.0,0.0,0.0,0.0,0.0,0.0,0.0,0.0,0.0,0.0,0.0,0.0,0.0,0.0,0.0,0.0,0.0,0.0,0.0,0.0,0.0,0.0,0.0,0.0,0.0,0.0,0.0,0.0,0.0,0.0,0.0,0.0,0.0,0.0,0.0,0.0,0.0,0.0,0.0,0.0,0.0,0.0,0.0,0.0,0.0,0.0,0.0,0.0,0.0,0.0,0.0,0.0,0.0,0.0,0.0,0.0,0.0,0.0,0.0,0.0,0.0,0.0,0.0,0.0,0.0,0.0,0.0,0.0,0.0,0.0,0.0,0.0,0.0,0.0,0.0,0.0,0.0,0.0,0.0,0.0,0.0,0.0,0.0,0.0,0.0,0.0,0.0,0.0,0.0,0.0,0.0,0.0,0.0,0.0,0.0,0.0,0.0,0.0,0.0,0.0,0.0,0.0,0.0,0.0,0.0,0.0,0.0,0.0,0.0,0.0,0.0,0.0,0.0,0.0,0.0,0.0,0.0,0.0,0.0,0.0,0.0,0.0,0.0,0.0,0.0,0.0,0.0,0.0,0.0,0.0,0.0,0.0,0.0,0.0,0.0,0.0,0.0,0.0,0.0,0.0,0.0,0.0,0.0,0.0,0.0,0.0,0.0,0.0,0.0,0.0,0.0,0.0,0.0,0.0,0.0,0.0,0.0,0.0,0.0,0.0,0.0,0.0,0.0,0.0,0.0,0.0,0.0,0.0,0.0,0.0,0.0,0.0,0.0,0.0,0.0,0.0,0.0,0.0,0.0,0.0,0.0,0.0,0.0,0.0,0.0,0.0,0.0,0.0,0.0,0.0,0.0,0.0,0.0,0.0,0.0,0.0,0.0,0.0,0.0,0.0,0.0,0.0,0.0,0.0,0.0,0.0,0.0,0.0,0.0,0.0,0.0,0.0,0.0,0.0,0.0,0.0,0.0,0.0,0.0,0.0,0.0,0.0,0.0,0.0,0.0,0.0,0.0,0.0,0.0,0.0,0.0,0.0,0.0,0.0,0.0,0.0,0.0,0.0,0.0,0.0,0.0,0.0,0.0,0.0,0.0,0.0,0.0,0.0,0.0,0.0,0.0,0.0,0.0,0.0,0.0,0.0,0.0,0.0,0.0,0.0,0.0,0.0,0.0,0.0,0.0,0.0,0.0,0.0,0.0,0.0,0.0,0.0,0.0,0.0,0.0,0.0,0.0,0.0,0.0,0.0,0.0,0.0,0.0,0.0,0.0,0.0,0.0,0.0,0.0,0.0,0.0,0.0,0.0,0.0,0.0,0.0,0.0,0.0,0.0,0.0,0.0,0.0,0.0,0.0,0.0,0.0,0.0,0.0,0.0,0.0,0.0,0.0,0.0,0.0,0.0,0.0,0.0,0.0,0.0,0.0,0.0,0.0,0.0,0.0,0.0,0.0,0.0,0.0,0.0,0.0,0.0,0.0,0.0,0.0,0.0,0.0,0.0,0.0,0.0,0.0,0.0,0.0,0.0,0.0,0.0,0.0,0.0,0.0,0.0,0.0,0.0,0.0,0.0,0.0,0.0,0.0,0.0,0.0,0.0,0.0,0.0,0.0,0.0,0.0,0.0,0.0,0.0,0.0,0.0,0.0,0.0,0.0,0.0,0.0,0.0,0.0,0.0,0.0,0.0,0.0,0.0,0.0,0.0,0.0,0.0,0.0,0.0,0.0,0.0,0.0,0.0,0.0,0.0,0.0,0.0,0.0,0.0,0.0,0.0,0.0,0.0,0.0,0.0,0.0,0.0,0.0,0.0,0.0,0.0,0.0,0.0,0.0,0.0,0.0,0.0,0.0,0.0,0.0,0.0,0.0,0.0,0.0,0.0,0.0,0.0,0.0,0.0,0.0,0.0,0.0,0.0,0.0,0.0,0.0,0.0,0.0,0.0,0.0,0.0,0.0,0.0,0.0,0.0,0.0,0.0,0.0,0.0,0.0,0.0,0.0,0.0,0.0,0.0,0.0,0.0,0.0,0.0,0.0,0.0,0.0,0.0,0.0,0.0,0.0,0.0,0.0,0.0,0.0,0.0,0.0,0.0,0.0,0.0,0.0,0.0,0.0,0.0,0.0,0.0,0.0,0.0,0.0,0.0,0.0,0.0,0.0,0.0,0.0,0.0,0.0,0.0,0.0,0.0,0.0,0.0,0.0,0.0,0.0,0.0,0.0,0.0,0.0,0.0,0.0,0.0,0.0,0.0,0.0,0.0,0.0,0.0,0.0,0.0,0.0,0.0,0.0,0.0,0.0,0.0,0.0,0.0,0.0,0.0,0.0,0.0,0.0,0.0,0.0,0.0,0.0,0.0,0.0,0.0,0.0,0.0,0.0,0.0,0.0,0.0,0.0,0.0,0.0,0.0,0.0,0.0,0.0,0.0,0.0,0.0,0.0,0.0,0.0,0.0,0.0,0.0,0.0,0.0,0.0,0.0,0.0,0.0,0.0,0.0,0.0,0.0,0.0,0.0,0.0,0.0,0.0,0.0,0.0,0.0,0.0,0.0,0.0,0.0,0.0,0.0,0.0,0.0,0.0,0.0,0.0,0.0,0.0,0.0,0.0,0.0,0.0,0.0,0.0,0.0,0.0,0.0,0.0,0.0,0.0,0.0,0.0,0.0,0.0,0.0,0.0,0.0,0.0,0.0,0.0,0.0,0.0,0.0,0.0,0.0,0.0,0.0,0.0,0.0,0.0,0.0,0.0,0.0,0.0,0.0,0.0,0.0,0.0,0.0,0.0,0.0,0.0,0.0,0.0,0.0,0.0,0.0,0.0,0.0,0.0,0.0,0.0,0.0,0.0,0.0,0.0,0.0,0.0,0.0,0.0,0.0,0.0,0.0,0.0,0.0,0.0,0.0,0.0,0.0,0.0,0.0,0.0,0.0,0.0,0.0,0.0,0.0,0.0,0.0,0.0,0.0,0.0,0.0,0.0,0.0,0.0,0.0,0.0,0.0,0.0,0.0,0.0,0.0,0.0,0.0,0.0,0.0,0.0,0.0,0.0,0.0,0.0,0.0,0.0,0.0,0.0,0.0,0.0,0.0,0.0,0.0,0.0,0.0,0.0,0.0,0.0,0.0,0.0,0.0,0.0,0.0,0.0,0.0,0.0,0.0,0.0,0.0,0.0,0.0,0.0,0.0,0.0,0.0,0.0,0.0,0.0,0.0,0.0,0.0,0.0,0.0,0.0,0.0,0.0,0.0,0.0,0.0,0.0,0.0,0.0,0.0,0.0,0.0,0.0,0.0,0.0,0.0,0.0,0.0,0.0,0.0,0.0,0.0,0.0,0.0,0.0,0.0,0.0,0.0,0.0,0.0,0.0,0.0,0.0,0.0,0.0,0.0,0.0,0.0,0.0,0.0,0.0,0.0,0.0,0.0,0.0,0.0,0.0,0.0,0.0,0.0,0.0,0.0,0.0,0.0,0.0,0.0,0.0,0.0,0.0,0.0,0.0,0.0,0.0,0.0,0.0,0.0,0.0,0.0,0.0,0.0,0.0,0.0,0.0,0.0,0.0,0.0,0.0,0.0,0.0,0.0,0.0,0.0,0.0,0.0,0.0,0.0,0.0,0.0,0.0,0.0,0.0,0.0,0.0,0.0,0.0,0.0,0.0,0.0,0.0,0.0,0.0,0.0,0.0,0.0,0.0,0.0,0.0,0.0,0.0,0.0,0.0,0.0,0.0,0.0,0.0,0.0,0.0,0.0,0.0,0.0,0.0,0.0,0.0,0.0,0.0,0.0,0.0,0.0,0.0,0.0,0.0,0.0,0.0,0.0,0.0,0.0,0.0,0.0,0.0,0.0,0.0,0.0,0.0,0.0,0.0,0.0,0.0,0.0,0.0,0.0,0.0,0.0,0.0,0.0,0.0,0.0,0.0,0.0,0.0,0.0,0.0,0.0,0.0,0.0,0.0,0.0,0.0,0.0,0.0,0.0,0.0,0.0,0.0,0.0,0.0,0.0,0.0,0.0,0.0,0.0,0.0,0.0,0.0,0.0,0.0,0.0,0.0,0.0,0.0,0.0,0.0,0.0,0.0,0.0,0.0,0.0,0.0,0.0,0.0,0.0,0.0,0.0,0.0,0.0,0.0,0.0,0.0,0.0,0.0,0.0,0.0,0.0,0.0,0.0,0.0,0.0,0.0,0.0,0.0,0.0,0.0,0.0,0.0,0.0,0.0,0.0,0.0,0.0,0.0,0.0,0.0,4.9159,0.0,0.0,0.0,0.0,0.0,0.0,0.0,0.0,0.0,0.0,0.0,0.0,0.0,0.0,0.0,0.0,0.0,0.0,0.0,0.0,0.0,0.0,0.0,0.0,0.0,0.0,0.0,0.0,0.0,0.0,0.0,0.0,0.0,0.0,0.0,0.0,0.0,0.0,3.9712,4.01,4.0252,4.0227,3.946,3.9188,3.934,0.0,0.0,0.0,0.0,0.0,0.0,0.0,0.0,0.0,0.0,0.0,0.0,0.0,0.0,0.0,0.0,0.0,0.0,0.0,0.0,0.0,0.0,0.0,0.0,0.0,0.0,0.0,0.0,0.0,0.0,0.0,0.0,0.0,0.0,0.0,0.0,0.0,0.0,0.0,0.0,0.0,0.0,0.0,0.0,0.0,0.0,0.0,0.0,0.0,0.0,0.0,0.0,0.0,0.0,0.0,0.0,0.0,0.0,0.0,0.0,0.0,0.0,0.0,0.0,0.0,0.0,0.0,0.0,0.0,0.0,0.0,5.1019,0.0,0.0,0.0,0.0,0.0,0.0,0.0,0.0,0.0,0.0,0.0,0.0,0.0,0.0,0.0,0.0,0.0,0.0,0.0,0.0,0.0,0.0,0.0,4.4295,4.4729,4.5816,4.5816,4.556,4.5207,0.0,0.0,0.0,0.0,0.0,4.1733,4.152,4.1607,4.2045,4.2474,4.2683,4.2717,4.3037,4.2687,4.177,4.2005,0.0,0.0,0.0,0.0,0.0,0.0,0.0,0.0,0.0,0.0,0.0,0.0,0.0,0.0,0.0,0.0,0.0,0.0,0.0,0.0,0.0,0.0,0.0,0.0,0.0,0.0,0.0,0.0,0.0,0.0,0.0,0.0,0.0,0.0,0.0,0.0,0.0,0.0,0.0,0.0,0.0,0.0,0.0,0.0,0.0,0.0,0.0,0.0,0.0,0.0,0.0,0.0,0.0,0.0,0.0,0.0,0.0,0.0,0.0,0.0,0.0,0.0,0.0,6.2577,6.3258,6.363,6.3222,6.2971,6.2624,5.9088,5.7217,5.6555,5.5136,0.0,0.0,0.0,0.0,0.0,0.0,0.0,0.0,0.0,0.0,0.0,0.0,0.0,0.0,0.0,0.0,0.0,0.0,0.0,4.3462,4.4983,4.5128,4.6033,4.8221,4.7787,4.7657,4.828,0.0,0.0,0.0,0.0,4.4953,4.3597,4.4756,4.4812,4.3756,4.6169,4.7273,4.721,4.8496,4.8661,4.777,4.4195,4.3413,4.4692,0.0,0.0,0.0,0.0,0.0,0.0,0.0,0.0,0.0,0.0,0.0,0.0,0.0,0.0,0.0,0.0,0.0,0.0,0.0,0.0,0.0,0.0,0.0,0.0,0.0,0.0,0.0,0.0,0.0,0.0,0.0,0.0,0.0,0.0,0.0,0.0,0.0,0.0,0.0,0.0,0.0,5.2736,5.3013,0.0,0.0,0.0,0.0,0.0,0.0,0.0,0.0,0.0,0.0,0.0,0.0,0.0,6.3011,6.4556,6.5459,6.6289,6.6975,6.8522,6.9281,6.9322,6.9281,6.9209,6.9105,6.7861,0.0,5.9279,5.8202,0.0,0.0,0.0,0.0,0.0,0.0,0.0,0.0,0.0,0.0,0.0,0.0,0.0,0.0,0.0,0.0,0.0,0.0,0.0,0.0,0.0,4.7047,4.7953,4.9438,5.009,4.9981,4.8945,4.8461,0.0,0.0,4.6203,4.5788,4.5485,4.6204,4.6735,4.7077,4.9557,5.0586,5.0226,5.126,5.1525,5.1055,4.9159,4.7505,4.6157,4.5684,0.0,0.0,0.0,0.0,0.0,0.0,0.0,0.0,0.0,0.0,0.0,0.0,0.0,0.0,0.0,0.0,0.0,0.0,0.0,0.0,0.0,0.0,0.0,0.0,0.0,0.0,0.0,0.0,0.0,0.0,0.0,0.0,0.0,0.0,0.0,0.0,0.0,0.0,0.0,5.4207,5.5993,5.5088,5.637,5.6454,0.0,0.0,0.0,0.0,0.0,0.0,0.0,0.0,0.0,6.6082,6.7489,6.8788,6.9989,7.1019,7.1824,7.2364,7.3324,7.4118,7.4698,7.4384,7.3988,7.3481,7.2696,7.0521,6.7253,6.3357,6.0757,5.8981,0.0,0.0,0.0,0.0,5.5286,5.5673,0.0,0.0,0.0,0.0,0.0,0.0,0.0,0.0,0.0,0.0,0.0,0.0,4.7601,4.869,4.9778,5.0998,5.2014,5.1919,5.0279,4.959,4.8698,4.7482,4.7405,4.7365,4.7381,4.798,4.911,5.0887,5.2801,5.3476,5.3045,5.3746,5.3906,5.3597,5.3597,5.1723,4.8531,4.8249,4.6781,4.4719,0.0,0.0,0.0,0.0,0.0,0.0,0.0,0.0,0.0,0.0,0.0,0.0,0.0,0.0,0.0,0.0,0.0,0.0,0.0,0.0,0.0,0.0,0.0,0.0,0.0,0.0,0.0,0.0,0.0,0.0,0.0,0.0,0.0,0.0,0.0,0.0,0.0,5.7981,5.9474,5.7765,6.053,6.1261,0.0,0.0,0.0,0.0,0.0,0.0,6.6263,6.7638,6.9249,7.1018,7.2608,7.3813,7.4646,7.5356,7.5985,7.6486,7.6577,7.7153,7.8163,7.7509,7.6866,7.6268,7.5471,7.4736,7.3728,6.812,6.5022,6.3534,6.0915,6.012,6.0393,5.9646,5.987,6.0563,0.0,0.0,0.0,0.0,0.0,0.0,0.0,0.0,0.0,0.0,0.0,4.6185,4.7809,4.945,5.131,5.3608,5.3243,5.3111,5.3617,5.15,5.0148,4.993,5.1335,5.1236,4.9222,5.0866,5.2804,5.4914,5.5766,5.613,5.5996,5.6718,5.6687,5.6014,5.6014,5.4928,5.294,5.0726,4.9704,4.9393,4.7472,0.0,0.0,0.0,0.0,0.0,0.0,0.0,0.0,0.0,0.0,0.0,0.0,0.0,0.0,0.0,0.0,0.0,0.0,0.0,0.0,0.0,0.0,0.0,0.0,0.0,0.0,0.0,0.0,0.0,0.0,0.0,0.0,0.0,0.0,0.0,0.0,0.0,0.0,6.2108,6.6249,0.0,0.0,0.0,0.0,6.7241,6.7428,6.851,7.084,7.1752,7.3276,7.5595,7.6492,7.7338,7.8144,7.745,7.7487,7.8256,7.7524,7.7599,7.8346,7.755,7.7165,7.709,7.6293,7.5907,7.5546,7.1336,6.9579,6.9177,6.6004,6.4774,6.4683,6.3941,6.4186,6.4766,0.0,0.0,0.0,0.0,0.0,0.0,0.0,0.0,4.6749,4.8625,4.9182,5.0025,5.1695,5.3328,5.485,5.626,5.7076,5.7188,5.6409,5.5286,5.4133,5.2983,5.3235,5.3481,5.3604,5.4737,5.6036,5.7375,5.8199,5.8882,5.941,5.9699,5.9875,5.9944,5.9944,5.9495,5.8495,5.4836,5.1764,4.9382,4.9252,4.7777,0.0,0.0,0.0,0.0,0.0,0.0,0.0,0.0,0.0,0.0,0.0,0.0,0.0,0.0,0.0,0.0,0.0,0.0,0.0,0.0,0.0,0.0,0.0,0.0,0.0,0.0,0.0,0.0,0.0,0.0,0.0,0.0,0.0,0.0,0.0,0.0,0.0,6.8211,7.1672,0.0,6.8638,6.9995,7.1229,7.1474,7.2986,7.4514,7.5906,7.6753,7.7561,7.8406,7.8904,7.9056,7.8853,7.8832,7.8832,7.8853,7.8832,7.9078,7.9554,7.9389,7.9035,7.8542,7.8259,7.7804,7.7176,7.5698,7.3904,7.181,6.9628,6.864,6.8428,6.7628,6.7514,6.7666,0.0,0.0,0.0,0.0,0.0,0.0,0.0,4.7297,4.8137,5.0349,5.1201,5.2227,5.3896,5.5806,5.7398,5.8522,5.9626,5.9776,5.8672,5.756,5.6152,5.4402,5.4338,5.5361,5.7497,5.8337,5.9299,6.03,6.0891,6.1456,6.2053,6.1584,6.1674,6.2213,6.2213,6.2254,6.2157,5.9459,5.6031,5.2379,5.2906,5.1645,4.9254,0.0,0.0,0.0,0.0,0.0,0.0,0.0,0.0,0.0,0.0,0.0,0.0,0.0,0.0,0.0,0.0,0.0,0.0,0.0,0.0,0.0,0.0,0.0,0.0,0.0,0.0,0.0,0.0,0.0,0.0,0.0,0.0,0.0,0.0,0.0,7.2943,7.1492,7.5453,7.6814,7.3095,7.4694,7.6198,7.6731,7.8022,7.9201,8.0037,8.0587,8.0891,8.0891,8.0806,8.0514,8.0015,7.9988,7.9815,7.9561,7.9836,8.0078,8.0314,8.045,8.02,7.9704,7.9704,7.936,7.8825,7.8557,7.6998,7.4654,7.3022,7.2106,7.1603,7.0763,7.0113,6.9425,0.0,0.0,0.0,0.0,0.0,0.0,4.7674,4.8263,4.9235,5.0916,5.1579,5.2575,5.4267,5.6619,5.88,6.0454,6.0604,6.0567,6.0435,5.8128,5.6012,5.4275,5.4966,5.7056,6.0632,6.1542,6.2597,6.3789,6.386,6.3899,6.3869,6.2455,6.2124,6.2779,6.2779,6.3141,6.3749,6.4524,6.2611,5.9013,5.8388,5.708,5.5098,0.0,0.0,0.0,0.0,0.0,0.0,0.0,0.0,0.0,0.0,0.0,0.0,0.0,0.0,0.0,0.0,0.0,0.0,0.0,0.0,0.0,0.0,0.0,0.0,0.0,0.0,0.0,0.0,0.0,0.0,0.0,0.0,0.0,6.8449,7.2616,7.475,7.2108,7.755,8.0275,7.724,7.9169,8.127,8.2837,8.2225,8.2111,8.2875,8.2951,8.2951,8.2951,8.2225,8.1843,8.1843,8.1003,8.0582,8.0544,8.0544,8.0544,8.0506,8.0506,8.0506,8.0506,8.0525,8.0525,8.0448,7.9702,7.8861,7.7888,7.6168,7.4983,7.4104,7.3263,7.1887,7.0129,0.0,0.0,0.0,0.0,0.0,0.0,4.7739,4.8491,4.9756,5.2056,5.3554,5.5265,5.7549,5.9475,6.1317,6.3029,6.3182,6.3166,6.3112,6.1629,6.0089,5.8634,5.9251,6.0665,6.287,6.3733,6.4599,6.552,6.5528,6.5669,6.5888,6.5474,6.5842,6.6799,6.6799,6.7204,6.7969,6.8801,6.8211,6.6426,6.276,6.0251,5.8559,0.0,0.0,0.0,0.0,0.0,0.0,0.0,0.0,0.0,0.0,0.0,0.0,0.0,0.0,0.0,0.0,0.0,0.0,0.0,0.0,0.0,0.0,0.0,0.0,0.0,0.0,0.0,0.0,0.0,0.0,0.0,0.0,7.3882,7.4274,7.6599,7.8904,8.0545,8.2377,8.316,8.2302,8.2837,8.2951,8.2187,8.192,8.1614,8.1194,8.1805,8.2111,8.2111,8.2493,8.2684,8.2684,8.2416,8.1996,8.1423,8.1423,8.1117,8.0506,8.0506,8.0506,8.0525,8.0646,8.0733,8.0711,8.0677,8.0177,7.9122,7.6654,7.5156,7.4267,7.2986,7.1426,6.9963,0.0,0.0,0.0,0.0,0.0,0.0,4.8394,4.9493,5.114,5.3616,5.5147,5.6792,5.8974,6.0376,6.1715,6.3064,6.3126,6.3165,6.3121,6.2422,6.1837,6.1417,6.2422,6.371,6.5193,6.6041,6.6917,6.7926,6.7588,6.7696,6.8179,6.7868,6.821,6.9152,6.9447,7.0048,7.0807,7.1591,7.1691,7.1121,6.8633,6.6421,6.4423,6.2628,6.1648,6.1012,5.9085,5.8321,5.803,5.6781,0.0,0.0,0.0,0.0,0.0,0.0,0.0,0.0,0.0,0.0,0.0,0.0,0.0,0.0,0.0,0.0,0.0,0.0,0.0,0.0,0.0,0.0,0.0,0.0,7.4504,7.71,7.9802,8.0861,8.1958,8.3563,8.4059,8.4289,8.4289,8.3983,8.3639,8.3372,8.3028,8.276,8.2607,8.3066,8.3372,8.3372,8.3486,8.3715,8.4021,8.3466,8.3045,8.2837,8.2329,8.1768,8.1147,8.0924,8.0783,8.08,8.0907,8.0962,8.0998,8.1178,8.0731,0.0,0.0,0.0,0.0,0.0,7.0939,6.982,0.0,0.0,0.0,0.0,0.0,0.0,4.9178,5.0741,5.2658,5.4951,5.618,5.7459,5.9022,6.0072,6.0904,6.1682,6.1718,6.1781,6.1945,6.1945,6.239,6.3461,6.51,6.6532,6.7672,6.8545,6.9511,7.0616,6.9901,6.988,7.0492,6.9783,6.981,7.0458,7.1133,7.1874,7.2542,7.334,7.3752,7.3901,7.4785,7.3591,7.1028,6.8271,6.7949,6.8548,6.6345,6.4244,6.2475,6.2245,0.0,0.0,0.0,0.0,0.0,0.0,0.0,0.0,0.0,0.0,0.0,0.0,0.0,0.0,0.0,0.0,0.0,0.0,0.0,0.0,0.0,0.0,0.0,0.0,7.691,7.9708,8.4595,8.4998,8.4442,8.3486,8.406,8.4557,8.4672,8.406,8.4213,8.5609,8.4978,8.4787,8.5418,0.0,0.0,0.0,0.0,8.4844,8.5571,8.4429,8.4045,8.4366,8.341,8.2655,8.2128,8.1591,8.1305,8.1203,8.1244,8.1298,8.1333,8.1395,8.0921,8.0037,7.872,7.7216,7.5375,7.2336,7.061,6.9645,0.0,0.0,0.0,0.0,0.0,0.0,4.858,5.0593,5.2531,5.3677,5.5736,5.7517,5.8535,5.9899,6.1065,6.1878,6.1851,6.2427,6.3916,6.402,6.4997,6.7154,6.8767,6.997,7.0815,7.1693,7.223,7.2465,7.2312,7.2129,7.1915,7.1746,7.1862,7.226,7.2447,7.2935,7.3715,7.4601,7.5351,7.5965,7.6815,7.5508,7.3075,7.3127,7.2288,7.0934,6.9816,6.9651,6.9748,6.789,6.6848,6.615,6.5517,6.3568,0.0,0.0,0.0,0.0,0.0,0.0,0.0,0.0,0.0,0.0,0.0,0.0,0.0,0.0,0.0,0.0,0.0,0.0,0.0,7.8361,8.147,8.431,8.6693,8.7557,8.7379,8.586,8.5799,8.6184,8.6823,8.734,8.7549,8.7224,8.6377,8.5683,8.5144,8.509,8.509,8.509,8.5629,8.6014,8.6153,8.6524,8.6115,8.4859,0.0,0.0,8.2429,8.2366,8.1968,8.1285,8.1501,8.1602,8.163,8.1867,8.1445,8.0355,7.7108,7.4897,7.3461,7.2841,7.1194,6.9376,0.0,0.0,0.0,0.0,0.0,0.0,4.9163,5.128,5.3372,5.4594,5.5843,5.7317,5.9056,5.9559,6.008,6.0895,6.1214,6.2555,6.5248,6.6205,6.7975,7.0905,7.1784,7.2572,7.3395,7.3308,7.3644,7.4489,7.3964,7.3993,7.4579,7.4123,7.3973,7.4157,7.4157,7.4612,7.5408,7.5825,7.6486,7.732,7.8175,7.7657,7.6468,7.6747,7.6194,7.5257,7.4872,7.4517,7.4104,7.2986,7.1787,7.0698,7.0466,6.8813,6.6673,0.0,0.0,0.0,0.0,0.0,0.0,0.0,0.0,0.0,0.0,0.0,0.0,0.0,0.0,7.3325,0.0,0.0,7.9504,8.2902,8.4791,8.6416,8.8249,8.8803,8.8654,8.7687,8.7556,8.7726,8.8097,8.8521,8.8652,8.8228,8.7803,8.7378,8.6915,8.69,8.6906,8.6939,8.6925,8.7199,8.7654,8.7332,8.71,8.6971,8.6394,8.5391,8.4033,8.3271,8.2475,8.1708,8.182,8.1927,8.1968,8.2128,8.167,8.0625,7.8293,7.6144,7.4255,7.3867,7.2082,6.9868,0.0,0.0,0.0,0.0,0.0,0.0,4.9909,5.2203,5.4419,5.5769,5.608,5.6936,5.888,5.8434,5.8396,5.9311,6.0437,6.2735,6.6524,6.8186,7.0632,7.4213,7.4314,7.4713,7.5556,7.4757,7.5026,7.6559,7.5697,7.5879,7.7016,7.6388,7.6016,7.5863,7.597,7.6446,7.7088,7.7241,7.7701,7.8411,7.9309,7.9639,7.9589,7.934,7.918,7.9037,7.9037,7.8049,7.6775,7.6925,7.5469,7.3703,7.43,7.338,7.1674,6.9709,6.9731,0.0,0.0,0.0,0.0,0.0,0.0,0.0,0.0,7.0952,7.1853,7.5258,7.6787,7.8328,8.1071,8.2445,8.4068,8.6787,8.7331,8.7957,8.9556,8.9771,8.9719,8.9499,8.9314,8.9209,8.9209,8.9325,8.9455,8.9444,8.929,8.9226,8.9215,8.906,8.892,8.884,8.813,8.8061,8.8656,8.7623,8.7623,8.8628,8.7113,8.6147,8.5633,8.4221,8.3214,8.2596,8.2452,8.2323,8.221,8.228,8.1847,8.1117,8.0415,7.8637,7.6297,7.4923,7.2851,7.0669,0.0,0.0,0.0,0.0,0.0,0.0,0.0,0.0,5.5184,5.5379,5.604,5.6352,5.5887,5.5634,5.609,5.7535,6.0005,6.3575,6.8533,6.9724,7.2043,7.6189,7.6199,7.6478,7.7292,7.7183,7.7599,7.8568,7.8469,7.8098,7.7545,7.8001,7.7841,7.7106,7.7723,7.8154,7.842,7.9138,7.9524,7.9678,8.0564,8.0785,8.0643,8.0593,8.018,7.9621,7.9621,7.8745,7.7665,7.8403,7.7526,7.6305,7.7549,7.679,7.5185,7.3906,7.2024,6.996,6.8012,6.8463,6.9942,7.2054,7.3339,7.5311,0.0,8.0486,8.0865,8.3537,8.4954,8.5796,8.6185,8.6972,8.772,8.8108,8.938,9.0421,9.0682,9.1382,9.1858,9.1887,9.1131,9.058,9.058,9.1279,9.1749,9.1802,9.1111,9.069,9.0766,9.0073,8.9341,8.8569,8.8452,8.8063,8.7408,8.7999,8.7999,8.7408,8.7935,8.7397,8.5832,8.4964,8.4483,8.4371,8.3635,8.2947,8.2287,8.229,8.2251,8.2131,8.2053,8.0882,7.8881,7.5686,7.3328,7.1616,0.0,0.0,0.0,0.0,0.0,0.0,0.0,0.0,5.4462,5.4533,5.442,5.4771,5.5942,5.643,5.6911,5.758,6.0535,6.4336,6.9022,7.1476,7.4238,7.755,7.7623,7.7946,7.8786,7.82,7.8583,7.9944,7.9806,7.9776,7.9843,7.9609,7.8998,7.8162,7.7987,7.7961,7.8058,7.8394,7.8781,7.9233,7.962,8.0022,8.0356,7.9841,7.9447,7.913,7.8863,7.8386,0.0,7.769,7.75,7.7465,7.8084,7.7436,7.6101,7.4121,7.3505,7.3401,7.33,7.3368,7.3825,7.5422,7.6885,7.8834,8.2101,8.265,8.3388,8.6562,8.7543,8.8105,8.9129,8.9601,9.0011,0.0,9.1239,9.1676,9.1716,9.2028,9.2082,9.1605,9.2059,9.2213,9.1707,9.2009,9.2221,9.2261,9.1911,9.1732,9.1768,9.1456,9.1126,9.078,9.0273,8.9627,8.8838,8.8682,8.817,8.7312,8.7702,8.7195,8.599,8.5656,8.4962,8.3951,8.3146,8.2606,8.2293,8.2293,8.2293,8.2293,8.2293,8.1552,8.0107,7.7124,7.4893,7.314,0.0,0.0,0.0,0.0,0.0,0.0,0.0,0.0,0.0,0.0,5.302,5.3059,5.4974,5.6341,5.7124,5.7122,6.0282,6.4226,6.8757,7.2032,7.5074,7.7927,7.851,7.9053,7.9678,7.9153,7.9622,8.1137,8.0946,8.1026,8.1329,8.0871,8.0165,7.9301,7.8903,7.8748,7.8796,7.8796,7.9029,7.9359,7.9602,7.9718,7.9745,7.9114,7.8561,7.8098,7.7733,7.723,7.6651,7.5801,7.6092,7.6766,7.6536,7.6539,7.6256,7.4428,7.4804,7.5831,7.6133,7.6648,7.7312,7.8185,8.0281,8.2512,8.3898,8.4778,8.6008,8.8644,8.9348,8.987,9.1137,9.1334,9.1506,9.2182,9.2313,9.2204,9.199,9.1951,9.1646,9.0807,9.1826,9.2528,9.2372,9.2529,9.2554,9.2341,9.2341,9.2347,9.2366,9.2372,9.239,9.2437,9.1613,9.0773,9.0023,8.9125,8.8266,8.7404,8.7404,8.7056,8.6431,8.6197,8.5026,8.3152,8.2801,8.2528,8.2293,8.2293,8.2293,8.2293,8.2293,8.1903,8.1083,7.8702,7.6555,7.4564,0.0,0.0,0.0,0.0,0.0,0.0,0.0,0.0,0.0,0.0,0.0,5.1469,5.1554,5.3859,5.5382,5.5381,5.8499,6.2677,6.7799,7.0594,7.3593,7.7002,7.8747,7.9678,7.9717,8.0498,8.1353,8.2251,8.2248,8.1819,8.1038,8.165,8.1474,8.0682,8.1303,8.1679,8.1864,8.1864,8.1396,8.0728,8.1552,8.08,7.9107,7.9107,7.7982,7.6438,7.6327,7.5182,7.3632,7.2811,7.306,7.3558,7.2598,7.4087,7.6184,7.5967,7.6091,7.5932,7.4334,7.6436,7.9306,8.0201,8.3711,8.7014,8.7053,8.9001,9.0794,9.0917,9.1573,9.2189,9.2235,9.2267,9.2267,9.2306,9.2313,9.2022,9.127,9.1119,9.0867,9.0133,9.0098,9.0722,0.0,9.3131,9.3244,9.2446,9.2412,9.2432,9.2479,9.2479,9.2479,9.2482,9.1702,9.0882,9.0023,8.9125,8.8266,8.7404,8.7404,8.7407,8.7329,8.651,8.4714,8.2371,8.3152,8.3035,8.2293,8.2293,8.2293,8.2293,8.2293,8.2293,8.2059,8.0263,7.796,7.5618,0.0,0.0,0.0,0.0,0.0,0.0,0.0,0.0,0.0,0.0,0.0,0.0,0.0,0.0,0.0,0.0,5.7409,6.0456,6.4441,6.8224,7.1309,7.3615,7.6464,7.8259,7.8805,7.9703,8.0838,8.2283,8.2313,8.2152,8.1878,8.2078,8.1746,8.0926,8.1129,8.0934,8.0458,8.0458,8.0302,8.0029,7.9717,7.9583,7.9344,7.8053,7.6144,7.3982,0.0,7.2124,7.1781,7.0369,7.0824,7.2042,7.2351,7.2685,7.2929,7.2879,7.4264,7.5891,7.6436,7.8858,8.1602,8.3006,8.4932,8.694,8.8657,8.971,9.0647,9.1778,9.1315,9.0713,9.0755,9.0261,9.005,9.0676,9.1266,9.1739,9.1991,9.2542,9.2155,9.0218,9.2014,0.0,0.0,0.0,0.0,9.3318,9.3869,9.372,9.2561,9.3615,9.3966,9.338,9.3654,9.3146,9.1663,9.0843,8.9398,8.7407,8.6822,8.6822,8.7368,8.651,8.5338,8.3933,8.3621,8.3035,8.2293,8.2293,8.2293,8.2293,8.2293,8.2293,8.2215,8.163,7.9756,7.7257,0.0,0.0,0.0,0.0,0.0,0.0,0.0,0.0,0.0,0.0,0.0,0.0,0.0,0.0,0.0,0.0,0.0,5.8158,6.0971,6.4912,6.7879,6.964,7.2684,7.4753,7.5612,7.6198,7.7486,7.9558,7.9547,8.0009,8.0907,8.0894,8.0771,8.0537,8.0537,8.0224,7.9678,7.9366,7.9053,7.866,7.7433,7.6915,7.6708,7.5045,7.3055,0.0,6.9454,6.9189,6.9273,6.7526,6.8132,6.971,7.0293,7.1125,7.1964,7.2334,7.4605,7.7316,7.8676,8.1074,8.3582,8.5299,8.6392,8.7564,8.9555,9.0257,9.0687,9.1467,9.0469,8.9402,8.9122,8.8322,8.7885,8.8497,8.932,9.0296,9.1467,9.2092,9.2053,9.1038,9.2834,9.3537,0.0,0.0,0.0,9.3771,9.4591,9.4591,9.3497,9.4473,9.4825,9.4278,9.4825,9.4278,9.2522,9.1975,9.0413,8.7837,8.6978,8.6705,8.6939,8.6353,8.5612,8.4753,8.3894,8.3191,8.2723,8.2411,8.2293,8.2293,8.2293,8.2293,8.2293,8.2293,8.1044,7.9014,0.0,0.0,0.0,0.0,0.0,0.0,0.0,0.0,0.0,0.0,0.0,0.0,0.0,0.0,0.0,0.0,0.0,0.0,5.7578,6.0776,6.3429,6.5232,6.7765,6.9558,7.0497,7.0535,7.1823,7.4324,7.4392,7.5636,7.802,7.8047,7.8507,7.9326,7.9326,7.9326,7.9248,7.8429,7.7609,7.6666,7.4845,7.3173,7.1677,7.0615,6.9196,6.7695,6.698,6.6707,6.64,6.4695,6.5468,6.713,6.7087,6.9884,7.3417,7.447,7.7179,8.0029,8.0888,8.3035,8.5377,8.7017,8.811,8.8969,8.9828,9.0687,9.1038,9.0101,8.9203,8.8266,8.7329,8.651,8.6002,8.608,8.6939,8.8227,8.9945,9.0257,9.0882,0.0,0.0,0.0,0.0,0.0,0.0,9.4005,0.0,9.5176,9.5098,9.5176,9.5215,9.5176,9.5215,9.4395,9.2639,9.2443,9.1155,8.8696,8.7837,8.6978,8.6236,8.6197,8.569,8.4831,8.3933,8.3504,8.3386,8.2606,8.2293,8.2293,8.2293,8.2293,8.2293,8.2293,8.1708,8.0693,0.0,0.0,0.0,0.0,0.0,0.0,0.0,0.0,0.0,0.0,0.0,0.0,0.0,0.0,0.0,0.0,0.0,0.0,5.4844,5.6406,5.8593,6.151,6.4179,6.6289,6.7686,6.8437,6.9452,7.0741,7.1398,7.2016,7.268,7.3325,7.3744,7.3978,7.3978,7.3978,7.3939,7.3744,7.351,7.3195,7.1954,7.1647,7.1835,7.0635,6.9635,6.8783,6.8429,6.8001,6.7438,6.6408,6.8574,7.1855,7.3059,7.4659,7.6379,7.7915,7.9912,8.1825,8.2645,8.5221,8.7642,8.7446,8.854,8.9711,8.9945,9.0687,9.0882,8.9359,8.7837,8.6119,8.3972,8.3894,8.4597,8.5885,8.8461,0.0,9.26,9.3966,0.0,9.3576,0.0,9.5059,9.42,9.5293,0.0,0.0,9.6542,9.6464,9.5176,9.6347,9.6738,9.6074,9.6699,9.6191,9.4434,9.1897,8.9984,8.8696,8.7837,8.7603,8.8032,8.7368,8.6588,8.5729,8.487,8.3777,8.2606,8.2371,8.2293,8.2293,8.2293,8.2293,8.2293,8.2293,8.1356,7.9951,0.0,0.0,0.0,0.0,0.0,0.0,0.0,0.0,0.0,0.0,0.0,0.0,0.0,0.0,0.0,0.0,0.0,0.0,0.0,5.367,5.5156,5.7457,5.8984,6.0547,6.2223,6.2812,6.3866,6.5467,6.6319,6.7328,6.846,6.8952,6.9372,6.9723,6.9723,6.9918,7.027,6.9879,6.9957,0.0,0.0,6.8553,6.8968,6.8242,6.7974,6.8014,6.8333,6.9462,7.0926,7.1627,7.3275,7.5266,7.6984,7.8116,7.9131,8.0849,8.2332,8.3582,8.4401,8.6627,8.8579,8.811,8.9008,8.9789,8.9047,8.9242,8.9086,8.7368,8.5338,8.3308,8.1474,8.2137,8.3152,8.3777,0.0,0.0,9.2951,9.4395,9.5332,0.0,9.6386,0.0,9.5606,9.6386,9.7128,0.0,9.7987,9.7675,9.6308,9.7518,9.7714,9.6425,9.7245,9.6855,9.5137,9.2092,9.014,8.9242,8.8774,8.8383,8.8149,8.8032,8.729,8.6041,0.0,8.405,8.2801,8.245,8.2293,8.2293,8.2293,8.2293,8.2293,8.2293,8.12,7.9717,0.0,0.0,0.0,0.0,0.0,0.0,0.0,0.0,0.0,0.0,0.0,0.0,0.0,0.0,0.0,0.0,0.0,0.0,0.0,0.0,5.2689,5.3785,5.3703,5.4443,5.6165,5.6197,5.7288,5.9515,6.0485,6.216,6.4388,6.4614,6.5119,6.5785,6.5785,6.6214,6.6876,6.6212,6.6407,6.6951,6.5558,6.506,6.5143,0.0,6.5803,6.6964,6.831,7.1316,7.511,7.7963,7.851,7.8272,8.0146,8.1161,8.202,8.3699,8.4558,8.5143,8.6041,8.7446,8.8657,8.8579,8.9164,8.9398,8.7759,8.7329,8.6705,8.487,8.2606,8.0654,7.9561,8.0771,8.1864,8.1552,8.5651,8.9789,9.2482,9.3693,9.5176,9.744,9.7714,9.7714,9.7714,9.7792,9.8182,9.8924,9.9119,9.8807,9.7909,9.8572,9.826,9.6621,9.7206,9.6738,9.5137,9.2561,9.0921,9.0179,8.9945,8.9086,8.7759,8.854,8.7915,8.6236,8.5338,0.0,8.3426,8.2645,8.2293,8.2293,8.2293,8.2293,8.2293,8.2293,8.12,7.9717,0.0,0.0,0.0,0.0,0.0,0.0,0.0,0.0,0.0,0.0,4.8427,4.9132,0.0,0.0,0.0,0.0,0.0,0.0,0.0,0.0,0.0,5.2769,5.2096,5.2468,5.4174,5.4147,5.4355,5.4784,5.6507,5.7545,5.8028,5.9536,6.0292,6.0454,6.0454,6.0532,6.0689,6.1268,6.1582,6.1818,6.2847,6.3719,6.4544,6.507,0.0,0.0,7.2344,7.4371,7.6206,8.0241,8.1954,8.2801,8.5299,8.569,8.5573,8.729,8.6861,8.6041,8.6939,8.7915,8.854,8.7798,8.8266,8.8657,8.7642,8.6822,8.5651,8.323,8.1825,8.0302,7.7999,7.8975,8.1044,8.3699,8.729,9.0921,9.42,9.6035,9.7206,0.0,9.7714,9.7714,9.7714,9.8338,0.0,0.0,9.9666,9.9705,9.8807,9.8924,9.8533,9.7518,9.6933,9.6113,9.5098,9.2561,9.1233,9.1077,8.9594,8.9125,8.9555,8.9711,8.8813,8.7134,8.6236,0.0,8.3426,8.2645,8.2293,8.2293,8.2293,8.2293,8.2293,8.2293,8.12,7.9717,0.0,0.0,0.0,0.0,0.0,0.0,0.0,4.7043,4.79,4.8802,4.9275,4.9825,5.0684,5.1506,5.2404,0.0,0.0,0.0,0.0,0.0,0.0,5.1818,5.1425,5.1544,5.2288,5.2714,5.3164,5.3591,0.0,5.5833,5.6276,5.7209,5.7674,5.769,5.7752,5.8034,5.8544,5.9362,5.9987,6.0574,6.2701,6.3878,6.4442,6.5674,0.0,0.0,7.2836,7.5017,7.689,7.9393,8.2046,8.4695,8.7267,8.7492,8.7017,8.8305,8.811,8.7525,8.7954,8.9047,8.9828,8.8969,8.9086,8.8774,8.6549,8.5377,8.4011,8.1474,8.0615,7.9678,7.7492,7.9287,8.1278,8.202,8.5807,8.9672,9.2717,9.4591,9.6191,9.7558,9.7714,9.7714,9.7714,9.8065,9.8494,9.8963,9.9392,9.9431,9.9002,9.8572,9.8143,9.7714,9.6855,9.5762,9.4434,9.2756,9.1272,8.9945,9.0023,8.9555,8.8696,8.9594,8.854,8.6041,8.608,0.0,8.3465,8.3074,8.2918,8.2879,8.245,8.2293,8.2293,8.2293,8.148,8.0392,0.0,0.0,0.0,0.0,0.0,0.0,0.0,4.7042,4.8289,5.0124,5.0506,5.1006,5.206,5.2032,5.2585,0.0,0.0,0.0,0.0,0.0,0.0,0.0,0.0,0.0,5.0966,0.0,0.0,5.3254,5.4336,0.0,0.0,0.0,0.0,0.0,5.6464,5.6879,5.7592,5.8655,5.9478,0.0,0.0,6.4407,6.4799,0.0,0.0,0.0,0.0,7.4599,7.6512,7.7918,8.0691,8.4007,8.6737,8.7623,8.7801,8.8501,8.8816,8.8976,8.8969,8.9987,9.085,9.0183,8.9594,8.8383,8.5456,8.3699,8.2137,8.0107,7.9405,7.878,7.7609,7.9444,8.0927,8.0107,8.3699,8.7681,9.0843,9.2756,9.4786,9.7401,9.7714,0.0,9.7955,9.7994,0.0,9.9208,9.9091,9.9009,9.9002,9.8182,9.7717,9.7682,9.705,9.584,9.409,9.3033,9.1507,8.9516,9.0531,9.0023,8.827,8.9639,8.8588,8.566,8.6171,0.0,0.0,8.3672,8.3516,8.3437,8.2615,8.2302,8.2302,8.2302,8.1764,8.0992,0.0,0.0,0.0,0.0,0.0,0.0,0.0,4.7042,4.8484,5.0945,5.1873,5.2922,5.4562,5.4156,5.4147,0.0,0.0,0.0,0.0,0.0,0.0,0.0,0.0,0.0,0.0,0.0,0.0,5.2059,5.3834,0.0,0.0,0.0,0.0,0.0,0.0,5.6294,5.6459,5.825,0.0,0.0,0.0,0.0,0.0,0.0,0.0,0.0,0.0,7.3431,7.4129,7.7338,7.8665,7.9597,8.3002,8.6157,8.8597,8.866,8.9255,8.9888,8.9874,8.9997,9.0083,9.003,8.8227,8.6158,8.5065,8.2332,7.999,7.9756,7.8429,7.7531,7.8155,7.7882,7.8311,8.0537,8.2567,8.5612,9.0609,9.2756,9.4786,9.7401,0.0,0.0,9.8791,9.8869,9.9226,10.0098,9.9434,9.8995,9.9002,9.8182,9.7682,9.7698,9.7604,9.6745,9.5004,9.3312,9.2365,9.2131,9.0765,9.0423,9.0943,9.1099,9.013,8.8305,8.7602,0.0,0.0,8.4204,8.3579,8.3501,8.2642,8.229,8.229,8.229,8.1744,8.1002,0.0,0.0,0.0,0.0,0.0,0.0,4.6183,4.7042,4.8669,5.1678,5.1877,5.2727,5.5397,5.5001,5.4869,5.5692,0.0,0.0,0.0,0.0,0.0,0.0,0.0,0.0,0.0,0.0,5.2993,5.3588,5.4323,0.0,0.0,0.0,0.0,0.0,0.0,5.6191,5.6329,5.8087,0.0,0.0,0.0,0.0,0.0,0.0,0.0,0.0,0.0,0.0,7.2811,7.4687,7.6366,7.7927,7.9294,8.2454,8.5924,8.7477,8.8917,9.0128,9.0638,9.154,9.2207,9.1694,8.9193,8.6652,8.5786,8.2933,8.0199,7.9143,7.8786,7.8434,7.7749,7.7779,7.8041,7.8557,7.9645,8.1708,8.5377,8.7329,8.9948,9.4139,9.5076,0.0,0.0,0.0,9.8379,9.8696,9.7915,9.7676,9.8175,9.7391,9.6691,9.6149,9.6144,9.5051,9.2831,9.2124,9.1263,9.0208,9.0052,9.0171,9.0527,9.0527,8.9553,8.7877,8.7018,0.0,0.0,8.4284,8.3893,8.4245,8.2839,8.2292,8.2292,8.2292,8.2061,8.1791,0.0,0.0,0.0,0.0,0.0,4.5636,4.587,4.6835,4.8644,5.171,5.196,5.2819,5.5423,5.5365,5.549,5.6273,5.411,0.0,0.0,0.0,0.0,0.0,0.0,0.0,0.0,0.0,5.4036,5.4746,5.525,5.5792,0.0,0.0,5.6813,5.6643,0.0,0.0,0.0,0.0,0.0,0.0,0.0,0.0,0.0,0.0,0.0,0.0,0.0,0.0,0.0,0.0,0.0,7.6522,7.7029,7.9448,8.2609,8.5457,8.8032,9.0139,9.0765,9.2175,9.3387,9.2761,8.9986,8.7094,8.5952,8.3057,8.0207,7.8718,7.8669,7.8632,7.7677,7.7786,7.7815,7.7204,7.7822,7.9418,8.2266,8.3906,8.6567,9.1263,0.0,9.3806,0.0,9.7648,9.7883,9.7376,9.6985,9.6829,9.6946,9.6399,9.5851,9.5496,9.522,9.4126,9.2098,9.1823,9.108,8.9869,9.022,9.0535,9.0733,9.0224,8.9171,8.7728,8.6595,0.0,0.0,8.4173,8.3977,8.4369,8.2884,8.2299,8.2299,8.2299,8.2301,8.2303,0.0,0.0,0.0,0.0,0.0,0.0,4.4894,4.6371,4.8316,5.0891,5.2479,5.373,5.4636,5.5307,5.6022,5.6907,5.4893,0.0,0.0,0.0,0.0,0.0,0.0,0.0,0.0,0.0,5.4899,5.4899,5.657,5.7392,5.7392,5.8286,5.8598,5.8428,0.0,0.0,0.0,0.0,0.0,0.0,0.0,0.0,6.7996,0.0,0.0,0.0,0.0,0.0,0.0,0.0,0.0,0.0,0.0,7.7763,7.9157,8.2601,8.6672,8.9995,9.0027,9.1281,9.2613,9.2605,8.9986,8.6938,8.5207,8.2159,7.946,7.8591,7.7726,7.7377,7.8213,7.7708,7.7126,7.7097,7.784,7.9596,8.3111,8.4321,8.6157,0.0,0.0,9.1394,9.4878,9.7499,9.8281,9.664,9.7226,0.0,9.5312,9.5234,9.5585,9.6363,9.5536,9.4715,9.3863,9.3037,9.2564,9.2564,9.1705,9.1748,9.2496,9.0778,8.953,0.0,0.0,0.0,0.0,8.3945,8.3594,8.3515,8.2656,8.2304,8.2304,8.2304,8.2304,8.2304,0.0,0.0,0.0,0.0,0.0,0.0,0.0,4.6065,4.7455,5.0546,5.1339,5.258,5.5094,5.6102,5.6714,5.6983,5.4747,0.0,0.0,0.0,0.0,0.0,0.0,0.0,0.0,5.4988,5.5775,5.6482,5.7105,5.7649,5.8148,5.8535,5.8559,5.8361,5.8102,5.8109,0.0,0.0,0.0,0.0,0.0,6.5685,6.6793,0.0,0.0,0.0,0.0,0.0,0.0,0.0,0.0,0.0,0.0,0.0,0.0,7.8816,8.2603,8.6469,8.6512,8.7763,8.878,8.7607,8.6043,8.4518,8.3343,8.1312,7.9438,7.8582,7.7719,7.7211,7.7535,7.7336,7.7293,7.7885,7.8234,7.8972,8.0692,8.3229,0.0,8.8782,9.2731,9.5467,0.0,0.0,9.6172,9.5664,9.5312,9.5117,9.5195,9.4062,9.3281,9.2929,9.3202,9.2694,9.1249,9.1561,9.1717,9.1717,9.1444,9.1444,9.1679,9.0507,8.9218,0.0,0.0,0.0,0.0,8.332,8.3047,8.3515,8.2656,8.2304,8.2304,8.2304,8.2304,8.2304,0.0,0.0,0.0,0.0,0.0,0.0,0.0,4.5908,4.7288,4.997,5.0863,5.2241,5.4923,5.6269,5.7126,5.745,5.6038,0.0,0.0,0.0,0.0,0.0,0.0,0.0,5.5017,5.5904,5.6661,5.7265,5.8053,5.8668,5.9086,5.9529,5.9592,5.9297,5.8988,5.9023,0.0,0.0,0.0,0.0,6.4275,6.5132,6.572,0.0,0.0,0.0,0.0,0.0,0.0,0.0,0.0,0.0,0.0,0.0,0.0,0.0,7.9515,8.2521,8.3616,8.5146,8.6201,8.5146,8.4012,8.2879,8.202,8.0456,7.8974,7.8079,7.7492,7.7023,7.6756,7.695,7.7221,7.742,7.8005,7.8863,8.0035,8.2925,0.0,8.8866,0.0,0.0,0.0,9.5234,9.5429,9.4765,9.4804,9.4844,9.4726,9.3359,9.2187,9.1328,9.1836,9.1601,9.0508,9.1367,9.1797,9.1797,9.1797,9.1601,9.1289,9.039,8.8906,0.0,0.0,0.0,0.0,8.2734,8.2617,8.3047,8.25,8.2304,8.2304,8.2304,8.2304,8.2304,0.0,0.0,0.0,0.0,0.0,0.0,0.0,4.595,4.7588,4.9444,5.0921,5.248,5.432,5.6066,5.7373,5.8123,0.0,0.0,0.0,0.0,0.0,0.0,0.0,0.0,5.5831,5.6846,5.7416,5.7455,5.9266,6.0116,6.0102,6.1023,6.1298,6.0935,6.021,6.0218,0.0,0.0,0.0,0.0,6.3935,6.4694,0.0,0.0,0.0,0.0,0.0,0.0,0.0,0.0,0.0,0.0,0.0,0.0,0.0,0.0,0.0,0.0,0.0,8.3073,8.4403,8.4285,8.3114,8.1786,8.0926,7.952,0.0,7.7295,7.71,7.6906,7.6207,7.6716,7.6951,7.6289,7.7539,7.914,8.0781,8.3398,0.0,0.0,9.1758,0.0,9.1484,9.4375,9.5625,9.4023,9.5273,0.0,9.3789,9.2812,9.1992,9.1211,9.1211,9.125,9.1289,9.2148,9.2617,9.2617,9.2617,9.2109,9.1172,9.0312,8.8515,0.0,0.0,0.0,0.0,8.2304,8.2304,8.2304,8.2304,8.2304,8.2304,8.2304,8.2304,8.2304,0.0,0.0,0.0,0.0,0.0,0.0,0.0,0.0,0.0,0.0,5.077,5.2125,5.5066,5.6962,5.8077,0.0,0.0,0.0,0.0,0.0,0.0,0.0,0.0,0.0,5.5748,5.6647,5.7438,5.8084,5.9297,6.0149,6.0601,6.097,6.1011,6.0834,6.0641,6.0646,0.0,0.0,0.0,0.0,6.4166,6.5011,0.0,0.0,0.0,0.0,6.761,6.907,0.0,0.0,0.0,0.0,0.0,0.0,0.0,0.0,7.5365,7.6192,7.6161,0.0,7.9614,7.8286,7.8638,7.9072,0.0,7.823,7.8155,7.7342,7.7187,7.7304,7.7812,7.75,7.7539,7.8633,7.914,7.9805,8.0859,8.4922,0.0,9.2578,9.3945,9.3984,9.2422,9.3633,9.4336,9.3945,9.3047,9.2344,9.1914,9.0469,8.9844,9.0273,9.0312,9.0625,9.1289,9.2148,9.2617,9.2617,9.2617,9.1797,9.0273,8.9414,8.7617,0.0,0.0,0.0,8.2304,8.2304,8.2304,8.2304,8.2304,8.2304,8.2304,8.2304,8.2304,8.2304,0.0,0.0,0.0,0.0,0.0,0.0,0.0,0.0,0.0,0.0,0.0,5.1818,5.4786,5.6654,0.0,0.0,0.0,0.0,0.0,0.0,0.0,0.0,0.0,5.5895,5.6291,5.7126,5.8011,5.8858,5.9852,6.0702,6.1408,6.1136,6.1155,6.1358,6.0973,6.0781,0.0,0.0,0.0,6.2858,6.4089,0.0,0.0,0.0,0.0,0.0,6.7722,6.9308,0.0,7.2076,7.3546,7.5028,0.0,0.0,0.0,0.0,7.5316,7.5294,7.4597,7.606,7.7492,7.6128,7.6521,7.7195,7.7135,7.6866,7.6753,7.7109,7.6875,7.6758,7.7226,7.7578,7.7969,7.8476,7.9531,8.1015,0.0,0.0,8.9844,9.2929,9.4062,9.4219,0.0,9.3984,9.3984,9.2812,0.0,9.1562,9.0742,8.9804,8.9687,9.0586,9.0195,9.0234,9.0703,9.1562,9.1797,9.1406,9.1406,9.0703,8.9375,8.8515,8.6953,0.0,0.0,0.0,8.2304,8.2304,8.2304,8.2304,8.2304,8.2304,8.2304,8.2304,8.2304,8.2304,0.0,0.0,0.0,0.0,0.0,0.0,0.0,0.0,0.0,0.0,0.0,0.0,0.0,0.0,0.0,0.0,0.0,0.0,0.0,0.0,0.0,0.0,5.6445,5.6175,5.6791,5.7824,5.8644,5.9337,6.0606,6.1601,6.2313,6.1803,6.1811,6.2255,6.1512,6.1089,0.0,0.0,0.0,6.2601,6.4012,0.0,0.0,0.0,0.0,0.0,0.0,0.0,0.0,7.2825,7.3864,7.4658,7.5435,0.0,0.0,0.0,0.0,0.0,7.4601,7.5774,7.6834,7.5701,7.5709,7.6109,7.6629,7.5619,7.5076,7.6679,7.6523,7.6172,7.6445,7.7695,7.8476,7.789,7.9805,8.2656,8.6289,8.8008,8.9765,9.2109,9.3047,0.0,9.3515,9.4062,9.3594,9.164,0.0,9.1484,8.9883,8.9804,9.0156,9.0898,9.0195,8.9804,8.9804,9.0664,9.0742,9.0,9.0,8.9492,8.8476,8.7656,8.6367,8.4648,0.0,0.0,8.2304,8.2304,8.2304,8.2304,8.2304,8.2304,8.2304,8.2304,8.2226,8.207,0.0,0.0,0.0,0.0,0.0,0.0,0.0,0.0,0.0,0.0,0.0,0.0,0.0,0.0,0.0,0.0,0.0,0.0,0.0,0.0,0.0,5.9165,5.7627,5.6522,5.5895,5.7593,5.8538,5.8654,6.1081,6.2654,6.3389,6.3961,6.3829,6.3128,6.2974,6.2551,6.1908,6.2062,0.0,6.4243,6.4512,0.0,0.0,0.0,0.0,0.0,0.0,0.0,0.0,7.2518,7.3137,7.3845,7.4208,0.0,0.0,0.0,0.0,0.0,7.4355,7.5699,7.6546,7.4271,7.5323,7.6579,7.5267,7.4762,7.488,7.5898,7.6562,7.7422,7.8867,7.9336,7.9726,8.0312,8.1992,8.4648,0.0,0.0,9.0234,9.1367,0.0,9.1719,9.1719,9.1133,9.125,0.0,0.0,8.9961,8.8945,8.8906,8.8945,8.9101,8.8984,8.8906,8.8906,8.9765,9.0117,9.0,9.0,8.9179,8.7656,8.6797,8.5469,8.375,0.0,8.2422,8.2304,8.2304,8.2304,8.2304,8.2304,8.2304,8.2304,8.2304,8.1836,8.1015,0.0,0.0,0.0,0.0,0.0,0.0,0.0,0.0,0.0,0.0,0.0,0.0,0.0,0.0,0.0,0.0,0.0,0.0,0.0,0.0,5.9511,5.8204,5.7407,5.7022,5.7088,5.8008,5.8931,5.986,6.2098,6.3844,6.5123,6.5511,6.5157,6.4251,6.3787,6.3361,6.3022,6.3022,6.3748,6.4861,0.0,0.0,0.0,0.0,0.0,0.0,0.0,0.0,0.0,0.0,7.3375,7.4342,7.4084,0.0,0.0,0.0,0.0,0.0,7.3738,7.5093,7.6044,7.4404,7.5927,7.7607,7.6831,7.5936,7.5663,7.7031,7.7265,7.7695,7.9375,8.0859,8.2539,8.4804,0.0,8.7578,8.9101,8.9687,8.9961,0.0,0.0,9.1094,9.0625,9.0664,9.0859,0.0,0.0,0.0,8.875,8.9609,8.9687,8.8711,8.8711,8.8476,8.8047,8.75,8.7734,8.8633,8.8164,8.7539,8.6758,8.539,8.4375,8.3554,0.0,8.2304,8.2304,8.2304,8.2304,8.2304,8.2304,8.2304,8.2226,8.1758,8.1328,8.082,0.0,0.0,0.0,0.0,0.0,0.0,0.0,0.0,0.0,0.0,0.0,0.0,0.0,0.0,0.0,0.0,0.0,0.0,0.0,5.8396,5.8665,5.7368,5.7291,5.7511,5.7973,5.8317,5.9461,6.1363,6.3245,6.5259,6.7313,6.7037,6.6485,6.5637,6.4581,6.4114,6.4114,6.4122,6.4627,6.5404,0.0,0.0,0.0,0.0,0.0,0.0,0.0,0.0,0.0,0.0,0.0,0.0,0.0,0.0,0.0,7.3899,7.3296,7.2876,7.3464,7.472,7.5776,7.531,7.6521,7.7927,7.8318,7.7109,7.6523,7.8633,7.8555,7.8555,8.0039,8.2109,8.4609,8.7617,8.9179,8.9765,8.9101,8.9922,9.0195,8.914,9.0,9.0508,9.0039,9.0234,0.0,0.0,0.0,0.0,8.8476,9.0078,9.0195,8.8476,8.8437,8.8047,8.7187,8.5859,8.5781,8.6875,8.6211,8.5781,8.5547,8.4219,8.3476,8.3242,8.2578,8.2304,8.2304,8.2304,8.2304,8.2304,8.2304,8.2187,8.1875,8.1015,8.0586,8.0273,0.0,0.0,0.0,0.0,0.0,0.0,0.0,0.0,0.0,0.0,0.0,0.0,0.0,0.0,0.0,0.0,0.0,0.0,0.0,5.7857,5.8319,5.8204,5.8204,5.7857,5.7099,5.8018,5.98,6.2405,6.4282,6.6863,7.008,6.8963,6.8074,6.7332,6.5732,6.4993,6.5001,6.5008,6.5528,6.6288,6.6295,0.0,0.0,0.0,0.0,0.0,0.0,0.0,0.0,0.0,0.0,0.0,0.0,0.0,7.2068,7.2144,7.2109,7.2421,7.4062,7.5195,7.6094,7.6836,7.6523,7.6482,7.8125,7.7148,7.6836,8.0156,8.0781,8.1015,8.1953,8.2929,8.4219,8.6094,8.8437,8.9961,8.9922,0.0,9.1797,9.0117,8.9297,8.9179,8.9922,8.8633,0.0,0.0,0.0,0.0,8.7656,8.9179,8.9336,8.7656,8.7578,8.7187,8.6289,8.6172,8.5742,8.5078,8.5039,8.457,8.3789,8.3672,8.3164,8.2383,8.2344,8.2304,8.2304,8.2304,8.2304,8.2304,8.2304,8.1797,8.0976,8.0117,7.9336,7.8555,0.0,0.0,0.0,0.0,0.0,0.0,0.0,0.0,0.0,0.0,0.0,0.0,0.0,0.0,0.0,0.0,0.0,0.0,0.0,5.6203,5.6934,5.7473,5.6973,5.7049,5.778,5.8781,6.0321,6.2375,6.5295,6.7651,6.9441,6.8006,6.6938,6.6151,6.5631,6.5424,6.5424,6.5948,6.6346,6.6666,6.6691,6.6703,0.0,0.0,0.0,0.0,0.0,0.0,0.0,0.0,7.1663,7.2305,7.1475,7.1912,7.2652,7.2148,7.1992,7.2148,7.2812,7.4414,7.5859,7.5625,7.6132,7.7148,7.8867,7.957,8.0234,8.1523,8.2656,8.3672,8.457,8.5429,8.6562,8.8281,9.0273,9.1445,9.0898,9.1367,9.1367,9.0156,8.9219,8.8828,8.914,0.0,0.0,0.0,0.0,0.0,8.8281,8.9375,8.9219,8.7539,8.6953,8.6289,8.539,8.4336,8.3594,8.3281,8.3828,8.3633,8.2773,8.2773,8.2304,8.1523,8.207,8.2304,8.2304,8.2304,8.2304,8.2304,8.2304,8.1758,8.0898,8.0039,7.918,7.8437,0.0,0.0,0.0,0.0,0.0,0.0,0.0,0.0,0.0,0.0,0.0,0.0,0.0,0.0,0.0,0.0,0.0,0.0,5.3772,5.4805,5.5653,5.6231,5.6462,5.7125,5.828,5.9472,6.1099,6.3119,6.6346,6.8139,6.8474,6.7159,6.6368,6.6108,6.5754,6.59,6.6412,6.6692,6.6815,6.6821,6.687,6.6912,0.0,0.0,0.0,0.0,0.0,0.0,0.0,0.0,7.1768,7.2505,7.1443,7.1914,7.2773,7.2187,7.1992,7.1992,7.1992,7.3515,7.4922,7.4336,7.5703,7.7695,7.9687,8.125,8.2617,8.3711,8.4687,8.5312,8.5351,8.6094,8.7148,0.0,9.0469,9.1562,9.0976,9.0898,9.0586,8.9687,8.8828,8.832,0.0,0.0,0.0,0.0,0.0,0.0,0.0,8.8984,8.8711,8.6758,8.6367,8.5664,8.4492,8.332,8.2578,8.2304,8.289,8.289,8.2304,8.2304,8.1953,8.1445,8.2031,8.2304,8.2304,8.2304,8.2304,8.2304,8.2304,8.1601,8.0508,7.9922,7.9023,7.8086,0.0,0.0,0.0,0.0,0.0,0.0,0.0,0.0,0.0,0.0,0.0,0.0,0.0,0.0,0.0,0.0,0.0,0.0,5.2382,5.3778,5.4658,5.4602,5.7077,5.8423,5.828,5.9935,6.215,6.49,6.7433,6.8316,6.7627,6.6695,6.686,6.7784,6.6262,6.6529,6.8023,6.7164,6.6823,6.6872,6.6911,6.6913,6.6914,0.0,0.0,0.0,0.0,0.0,0.0,0.0,7.1906,7.1802,7.1951,7.1992,7.2031,7.1992,7.1992,7.1992,7.1992,7.2617,7.3281,7.332,7.5273,7.7851,8.039,8.1679,8.3281,8.6797,8.6797,8.5664,8.3945,8.4336,0.0,8.6054,8.832,8.9961,8.9961,8.9961,8.9648,8.8789,8.7969,0.0,0.0,0.0,0.0,0.0,0.0,0.0,0.0,8.7773,8.75,8.4961,8.5742,8.5351,8.3633,8.3594,8.3164,8.2304,8.2304,8.2304,8.2304,8.2304,8.2304,8.2304,8.2304,8.2304,8.2304,8.2304,8.2304,8.2304,8.2304,8.1211,7.9687,7.9687,7.8633,7.7187,0.0,0.0,0.0,0.0,0.0,0.0,0.0,0.0,0.0,0.0,0.0,0.0,0.0,0.0,0.0,0.0,0.0,0.0,5.381,5.3137,5.3523,5.5296,5.5566,5.6498,5.8242,6.055,6.2406,6.3785,6.5134,6.5451,6.482,6.4621,6.4447,6.4333,6.5197,6.5531,6.5495,6.6475,6.6518,6.6052,6.664,6.6914,6.6914,0.0,0.0,0.0,0.0,0.0,0.0,0.0,0.0,0.0,7.1289,7.2344,7.3476,7.164,7.1953,7.2656,7.1406,7.1719,7.2695,7.3906,7.5703,7.7695,7.9648,8.1719,8.4023,8.6914,8.6328,8.5312,8.539,8.5625,0.0,8.6172,8.7344,8.8242,8.8242,8.8242,8.8164,8.789,8.7109,0.0,0.0,0.0,0.0,0.0,0.0,0.0,0.0,8.5742,8.5664,8.4922,8.457,8.4101,8.3594,8.3008,8.2578,8.2304,8.2304,8.1992,8.1406,8.2031,8.1953,8.1406,8.2031,8.2304,8.2304,8.2304,8.2304,8.2226,8.164,8.0703,7.9648,7.9062,7.8164,7.7187,0.0,0.0,0.0,0.0,0.0,0.0,0.0,0.0,0.0,0.0,5.4703,5.5052,0.0,0.0,0.0,0.0,0.0,0.0,0.0,5.3252,5.3716,5.5249,5.5798,5.7107,5.9242,6.1151,6.2163,6.2355,6.3549,6.3792,6.3119,6.3976,6.4137,6.3885,6.5755,6.6124,6.5385,6.6442,6.6404,6.5663,6.6172,6.6601,6.6914,0.0,0.0,0.0,0.0,0.0,0.0,0.0,0.0,0.0,7.1367,7.207,7.289,7.1992,7.1758,7.1875,7.2187,7.2383,7.3008,7.5117,7.6914,7.8633,8.0351,8.2773,8.5273,8.75,8.6875,8.5976,8.6172,8.6211,0.0,8.6211,8.6914,8.7617,8.7929,8.7383,8.7109,8.7461,8.6406,0.0,0.0,0.0,0.0,0.0,0.0,0.0,0.0,8.4726,8.457,8.3906,8.3672,8.3437,8.3086,8.2578,8.2304,8.2304,8.2304,8.2031,8.1523,8.207,8.1992,8.1562,8.207,8.2109,8.1797,8.1797,8.1562,8.1211,8.0703,7.9961,7.914,7.8672,7.7969,7.7187,0.0,0.0,0.0,0.0,0.0,0.0,0.0,0.0,0.0,0.0,5.3895,5.4515,0.0,0.0,0.0,0.0,0.0,0.0,0.0,5.3794,5.4641,5.477,5.7214,5.9253,6.0639,6.1532,6.1631,6.0911,6.249,6.2931,6.2263,6.4181,6.5148,6.5283,6.7088,6.7416,6.6678,6.6678,6.6171,6.539,6.5547,6.6015,6.668,6.6758,0.0,0.0,0.0,0.0,0.0,0.0,0.0,0.0,7.1914,7.1445,7.1211,7.2578,7.1406,7.043,7.3633,7.3867,7.3867,7.6719,7.8672,8.0351,8.2031,8.4258,8.6406,8.8008,8.789,8.7226,8.6367,8.6211,8.6172,8.6094,8.6758,8.7539,8.8242,8.7031,8.6367,8.707,0.0,0.0,0.0,0.0,0.0,0.0,0.0,0.0,0.0,8.4219,8.3945,8.2344,8.3086,8.3086,8.2304,8.2304,8.2304,8.2304,8.2304,8.2304,8.2304,8.2226,8.2187,8.2187,8.2265,8.1797,8.1015,8.1015,8.0508,7.9687,7.9609,7.914,7.8476,7.8398,7.789,7.7187,0.0,0.0,0.0,0.0,0.0,0.0,0.0,0.0,0.0,0.0,0.0,0.0,0.0,0.0,0.0,0.0,0.0,0.0,0.0,5.3716,5.412,5.543,5.7923,5.9441,5.9781,6.0639,6.102,6.0911,6.1957,6.2133,6.1545,6.333,6.4314,6.4562,6.5662,6.5664,6.4843,6.4843,6.4375,6.3672,6.5039,6.5312,6.4922,6.5625,6.5898,0.0,0.0,0.0,0.0,0.0,0.0,0.0,7.1211,7.1797,7.2422,7.0781,7.0859,7.1758,7.3203,7.293,7.3398,7.8008,8.0469,8.2031,8.3086,8.375,8.4453,8.5508,8.6679,8.7226,8.6367,8.6211,8.5976,8.5273,8.5351,8.5508,8.5703,8.539,8.5,0.0,0.0,0.0,0.0,0.0,0.0,0.0,0.0,0.0,8.2578,8.2773,8.2695,8.2304,8.2461,8.25,8.2304,8.2304,8.2304,0.0,8.2304,8.2304,8.2265,8.1601,8.1289,8.1328,8.1992,8.1797,8.1015,8.1015,8.0508,7.9648,7.8984,7.8633,7.8437,7.7734,7.7344,7.7187,0.0,0.0,0.0,0.0,0.0,0.0,0.0,0.0,0.0,0.0,0.0,0.0,0.0,0.0,0.0,0.0,0.0,0.0,0.0,0.0,5.578,5.7434,5.9204,6.0127,6.0127,6.0623,6.0888,6.0944,6.1394,6.1509,6.1312,6.2673,6.3442,6.3749,6.5039,6.4883,6.3711,6.4101,6.3789,6.3086,6.3984,6.4336,6.4336,6.4805,6.4961,6.5039,6.5469,0.0,0.0,0.0,0.0,0.0,0.0,0.0,7.1328,7.0859,7.1015,7.1914,7.4492,7.4844,7.5547,7.9844,8.164,8.2422,8.2851,8.3281,8.3711,8.4179,8.5312,8.6133,8.5664,8.5586,8.5429,8.4961,8.4883,8.4883,8.4883,8.4531,0.0,0.0,0.0,0.0,0.0,0.0,0.0,0.0,0.0,8.2304,8.2304,8.2304,8.2304,8.2304,8.2304,8.2304,8.2304,8.2304,8.2304,8.2304,8.2304,8.1875,8.1054,8.1445,8.1172,8.0429,8.1289,8.0976,7.9765,7.9336,7.8672,7.7812,7.6953,7.6875,7.7187,7.6758,7.6836,7.7187,0.0,0.0,0.0,0.0,0.0,0.0,0.0,0.0,0.0,0.0,0.0,0.0,0.0,0.0,0.0,0.0,0.0,0.0,0.0,0.0,0.0,5.9242,6.0242,6.0781,6.0781,6.0827,6.0933,6.0987,6.1,6.1264,6.174,6.239,6.2765,6.3003,6.4448,6.4294,6.3007,6.3593,6.3437,6.2773,6.293,6.3359,6.3867,6.4023,6.4062,6.418,6.4883,6.5898,6.6992,6.7734,0.0,0.0,0.0,0.0,6.9492,7.0937,7.082,7.1133,7.5195,7.6836,7.8203,8.1484,8.2304,8.2304,8.2304,8.2851,8.3398,8.3398,8.4179,8.4844,8.4687,8.4687,8.4648,8.4492,8.4453,8.4453,8.4453,8.3828,0.0,0.0,0.0,0.0,0.0,0.0,0.0,0.0,0.0,8.2304,8.2304,8.2304,8.2304,8.2304,8.2304,8.2304,8.2304,8.2148,8.1992,8.1836,8.1719,8.0898,7.9531,8.1133,8.0976,7.9531,8.039,7.9805,7.8203,7.75,7.6601,7.5586,7.4883,7.5039,7.5703,7.5859,7.6367,7.6992,0.0,0.0,0.0,0.0,0.0,0.0,0.0,0.0,0.0,0.0,5.2731,5.3241,0.0,0.0,0.0,0.0,0.0,0.0,5.4511,0.0,0.0,5.8434,5.9973,6.0781,6.0781,6.0793,6.0888,6.0987,6.0997,6.1833,6.3454,6.2892,6.2669,6.2742,6.2976,6.3013,6.2863,6.2238,6.1942,6.1953,6.2695,6.2617,6.2148,6.289,6.3164,6.3203,6.332,6.4883,6.6914,6.7031,6.8164,0.0,0.0,0.0,6.8398,6.8633,6.8633,6.914,7.1953,7.5469,7.8984,8.164,8.2304,8.2304,8.2304,8.2383,8.2461,8.2461,8.3789,8.4687,8.3906,8.3789,8.3515,8.2773,8.2656,8.2656,8.2656,0.0,0.0,0.0,0.0,0.0,0.0,0.0,0.0,0.0,8.2304,8.2304,8.2304,8.2304,8.2304,8.2304,8.2304,8.2304,8.2304,8.1562,8.0781,8.0039,7.9336,7.8906,7.8672,7.9609,7.9531,7.8711,7.9531,7.8906,7.7344,7.7265,7.625,7.4765,7.4648,7.4687,7.4883,7.5625,7.5976,7.6172,0.0,0.0,0.0,0.0,0.0,0.0,0.0,0.0,0.0,0.0,0.0,5.2856,0.0,0.0,0.0,5.3164,5.401,5.4895,5.5829,5.6934,5.7973,5.8934,5.9665,6.0281,6.0781,6.0854,6.0911,6.0987,6.099,6.194,6.3761,6.3886,6.4022,6.4135,6.3668,6.3214,6.2852,6.1954,6.1354,6.1015,6.1406,6.1055,6.039,6.1211,6.1523,6.168,6.2656,6.375,6.4805,6.5273,6.5937,6.6523,6.6133,0.0,0.0,0.0,6.8476,7.039,7.3945,7.668,7.9101,8.164,8.2304,8.2304,8.2304,8.2304,8.2304,8.2304,8.289,8.332,8.2929,8.2851,8.2734,8.2344,8.2304,8.2304,8.2304,0.0,0.0,0.0,0.0,0.0,0.0,0.0,0.0,0.0,8.2304,8.2304,8.2304,8.2304,8.207,8.1601,8.1094,8.0859,8.0859,7.9531,7.8672,7.8281,7.793,7.7539,7.707,7.7422,7.7656,7.7812,7.8672,7.832,7.7109,7.6133,7.5273,7.4492,7.3515,7.3437,7.3984,7.4844,7.5469,7.6015,0.0,0.0,0.0,0.0,0.0,0.0,0.0,0.0,0.0,0.0,0.0,0.0,0.0,0.0,0.0,0.0,5.3664,5.478,5.6291,5.6753,5.7676,5.9127,5.9407,5.9919,6.0804,6.09,6.0955,6.1018,6.0982,6.2152,6.4338,6.4986,6.5717,6.6445,6.516,6.4072,6.3104,6.2067,6.1393,6.1015,6.0351,5.9726,5.9297,6.0078,6.0273,6.0312,6.2031,0.0,0.0,0.0,6.4101,6.4297,6.4297,6.5195,0.0,0.0,0.0,7.0586,7.4492,7.6367,7.7851,8.0625,8.164,8.2031,8.2265,8.2304,8.2304,0.0,8.2304,8.2304,8.2304,8.2304,8.2226,8.1992,8.2148,8.2226,8.1992,0.0,0.0,0.0,0.0,0.0,0.0,0.0,0.0,0.0,8.2304,8.2304,8.2304,8.2109,8.1562,8.0703,7.9844,7.9297,7.9062,7.7383,7.6523,7.6523,7.6523,7.6328,7.5898,7.5898,7.625,7.6914,7.7578,7.7461,7.6758,7.5469,7.4687,7.414,7.2851,7.2734,7.3398,7.4297,7.5156,7.6015,0.0,0.0,0.0,0.0,0.0,0.0,0.0,0.0,0.0,0.0,0.0,0.0,5.4395,5.3703,5.2856,5.2038,5.2769,5.3664,5.4549,5.6137,5.7407,5.8319,5.9144,0.0,6.0872,6.0955,6.1018,6.1002,6.1002,6.2732,6.6069,6.6108,6.7433,6.9631,6.7338,6.5401,6.3852,6.2284,6.2096,6.2656,6.0234,5.9258,5.9297,6.0078,5.9922,5.9492,6.1172,0.0,0.0,0.0,0.0,0.0,0.0,6.4375,6.4609,0.0,0.0,0.0,7.0312,7.2265,7.4414,7.7851,7.9883,8.1289,8.2109,8.2304,8.2304,8.2304,8.2304,8.2304,8.2304,8.2304,8.2031,8.1211,8.1758,8.1992,8.1172,0.0,0.0,0.0,0.0,0.0,0.0,0.0,0.0,0.0,8.2304,8.2304,8.2304,8.1523,8.0664,7.9805,7.8984,7.8164,7.7344,7.5586,7.4726,7.4726,7.4726,7.5156,7.5898,7.5898,7.5937,7.5976,7.6015,7.6015,7.5976,7.5859,7.4844,7.3359,7.3281,7.3242,7.3398,7.4297,7.5156,7.6015,0.0,0.0,0.0,0.0,0.0,0.0,0.0,0.0,0.0,0.0,0.0,0.0,0.0,5.4972,5.4472,5.3626,5.3857,5.4395,5.5203,5.5818,5.6802,5.822,5.8588,5.9468,6.0927,6.098,6.0982,6.1002,6.1041,6.2259,6.4599,6.518,6.5915,6.6776,6.6536,6.5754,6.4578,6.2496,6.1458,6.108,5.9139,5.8047,5.75,5.7226,5.7305,0.0,0.0,0.0,0.0,0.0,0.0,0.0,0.0,0.0,0.0,6.4492,6.5,6.5937,6.9062,7.0351,7.1758,7.582,7.8125,7.9492,7.9805,8.1133,8.2148,8.1562,8.1914,8.2304,8.2304,8.2304,8.1992,8.1133,8.1719,8.1992,0.0,0.0,0.0,0.0,0.0,0.0,0.0,0.0,0.0,0.0,0.0,8.207,8.1484,8.0625,7.9531,7.8125,7.6719,7.5312,7.3867,7.3789,7.3476,7.293,7.293,7.3398,7.4219,7.3633,7.4023,7.5039,7.4453,7.4883,7.5898,7.5898,7.5547,7.4922,7.4336,7.414,7.4258,7.5117,7.5625,7.6015,0.0,0.0,0.0,0.0,0.0,0.0,0.0,0.0,0.0,5.4298,0.0,0.0,0.0,0.0,5.5472,5.4934,5.5164,5.5434,5.5665,5.6242,5.711,5.8269,5.8588,5.943,6.0927,6.1,6.0886,6.0577,6.0664,6.1427,6.282,6.34,6.4174,6.4996,6.479,6.4853,6.5038,6.2921,6.1729,6.1001,5.8788,5.7734,5.7461,5.7461,0.0,0.0,0.0,0.0,0.0,0.0,0.0,0.0,0.0,0.0,0.0,0.0,6.4062,6.4805,6.7148,6.8359,6.9961,7.4023,7.5898,7.7226,7.8945,8.0195,8.1015,8.1015,8.1679,8.2304,8.2304,8.207,8.1562,8.0703,8.1289,8.1445,0.0,0.0,0.0,0.0,0.0,0.0,0.0,0.0,0.0,0.0,0.0,0.0,8.1054,7.9922,7.8242,7.5976,7.4492,7.3164,7.1992,7.2578,7.2578,7.1992,7.2305,7.2734,7.3281,7.2695,7.3086,7.414,7.3555,7.4297,7.5898,7.5898,7.5898,7.5859,7.5273,7.5039,7.5117,7.5703,7.6094,7.6406,0.0,0.0,0.0,0.0,0.0,0.0,0.0,0.0,5.4434,5.4501,0.0,0.0,0.0,0.0,0.0,5.578,5.656,5.6676,5.5818,5.7357,5.8319,5.8357,5.9144,6.0025,6.0872,6.099,6.0616,5.9804,5.9852,6.0267,6.1031,6.1041,6.2394,6.4725,6.2315,6.2704,6.5041,6.3449,6.2835,6.2656,5.9258,5.8398,5.9336,0.0,0.0,0.0,6.2226,6.2344,0.0,6.0703,0.0,0.0,0.0,0.0,0.0,0.0,0.0,6.4219,0.0,0.0,0.0,7.2226,7.3125,7.4492,7.9531,7.9492,7.8867,8.0586,8.1601,8.2187,8.2265,8.1562,8.0703,7.9805,8.039,8.039,0.0,0.0,0.0,0.0,0.0,0.0,0.0,0.0,0.0,0.0,8.1797,8.1875,8.1015,7.9336,7.6875,7.3437,7.2539,7.207,7.2031,7.2031,7.2031,7.1992,7.2812,7.3242,7.3281,7.3242,7.3242,7.3281,7.3281,7.4258,7.582,7.5898,7.5937,7.5937,7.5937,7.5937,7.5937,7.5937,7.6484,7.7187,0.0,0.0,0.0,0.0,0.0,5.7003,5.6906,5.6983,5.7057,0.0,0.0,0.0,5.6676,5.6637,5.6896,5.755,5.7819,5.7857,5.7588,5.805,5.8561,5.9221,5.9474,6.0036,6.0965,6.0997,6.0594,5.9716,5.9765,5.9543,5.9157,5.9196,5.9949,6.1225,6.0583,6.0724,6.1421,6.0464,6.0771,6.1609,5.8978,5.8047,0.0,0.0,0.0,0.0,0.0,5.9922,6.082,0.0,6.1758,6.2305,0.0,0.0,0.0,0.0,0.0,0.0,6.3203,0.0,0.0,0.0,0.0,0.0,7.3086,7.4648,7.6367,7.8711,7.9375,7.9922,8.1133,8.1172,8.0508,7.9062,7.9531,7.9687,0.0,0.0,0.0,0.0,0.0,0.0,0.0,0.0,0.0,0.0,8.1211,8.0976,8.0117,7.7851,7.5898,7.4297,7.4023,7.3594,7.2969,7.293,7.2617,7.1992,7.1601,7.207,7.3242,7.1992,7.2109,7.3242,7.2617,7.3008,7.4101,7.539,7.6289,7.6836,7.6836,7.6836,7.6836,7.6836,7.6992,7.7305,0.0,0.0,0.0,5.7375,5.7779,5.8144,5.7989,5.8323,5.8476,0.0,0.0,0.0,5.7588,5.8165,5.8627,5.8781,5.9127,5.9204,5.8819,5.9127,5.9407,5.9557,5.9914,6.0349,6.0883,6.0944,6.0338,5.9114,5.9135,5.8528,5.7371,5.74,5.7892,5.8694,5.8412,5.8686,5.9359,5.8296,5.9034,6.0779,5.9134,0.0,0.0,5.8359,5.8515,0.0,0.0,0.0,6.2422,6.1484,6.1758,0.0,0.0,0.0,0.0,0.0,0.0,0.0,0.0,0.0,0.0,0.0,0.0,0.0,7.1172,7.2109,7.3398,0.0,7.7422,7.7812,7.918,7.9414,7.9101,7.8125,7.8359,7.8476,0.0,0.0,0.0,0.0,0.0,0.0,0.0,8.0781,8.0703,8.0,7.9961,7.9414,7.8164,7.6367,7.4961,7.4101,7.3711,7.3281,7.2773,7.2773,7.2305,7.1445,7.1328,7.1562,7.2187,7.1523,7.1797,7.2734,7.2226,7.25,7.3398,7.4805,7.5859,7.664,7.664,7.6875,7.7187,7.7187,7.7187,7.7265,0.0,0.0,5.813,5.7816,5.8425,5.8851,5.8603,5.9166,5.9383,0.0,5.8812,5.8896,5.9011,6.0165,6.0704,6.0127,6.0512,6.0512,5.9819,6.0435,6.0435,5.9665,6.0396,6.0781,6.0781,6.0877,6.0052,5.8308,5.8361,5.7544,5.5885,5.5885,5.631,5.7013,5.6202,5.6771,5.8226,5.6827,5.7688,5.9924,5.9292,5.9922,0.0,0.0,6.1758,6.2422,6.2422,6.3476,6.4453,6.1523,6.1055,0.0,0.0,0.0,0.0,0.0,6.2383,0.0,0.0,0.0,0.0,0.0,0.0,0.0,7.1289,7.0624,7.0233,0.0,7.5077,7.5312,7.6404,7.6679,7.6719,7.664,7.6953,7.7226,0.0,0.0,0.0,0.0,0.0,0.0,7.9883,8.0508,8.0312,7.8633,7.8515,7.7773,7.6133,7.5312,7.4492,7.3633,7.2851,7.2344,7.2148,7.2148,7.164,7.0703,7.1484,7.1445,7.0742,7.1484,7.1914,7.1992,7.1992,7.25,7.3359,7.414,7.4961,7.5781,7.5976,7.6445,7.707,7.7148,7.7187,7.7226,0.0,5.9703,5.9792,6.0622,6.1048,6.1437,6.1934,6.1697,6.1671,6.2145,6.2271,6.2589,6.3281,6.2474,6.232,6.3512,6.1897,6.1012,6.1562,6.1089,6.0704,6.055,6.0704,6.0781,6.0781,6.0793,5.9996,5.8292,5.8303,5.7429,5.5735,5.5787,5.5933,5.6058,5.521,5.5489,5.6518,5.6362,0.0,5.8102,5.8046,0.0,5.8633,5.8633,5.875,5.8906,5.8906,5.957,6.0547,6.1211,6.1562,6.1758,0.0,0.0,0.0,0.0,0.0,0.0,0.0,0.0,0.0,0.0,0.0,0.0,6.6182,6.6558,6.7751,0.0,6.9897,7.0152,7.2377,7.3498,7.3827,7.3067,7.5347,7.7422,0.0,0.0,0.0,0.0,0.0,0.0,7.9883,8.0508,8.0312,7.8633,7.8515,7.8047,7.6992,7.6797,7.6289,7.543,7.5234,7.4453,7.3047,7.3047,7.2265,7.0703,7.0859,7.0859,7.0703,7.0898,7.1328,7.1992,7.1992,7.25,7.332,7.3476,7.4062,7.5,7.6406,7.6601,7.625,7.6953,7.7187,7.7383,6.037,6.0332,6.0571,6.1576,6.2142,6.2757,6.3573,6.3424,6.3566,6.4385,6.4552,6.4436,6.4012,6.3205,6.2897,6.332,6.1781,6.0973,6.1396,6.105,6.0781,6.0781,6.0781,6.0781,6.0781,6.0781,6.0165,5.8896,5.8511,5.7627,5.6329,5.5927,5.5304,5.4564,5.461,5.4448,5.4204,5.5225,5.5922,5.6482,5.7439,0.0,5.8515,5.8086,5.8164,5.8554,5.8554,5.9101,5.9921,6.0781,6.164,0.0,0.0,6.2265,6.3476,0.0,6.2969,6.3633,0.0,0.0,0.0,6.4296,0.0,0.0,0.0,6.5049,6.5461,6.793,6.7452,6.7243,6.9392,7.0264,7.0808,7.118,7.3509,7.5703,0.0,0.0,0.0,0.0,0.0,0.0,7.9883,8.0117,7.9492,7.7344,7.7617,7.7461,7.6601,7.6562,7.6133,7.5273,7.4844,7.3984,7.2656,7.2656,7.1992,7.0703,7.1133,7.1133,7.0703,7.1133,7.1601,7.1992,7.1992,7.2265,7.2695,7.3125,7.3281,7.3515,7.5703,7.6289,7.6015,7.6875,7.7187,7.7383,6.0506,6.0559,6.0904,6.1748,6.2567,6.3501,6.4498,6.4576,6.4808,6.5718,6.5987,6.5705,6.4666,6.3935,6.3551,6.3563,6.1704,6.0843,6.1543,6.0965,6.0602,6.0646,6.08,6.08,6.0646,6.0757,6.0333,5.9335,5.8676,5.7829,5.6801,5.6107,5.5085,5.3858,5.4304,5.404,5.3359,5.4363,5.5124,5.5814,0.0,5.8086,5.8594,5.7734,5.7851,5.8436,5.8436,5.8982,5.9725,6.0232,6.1445,6.2461,6.0703,6.2578,0.0,0.0,0.0,0.0,0.0,0.0,0.0,0.0,0.0,6.4475,0.0,0.0,0.0,6.6083,6.5475,0.0,0.0,0.0,0.0,0.0,0.0,0.0,0.0,0.0,0.0,0.0,0.0,0.0,7.9609,7.9023,7.8008,7.6289,7.6484,7.6523,7.6172,7.6133,7.5664,7.4648,7.3906,7.2969,7.1758,7.1758,7.1328,7.0469,7.1328,7.1367,7.0742,7.1601,7.1992,7.1992,7.1992,7.2109,7.2305,7.3008,7.289,7.25,7.4922,7.5781,7.5781,7.6836,7.7187,7.7305,6.0585,6.0635,6.0929,6.1671,6.2606,6.3809,6.5409,6.5039,6.4885,6.5769,6.6513,6.7475,6.8821,6.6282,6.5628,6.859,0.0,0.0,6.4152,0.0,5.9955,6.0111,6.0786,6.0825,6.0111,6.0661,6.0274,5.8799,5.857,5.7719,5.6206,5.6089,5.5973,5.5708,5.4324,5.4899,5.6763,5.4775,5.5269,0.0,5.6944,5.6796,0.0,5.5937,5.5664,5.5742,5.5741,5.6287,5.7381,0.0,6.1054,6.207,0.0,6.4062,6.4687,0.0,0.0,0.0,0.0,0.0,0.0,0.0,6.7142,0.0,0.0,0.0,6.3612,6.2289,0.0,0.0,0.0,0.0,0.0,0.0,0.0,0.0,0.0,0.0,0.0,0.0,0.0,0.0,0.0,7.6523,7.5703,7.6953,7.5703,7.5547,7.6992,7.7031,7.6289,7.4648,7.4492,7.3281,7.0859,7.0859,7.043,6.9648,7.0469,7.0781,7.0742,7.1601,7.1992,7.1992,7.1992,7.2422,7.3164,7.3242,7.3242,7.3359,7.5195,7.543,7.4961,7.6601,7.7187,7.7305,6.0648,6.0697,6.1003,6.1824,6.2322,6.35,6.6128,6.7962,6.859,6.7513,6.8475,6.959,7.0321,0.0,0.0,0.0,0.0,6.3234,0.0,0.0,6.1083,6.0713,6.1031,6.1031,6.072,6.0492,6.0104,5.9431,5.8396,5.7504,5.6829,5.6842,5.6343,5.5417,5.5247,5.5244,5.5346,5.5396,5.5786,0.0,0.0,0.0,0.0,5.6171,5.5702,5.5308,5.5779,5.6209,5.6795,0.0,6.0507,0.0,0.0,0.0,0.0,0.0,0.0,0.0,0.0,0.0,0.0,0.0,0.0,0.0,0.0,0.0,6.2528,0.0,0.0,0.0,0.0,0.0,0.0,0.0,6.6145,0.0,0.0,0.0,0.0,0.0,0.0,0.0,0.0,0.0,0.0,0.0,7.5,7.5156,7.6367,7.6914,7.6172,7.3906,7.3867,7.2617,7.0039,7.0,7.0078,7.0195,7.0547,7.1211,7.2187,7.207,7.2265,7.2734,7.2226,7.2226,7.2539,7.2539,7.2539,7.2734,7.4453,7.4922,7.4805,7.6562,7.7187,7.7305,6.1375,6.1065,6.105,6.1947,6.2101,6.3178,6.6282,6.9052,7.0321,6.8936,6.9629,7.0552,7.1514,6.9706,0.0,0.0,6.7552,6.53,0.0,0.0,6.195,0.0,0.0,0.0,0.0,6.0364,6.0086,6.0127,5.8575,5.7836,5.787,5.7876,5.7225,5.6067,5.6515,5.6156,5.5305,5.6211,5.6344,5.6032,5.7054,5.7194,5.6692,5.6307,5.5607,5.489,5.5716,5.6073,5.6393,5.8007,6.0195,0.0,6.164,0.0,0.0,0.0,0.0,0.0,6.5542,0.0,0.0,0.0,0.0,0.0,0.0,0.0,0.0,0.0,0.0,0.0,0.0,0.0,0.0,0.0,0.0,6.5073,0.0,0.0,0.0,0.0,0.0,0.0,0.0,0.0,0.0,0.0,0.0,7.4023,7.5117,7.5781,7.5156,7.3008,7.293,7.1719,6.918,6.914,6.9453,7.0,7.0,7.0937,7.2578,7.1914,7.2109,7.289,7.2265,7.1992,7.1992,7.1992,7.1992,7.2187,7.3906,7.4609,7.4805,7.6562,7.7187,7.7305,6.3038,6.1897,6.105,6.1947,6.2101,6.2986,6.5551,6.6667,6.7821,6.9436,6.8975,0.0,0.0,0.0,0.0,0.0,0.0,6.6333,6.736,0.0,6.1873,0.0,0.0,6.1286,0.0,0.0,6.0278,6.0388,5.9346,5.8917,5.9058,5.9058,5.9022,5.8944,5.8126,5.8204,5.8829,5.727,5.6974,5.7478,5.6737,5.6814,5.7209,0.0,5.4527,5.3876,5.4741,0.0,0.0,5.9084,6.0288,0.0,0.0,0.0,0.0,0.0,0.0,0.0,0.0,0.0,0.0,6.6012,0.0,0.0,0.0,0.0,6.375,0.0,0.0,0.0,0.0,0.0,0.0,0.0,0.0,0.0,0.0,0.0,0.0,0.0,0.0,0.0,0.0,0.0,0.0,0.0,0.0,0.0,7.3281,7.3398,7.3008,7.207,7.2031,7.082,6.8281,6.8242,6.8242,6.8281,6.8281,6.914,7.0781,7.0742,7.1211,7.2031,7.1992,7.1992,7.1992,7.1992,7.1992,7.2187,7.3906,7.4609,7.4805,7.6562,7.7187,7.7187,6.3231,6.2858,6.2397,6.2139,6.1639,6.2281,6.5397,6.7552,6.9629,0.0,7.1975,0.0,0.0,7.4784,7.3783,0.0,0.0,6.9099,6.688,6.6213,0.0,0.0,0.0,6.414,0.0,0.0,0.0,6.0393,5.9474,5.9045,5.9102,5.969,5.9963,5.9963,5.9651,5.9321,5.8967,0.0,0.0,0.0,0.0,5.8641,5.9653,0.0,0.0,5.6251,5.713,5.7125,0.0,5.9381,6.0566,6.1201,6.2199,6.3297,6.4156,6.3945,6.4684,0.0,0.0,0.0,6.6324,6.5741,0.0,0.0,0.0,0.0,0.0,0.0,0.0,0.0,0.0,0.0,0.0,0.0,0.0,0.0,0.0,0.0,0.0,0.0,0.0,0.0,0.0,0.0,0.0,0.0,6.914,0.0,7.1445,7.2148,7.1797,7.0312,7.0859,6.9921,6.7343,6.7343,6.7616,6.8202,6.8203,6.9062,7.0703,7.1289,7.1719,7.2031,7.2617,7.2539,7.1992,7.1992,7.1992,7.2187,7.3906,7.4609,7.4805,7.6562,7.7187,7.7187,6.5038,6.4385,6.3512,6.2666,6.232,6.3089,6.5897,6.8475,0.0,0.0,7.4014,0.0,7.7784,0.0,7.5784,0.0,7.363,7.1106,6.7462,6.7398,0.0,6.4409,6.498,0.0,0.0,0.0,0.0,0.0,6.0315,6.0,6.0039,6.0588,6.0656,6.0324,6.0636,6.0048,5.8909,5.9755,5.9224,0.0,0.0,5.9582,0.0,0.0,5.9082,5.8643,0.0,5.8273,5.8065,5.9565,6.0456,6.0988,6.1462,6.2335,6.3115,6.2656,6.3319,6.4295,6.4608,6.4882,0.0,6.5156,6.4531,0.0,6.3125,0.0,0.0,0.0,0.0,0.0,0.0,0.0,0.0,0.0,0.0,0.0,0.0,6.2187,0.0,0.0,0.0,0.0,0.0,0.0,0.0,6.8476,6.7226,0.0,0.0,0.0,7.0117,6.9023,6.9804,6.9178,6.6913,6.6913,6.7186,6.7733,6.7734,6.8633,7.0273,7.082,7.1406,7.2031,7.2578,7.2539,7.1992,7.1992,7.1992,7.2187,7.3906,7.4609,7.4805,7.6562,7.7187,7.7187,6.8167,6.6397,6.4474,6.3692,6.4128,0.0,0.0,0.0,7.1514,0.0,7.5053,7.6438,7.7361,7.6669,7.6092,7.6053,7.4476,7.2225,6.9209,6.8094,0.0,0.0,6.3565,6.305,6.3125,0.0,0.0,0.0,0.0,6.1798,6.1837,6.1759,6.1186,6.0291,6.1144,6.0495,5.8803,5.9689,5.9483,5.8674,5.9331,5.9627,5.9781,6.058,6.0933,6.0794,5.9196,5.8669,5.8854,5.976,6.0039,6.0249,6.1247,6.152,6.1448,6.1634,6.1719,6.1875,6.2773,6.3594,6.4258,6.4297,0.0,0.0,0.0,0.0,6.4883,0.0,0.0,0.0,0.0,0.0,0.0,0.0,0.0,0.0,0.0,0.0,0.0,0.0,0.0,0.0,0.0,0.0,6.8515,6.6875,6.5976,6.5859,0.0,0.0,6.8164,6.8125,6.9062,6.8711,6.6992,6.6992,6.6992,6.6953,6.6953,6.7812,6.9336,6.9414,7.0351,7.1953,7.2031,7.2031,7.1992,7.1992,7.1992,7.2187,7.3906,7.4687,7.5,7.664,7.7226,7.7226,6.7513,6.6898,6.659,0.0,6.5705,6.5397,0.0,0.0,0.0,0.0,7.6284,7.7784,7.99,7.8784,7.763,7.7015,7.4861,0.0,0.0,0.0,0.0,6.7177,6.7391,6.672,6.4958,6.5312,0.0,6.4609,0.0,6.298,6.3607,6.2326,6.1527,6.1229,6.1409,6.075,5.9575,6.0386,6.0529,6.0206,6.0381,6.1204,0.0,0.0,6.1586,6.2494,6.0938,6.0393,6.0432,6.0645,6.0751,6.0821,6.124,6.1378,6.1448,6.1634,6.1719,6.1875,6.2773,6.3164,6.3476,6.414,6.3984,6.3555,0.0,0.0,0.0,0.0,0.0,0.0,0.0,0.0,0.0,0.0,0.0,0.0,0.0,0.0,0.0,0.0,0.0,0.0,0.0,0.0,6.6133,6.5039,6.414,6.4336,0.0,0.0,0.0,6.7265,6.9296,6.9569,6.7889,6.8475,6.8475,6.7889,6.7851,6.8086,6.8555,6.9805,7.0625,7.1094,7.2383,7.2617,7.1992,7.1992,7.1992,7.2187,7.3906,7.5742,7.7498,7.7968,7.7773,7.7305,6.8859,0.0,0.0,6.9398,0.0,0.0,6.986,7.0475,0.0,7.5014,7.6515,0.0,7.8746,7.8631,7.8015,7.6823,7.5053,0.0,7.1426,0.0,0.0,6.7964,6.8271,6.7548,6.55,6.5897,0.0,6.5045,0.0,6.3191,6.3667,6.2308,6.1364,6.0828,6.1583,6.1283,6.0297,6.1144,6.1445,6.1331,6.0935,0.0,0.0,6.1166,6.1396,6.2101,6.1208,6.0933,6.0955,6.0987,6.1041,6.1122,6.1271,6.1378,6.152,6.1675,6.1719,6.1797,6.2305,6.2695,6.3125,6.3594,6.3633,6.3476,6.3086,6.4062,6.4648,0.0,0.0,0.0,0.0,0.0,0.0,0.0,0.0,0.0,0.0,0.0,0.0,0.0,0.0,0.0,0.0,6.3828,6.3867,6.375,6.3281,6.3242,0.0,0.0,0.0,6.6367,6.9921,7.0819,6.8749,6.9921,6.9921,6.871,6.875,6.8945,6.9336,7.0273,7.0898,7.1328,7.2305,7.2656,7.2578,7.2578,7.2578,7.2695,7.4062,7.5937,7.7968,7.875,7.8711,7.8359,7.0937,0.0,0.0,0.0,0.0,0.0,0.0,7.286,0.0,7.5014,0.0,7.763,7.6746,7.7861,7.8054,7.6476,0.0,7.3971,7.1827,7.1313,7.0165,6.8194,6.7953,6.716,6.5634,6.5489,0.0,0.0,0.0,6.291,6.3045,6.207,6.1037,6.0049,6.1557,6.1707,0.0,6.1601,6.1947,6.187,6.1089,6.0804,6.0827,6.0827,6.085,6.0845,6.0845,6.0872,6.0911,6.0987,6.107,6.1213,6.1295,6.1443,6.1593,6.1677,6.1719,6.1719,6.1719,6.2344,6.3008,6.3008,6.3672,6.4101,6.3359,6.3828,6.4258,6.3476,6.3241,6.3163,0.0,0.0,0.0,0.0,0.0,0.0,0.0,0.0,0.0,0.0,0.0,0.0,0.0,0.0,6.2461,6.3125,6.3164,0.0,0.0,0.0,0.0,6.5664,7.0508,7.1992,6.9609,0.0,7.1367,6.9726,6.9687,7.0039,7.0703,7.0703,7.1172,7.1992,7.2109,7.2656,7.3476,7.3593,7.3789,7.4023,7.4804,7.6172,7.7851,7.9336,7.9882,7.9841,7.1052,0.0,0.0,0.0,0.0,7.3745,7.513,7.6515,7.7476,7.7784,7.9939,8.1093,8.0285,7.9823,7.9169,7.813,7.6669,0.0,0.0,0.0,0.0,7.0788,6.9954,6.8791,6.7238,6.6507,6.6114,0.0,0.0,6.3159,6.3842,6.2335,6.1393,6.105,6.1244,6.1128,6.0819,6.0973,0.0,6.1012,6.0858,6.0867,6.0945,6.0945,6.1009,6.1143,6.1143,6.0993,6.0827,6.0953,6.1068,6.115,6.1373,6.1537,6.1618,6.1672,6.1717,6.1718,6.1719,6.2344,6.3008,6.3008,6.3672,6.4258,6.4101,6.4765,6.5311,6.5018,6.4466,6.396,6.3917,0.0,0.0,0.0,0.0,0.0,0.0,0.0,0.0,0.0,0.0,0.0,0.0,0.0,0.0,0.0,0.0,0.0,0.0,0.0,0.0,0.0,6.9922,0.0,0.0,0.0,7.2578,7.1523,7.082,7.0547,7.0703,7.0703,7.1172,7.203,7.2771,7.355,7.4445,7.5147,7.6244,7.7537,7.7654,7.8787,8.0389,8.0664,8.0781,8.0662,7.4207,0.0,0.0,0.0,0.0,0.0,0.0,7.9092,0.0,7.8092,7.8938,7.9554,7.9169,7.9515,7.9438,7.8592,7.7361,7.6149,7.4938,7.4007,7.279,7.122,7.1192,0.0,6.756,6.6648,6.6073,6.5829,0.0,0.0,6.3335,6.2048,6.1359,6.12,6.1,6.1362,0.0,0.0,0.0,6.1485,6.1533,6.134,6.1011,6.107,6.112,6.1186,6.1186,6.1128,6.103,6.1079,6.1182,6.1324,6.1451,6.1559,6.1642,6.1673,6.1717,6.1795,6.2265,6.2695,6.3125,6.3555,6.3984,6.4297,6.4297,6.4961,6.5545,6.5438,6.4784,6.3976,6.3037,6.2225,0.0,0.0,0.0,0.0,0.0,0.0,0.0,0.0,0.0,0.0,0.0,0.0,0.0,0.0,0.0,0.0,0.0,0.0,0.0,0.0,0.0,0.0,0.0,0.0,0.0,7.1992,7.1562,7.1367,7.1367,7.1367,7.1601,7.2067,7.2927,7.4057,7.5379,7.6668,7.7958,7.9016,7.859,7.8903,7.9763,8.0664,8.0468,7.9765,0.0,7.6476,0.0,0.0,7.7592,0.0,7.8669,8.0631,8.1093,7.8438,7.8246,7.8284,7.813,7.9285,7.9746,7.8861,7.8015,7.6899,7.5361,7.5091,7.3937,7.1552,7.2263,7.1097,6.7697,6.6935,6.6022,0.0,0.0,0.0,0.0,6.165,6.111,6.0786,0.0,0.0,0.0,0.0,6.2144,6.2155,6.2298,6.1858,6.1134,6.1426,6.1447,6.1316,6.1511,6.1472,6.1316,6.1316,6.1401,6.1495,6.1534,6.1621,6.1697,6.1711,6.1829,6.2062,6.277,6.3237,6.3665,6.4372,6.4685,6.4803,6.4844,6.539,6.5858,6.5711,6.4908,6.3826,6.2498,6.2109,0.0,0.0,0.0,0.0,0.0,0.0,0.0,0.0,0.0,0.0,0.0,0.0,0.0,0.0,0.0,0.0,0.0,0.0,0.0,0.0,0.0,7.2109,7.0703,0.0,7.4609,7.2539,7.2539,7.2539,7.2539,7.2344,7.2265,7.23,7.3003,7.4483,7.6546,7.8067,7.9202,7.9947,7.9406,7.9135,7.9137,8.0506,8.0038,7.8905,0.0,0.0,0.0,0.0,0.0,0.0,7.9669,8.0554,8.1093,8.0785,8.1362,8.1554,8.0823,8.0862,8.0631,7.9746,7.89,7.8015,7.7092,7.6322,7.5091,7.3322,7.3336,7.1824,6.8385,6.8244,6.6677,0.0,0.0,0.0,0.0,0.0,0.0,0.0,0.0,0.0,0.0,6.1909,6.2298,6.2298,6.2424,6.2063,6.1539,6.2333,6.2235,6.1744,6.2563,6.2329,6.1663,6.1663,6.1588,6.1504,6.1657,6.1679,6.1683,6.1697,6.2186,6.2698,6.2792,6.3932,6.5117,6.5267,6.5904,6.65,6.664,6.6719,6.6756,6.6612,6.5275,6.4108,6.3993,6.3354,6.3164,0.0,0.0,0.0,0.0,0.0,0.0,0.0,0.0,0.0,0.0,6.125,0.0,0.0,0.0,0.0,0.0,0.0,0.0,6.3125,0.0,7.0859,7.0703,7.3359,7.4609,7.4375,7.4375,7.4375,7.4336,7.3555,7.3162,7.3193,7.327,7.5136,7.8239,7.9173,8.008,8.0951,8.1654,8.1465,8.077,8.0926,8.0381,7.9481,0.0,0.0,0.0,0.0,0.0,0.0,0.0,8.09,8.1093,8.1093,8.1362,8.1477,8.1131,8.1093,8.0554,7.9131,7.8707,7.7938,7.6592,7.5707,7.4938,7.4245,7.3245,7.1822,6.9937,6.8398,6.65,0.0,0.0,0.0,0.0,0.0,0.0,0.0,0.0,6.1655,6.2632,6.302,6.3208,6.3255,6.3904,6.3715,6.3058,6.3503,6.3536,6.3243,6.3047,6.2774,6.2384,6.1874,6.1666,6.1648,6.1674,6.1657,6.1662,6.2148,6.2461,6.2917,6.3955,6.4768,6.5426,6.5979,6.6377,6.6662,6.6691,6.6736,6.6691,6.6658,6.5675,6.4657,6.4154,6.3826,6.3884,0.0,0.0,0.0,0.0,0.0,0.0,0.0,0.0,0.0,0.0,0.0,0.0,0.0,0.0,0.0,0.0,0.0,0.0,6.4492,0.0,6.914,7.0703,7.3281,7.4609,7.4609,7.4609,7.4609,7.4609,7.4258,7.4061,7.4129,7.4586,7.5868,7.77,7.8551,7.9413,8.0324,8.1183,8.099,8.0332,8.1392,8.0573,7.8932,8.217,0.0,8.0939,0.0,8.1362,8.0431,8.1715,8.1499,8.1196,8.128,8.1294,8.1224,8.1108,8.1146,8.066,7.9377,7.8784,7.7977,7.6823,7.5707,7.4976,7.4707,7.336,0.0,7.1283,6.9513,6.7539,6.5421,6.5549,0.0,0.0,0.0,0.0,0.0,6.2439,6.2944,6.3832,6.4105,6.4228,6.4306,6.508,6.4887,6.4115,6.4518,6.4533,6.4265,6.3874,6.3603,6.3293,6.2668,6.2471,6.2432,6.2152,6.2002,6.2118,6.2949,6.3278,6.3624,6.4854,6.5375,6.5784,6.6684,6.693,6.7013,6.7286,6.733,6.7252,6.7019,6.6083,6.5182,6.4831,6.4748,6.4943,6.5572,0.0,0.0,0.0,0.0,0.0,0.0,0.0,5.8689,5.7055,0.0,0.0,0.0,0.0,0.0,0.0,0.0,0.0,0.0,0.0,0.0,0.0,7.3437,7.4726,7.5,7.5234,7.5351,7.5351,7.5116,7.484,7.4637,7.5208,7.6065,7.7165,7.7744,7.8525,7.9391,8.0289,8.0248,7.9855,8.1074,8.0529,7.9198,8.2285,8.367,8.4824,8.4863,8.4132,8.3626,8.3836,8.2458,8.1484,8.166,8.1689,8.1525,8.1131,8.1294,8.131,8.1085,7.9477,7.8477,7.8477,7.6899,7.5592,0.0,0.0,7.3091,7.2206,7.2129,7.0475,6.7051,0.0,0.0,6.2523,0.0,6.3553,6.268,6.4309,6.4603,6.3878,6.4851,6.5299,6.5314,6.552,6.5077,6.4375,6.5273,6.5045,6.4392,6.5251,6.5023,6.4287,6.4287,6.4287,6.4128,6.3249,6.2969,6.3164,6.4023,6.4688,6.5174,6.5174,6.5669,6.6438,6.7432,6.7705,6.7945,6.8855,6.9078,6.8844,6.7954,6.6473,6.5572,6.6395,6.6512,6.6507,6.6551,0.0,0.0,0.0,0.0,0.0,0.0,6.1612,6.0638,5.5528,0.0,0.0,0.0,0.0,0.0,0.0,0.0,0.0,6.4297,6.7656,0.0,7.1953,7.3711,7.5039,7.5898,7.6758,7.7187,7.7145,7.6281,7.5418,7.4598,7.4598,7.5574,7.7097,7.7097,7.7644,7.8503,7.9363,7.9709,7.9699,7.9738,8.0277,8.0735,8.3054,8.3632,8.4209,8.4786,8.3708,8.2779,8.2999,8.2084,8.1484,8.167,8.1812,8.1795,8.1564,8.1558,8.1103,0.0,7.9244,7.843,0.0,7.6144,7.5661,7.5963,7.4616,7.3976,7.4324,7.3207,7.178,7.0089,0.0,0.0,0.0,6.6965,6.6651,6.6363,6.691,6.7334,6.7604,6.7347,6.7193,6.7188,6.6696,6.6311,6.6115,6.6389,6.6312,6.604,6.5729,6.5418,6.5065,6.4372,6.4163,6.42,6.4541,6.4229,6.3917,6.4737,6.5108,6.5316,6.5793,6.6151,6.6528,6.7348,6.7561,6.7803,6.8682,6.8948,6.8878,6.8571,6.8093,6.7821,6.8058,6.8071,6.8071,6.8109,6.8132,0.0,0.0,0.0,0.0,0.0,5.9727,5.8768,0.0,5.7853,0.0,0.0,0.0,0.0,0.0,0.0,0.0,0.0,6.8555,0.0,7.375,7.4922,7.5937,7.6797,7.7616,7.8005,7.7999,7.7138,7.6277,7.5496,7.5496,7.5772,7.6284,7.628,7.6788,7.765,7.8505,7.8814,7.8967,8.0139,8.0371,8.0133,8.4025,8.4704,8.5205,8.5437,8.455,8.3845,8.3818,8.2823,8.2164,8.2341,8.2206,8.2067,8.1941,8.1934,0.0,7.9726,7.929,7.8513,7.7153,7.6238,7.603,7.6599,7.5222,7.4895,7.5772,0.0,0.0,7.1978,7.0867,7.0516,7.0818,6.9294,6.8747,6.9098,6.9098,6.9214,6.9368,6.8821,6.8586,6.8505,6.7685,6.7333,6.7333,6.7021,6.71,6.7259,6.6399,6.6279,6.6346,6.5415,6.5067,6.5125,6.5705,6.552,6.5172,6.5728,6.5851,6.5933,6.6659,6.664,6.6733,6.8093,6.8197,6.8313,6.9473,6.9537,6.9284,6.9273,6.9033,6.8848,6.8798,6.9048,6.9164,6.8854,6.8712,6.7798,6.5403,0.0,0.0,0.0,0.0,0.0,0.0,5.8737,0.0,0.0,0.0,0.0,0.0,0.0,0.0,6.8633,7.0117,0.0,7.5078,7.5937,7.664,7.7226,7.7693,7.7964,7.7922,7.7687,7.7141,7.6398,7.6713,7.6677,7.6405,7.6403,7.6716,7.7264,7.773,7.8314,7.9015,8.0109,8.0573,8.0723,8.5062,8.652,8.7371,0.0,8.6365,0.0,8.5882,8.4325,8.3282,8.3455,8.2801,8.2293,8.2293,8.2293,8.1802,8.0565,0.0,0.0,0.0,7.7112,7.6708,7.6638,7.5864,7.5807,7.6624,7.5846,7.4684,7.3127,6.9978,7.0167,7.3435,7.0937,7.0156,7.0898,7.0898,7.039,6.9568,6.9529,6.9488,6.9405,6.8545,6.8155,6.8038,6.7296,6.7455,6.8005,6.7185,6.7331,6.7774,6.7027,6.6744,6.6688,6.685,6.6871,6.688,6.6901,6.6809,6.6883,6.7608,6.7165,6.7083,6.944,6.9484,6.9396,7.0943,7.0672,7.0092,7.0092,6.9484,6.8981,6.897,6.9621,6.9864,6.9087,6.9574,6.886,6.5567,0.0,0.0,0.0,0.0,0.0,0.0,6.1206,6.1768,0.0,0.0,0.0,0.0,0.0,6.7969,6.9726,7.2226,7.4375,7.6055,7.6836,7.7226,7.7265,7.7225,7.7262,7.7418,7.8083,7.8005,7.7341,7.8164,7.8008,7.7187,7.7187,7.7187,7.7226,7.7265,7.8242,7.9645,7.9762,8.0809,8.2083,0.0,0.0,8.6937,8.6743,8.6172,8.5719,8.5779,8.4325,8.3282,8.3455,8.2801,8.2293,8.2293,8.2293,8.1929,8.0952,8.0675,7.9622,7.7394,7.7731,7.7671,7.702,7.6839,7.6851,7.7054,7.6858,7.6548,7.6157,7.472,7.4451,7.5273,7.3984,7.3125,7.2695,7.2695,7.2187,7.1328,7.0664,7.039,7.0312,6.9452,6.871,6.8163,6.7968,6.7617,6.7187,6.6953,6.6944,6.7063,6.7434,6.7511,6.7613,6.83,6.8593,6.8447,6.7262,6.6873,6.7023,6.7763,6.7777,6.8037,6.971,7.0419,7.0827,7.1214,7.1137,7.0982,7.0982,7.0922,7.0834,7.0743,7.1012,7.1186,7.0764,6.9375,6.7793,6.6158,6.4955,0.0,0.0,6.2452,6.2647,6.1008,6.1958,6.2785,0.0,0.0,0.0,0.0,6.8867,7.0586,7.2344,7.4922,7.6797,7.7851,7.7422,7.75,7.8123,7.7497,7.7886,7.9092,7.8628,7.8317,7.8122,7.8398,7.8008,7.7187,7.7187,7.7187,7.7265,7.793,7.8437,7.8945,8.0232,8.0932,8.1359,8.6035,8.6925,8.7383,8.7003,8.6886,8.6748,8.6574,8.5034,8.3961,8.4083,8.3035,8.2293,8.2293,8.2293,8.1942,8.1083,8.1005,8.0224,7.8429,7.8721,7.8772,7.8308,7.8317,7.8163,7.7812,7.7773,7.7617,7.7187,7.5937,7.5703,7.6484,7.5195,7.457,7.4453,7.4062,7.3398,7.2578,7.2109,7.164,7.1211,7.0351,6.9492,6.875,6.875,6.8437,6.8047,6.8086,6.8274,6.8471,6.8472,6.8431,6.8481,6.9033,6.9231,6.9113,6.828,6.8047,6.8202,6.8996,6.8906,6.8883,7.0018,7.1186,7.2086,7.2086,7.2366,7.2638,7.2638,7.2672,7.2709,7.2655,7.2744,7.2555,7.1645,6.9784,6.7857,6.605,6.4805,0.0,6.2674,6.3769,6.4406,6.3907,6.4255,6.4632,6.4832,6.5224,0.0,6.8086,7.0547,7.2305,7.3281,7.5859,7.7422,7.789,7.7422,7.7617,7.8437,7.8007,7.8475,7.9683,7.9607,7.9374,7.9023,7.9453,7.8945,7.7773,7.7773,7.7578,7.7305,7.8164,7.8711,7.9219,8.0506,8.1246,8.1671,8.691,8.7715,8.7942,8.7247,8.7747,8.8011,8.7319,8.5846,8.4753,8.4636,8.3269,8.2293,8.2293,8.2293,8.1981,8.1278,8.12,8.0771,7.9756,7.9821,7.9831,7.9714,7.9686,7.9375,7.8711,7.8555,7.8086,7.7187,7.5703,7.5742,7.7187,7.5703,7.5312,7.5859,7.5117,7.4297,7.3515,7.3515,7.3008,7.2148,7.1406,7.0508,6.9609,6.9609,6.9492,6.9414,6.9492,6.9876,7.0314,6.9687,6.9416,6.9372,6.9595,6.9694,6.9706,6.9764,6.9883,7.0077,7.0485,7.0238,7.0027,7.0663,7.1994,7.3186,7.3186,7.3698,7.4205,7.4205,7.4221,7.4226,7.421,7.4114,7.3578,7.2139,7.0348,6.8304,6.5981,0.0,6.4567,6.4419,6.5437,6.6447,6.7238,6.7281,6.7096,6.6601,6.7031,6.7773,6.8906,7.1719,7.3476,7.3867,7.6172,7.7383,7.7383,7.7383,7.7812,7.8672,7.8672,7.9101,7.9922,8.0664,8.0586,7.9922,8.0664,8.0117,7.8672,7.8672,7.8164,7.7461,7.8359,7.9101,7.9804,8.0662,8.1556,8.2292,8.7095,8.7462,8.7489,8.7375,8.7479,8.7276,8.6428,8.5456,8.4558,8.3816,8.2879,8.2293,8.2293,8.2293,8.2254,8.2098,8.2098,8.1435,7.9795,8.0406,8.0456,7.9714,7.9686,7.9648,7.9531,7.8867,7.8086,7.7187,7.6914,7.6914,7.7187,7.6914,7.6484,7.5898,7.5742,7.5195,7.4414,7.4414,7.3906,7.3086,7.2969,7.1914,7.0508,7.0508,7.0039,6.9414,6.9492,6.9485,6.9569,7.0191,7.0384,7.0498,7.1206,7.1508,7.1562,7.1601,7.2109,7.2383,7.1054,7.1588,7.2534,7.2642,7.3332,7.401,7.401,7.4127,7.4205,7.4205,7.4273,7.4339,7.4226,7.378,7.3301,7.2867,7.0311,6.8149,6.7482,0.0,6.6439,6.629,6.8384,6.9919,7.0077,7.0077,7.0351,7.0976,6.9805,7.0078,7.2383,7.3008,7.4297,7.6523,7.7695,7.8281,7.8281,7.8281,7.8711,7.9492,7.9492,7.9961,8.0781,8.0937,8.0937,8.082,8.0937,8.0429,7.9492,7.9492,7.9023,7.8398,7.9219,7.9609,7.9804,8.0662,8.1556,8.2292,8.6647,8.6702,8.654,8.6066,8.5981,8.5855,8.5456,8.4675,8.3972,8.3543,8.2801,8.2293,8.2293,8.2293,8.2296,8.2305,8.2305,8.1956,8.1146,8.1468,8.1511,8.112,8.1092,8.0898,8.039,7.957,7.875,7.789,7.789,7.7656,7.7187,7.7187,7.6992,7.6601,7.6601,7.6133,7.5312,7.5312,7.4531,7.3281,7.3281,7.2265,7.0742,7.1211,7.0859,7.0156,7.0664,7.0819,7.0812,7.1201,7.1359,7.1437,7.1788,7.195,7.2109,7.2578,7.2969,7.3242,7.289,7.3357,7.3897,7.3897,7.4512,7.5121,7.5121,7.5472,7.5941,7.6409,7.6583,7.6588,7.6532,7.5891,7.5076,7.4035,7.1086,0.0,0.0,6.765,6.7226,6.8119,7.0116,7.1562,7.2031,7.2109,7.2265,7.2656,7.1562,7.1562,7.3203,7.418,7.5234,7.6445,7.7812,7.8711,7.914,7.8711,7.914,8.039,8.039,8.0859,8.1719,8.1719,8.1719,8.1719,8.1719,8.1211,8.039,8.039,7.9648,7.8515,7.9375,7.9687,7.9804,8.0662,8.1556,8.2292,8.6229,8.6124,8.5848,8.498,8.4819,8.4734,8.457,8.3939,8.3429,8.3242,8.2693,8.2299,8.2302,8.2305,8.2308,8.2318,8.232,8.2285,8.2292,8.2295,8.2295,8.2295,8.2303,8.1875,8.1015,8.0351,7.9492,7.8515,7.8515,7.8047,7.7187,7.7187,7.7187,7.7187,7.7187,7.6836,7.6211,7.6211,7.5195,7.3594,7.3594,7.2578,7.1094,7.1758,7.1562,7.1094,7.1758,7.1992,7.1992,7.1992,7.1992,7.1992,7.1992,7.2148,7.2422,7.3086,7.3711,7.4258,7.4531,7.4765,7.4883,7.4883,7.5547,7.6211,7.6211,7.6875,7.7695,7.8359,7.8633,7.8789,7.8789,7.8086,7.6992,7.5469,0.0,0.0,0.0,6.9219,6.8867,7.0234,7.1875,7.3164,7.3828,7.4101,7.4101,7.3906,7.3281,7.3281,7.414,7.5469,7.6484,7.707,7.8008,7.8984,8.0,7.9375,7.9844,8.1289,8.1289,8.164,8.2304,8.2304,8.2304,8.2304,8.2304,8.1914,8.1287,8.1289,8.039,7.9061,7.9726,8.0,8.0078,8.0741,8.1558,8.2295,8.6325,8.6209,8.5933,8.5034,8.4827,8.4546,8.3812,8.356,8.3242,8.2484,8.232,8.2318,8.229,8.229,8.229,8.2292,8.2292,8.2292,8.2292,8.2299,8.2301,8.2301,8.2304,8.1875,8.1015,8.0937,8.0117,7.8515,7.8515,7.8047,7.7187,7.7187,7.7187,7.7187,7.7187,7.7148,7.7109,7.7109,7.6094,7.4492,7.4492,7.3476,7.1914,7.1992,7.1953,7.1914,7.1992,7.1992,7.1992,7.1992,7.1992,7.1992,7.1992,7.2539,7.3203,7.3281,7.5039,7.6562,7.5039,7.5195,7.5781,7.5781,7.6445,7.7109,7.7109,7.7773,7.8437,7.8476,7.9101,7.9609,7.9609,7.8945,7.8086,7.7148,0.0,0.0,7.3125,7.289,7.289,7.3008,7.4531,7.5625,7.5703,7.6445,7.6562,7.5781,7.5664,7.5976,7.6875,7.7031,7.8203,8.0547,7.9258,7.9258,8.0898,8.0859,8.1289,8.2187,8.2187,8.2226,8.2304,8.2304,8.2304,8.2304,8.2304,8.2265,8.2187,8.2187,8.164,8.082,8.0898,8.0898,8.0898,8.0976,8.1562,8.2301,8.5624,8.539,8.496,8.3512,8.3275,8.3154,8.2839,8.2755,8.2636,8.2331,8.2289,8.2289,8.2292,8.2292,8.2295,8.2299,8.2299,8.2301,8.2303,8.2304,8.2304,8.2304,8.2304,8.2148,8.1797,8.1797,8.0976,7.9258,7.9258,7.8555,7.7187,7.7187,7.7187,7.7187,7.7187,7.7187,7.7187,7.7187,7.6523,7.5351,7.4805,7.3867,7.2734,7.2226,7.1992,7.207,7.2617,7.2461,7.207,7.2617,7.2812,7.2812,7.2812,7.3398,7.4336,7.539,7.6797,7.7969,7.7812,7.8008,7.8125,7.7656,7.8125,7.8476,7.7422,7.8242,7.9258,7.9258,7.9922,8.0508,8.0508,7.9805,7.914,7.8789,0.0,7.5525,7.6306,7.5417,7.4644,7.4648,7.5744,7.6272,7.5837,7.6544,7.6983,7.6719,7.6719,7.7109,7.7969,7.8476,7.9687,8.1758,8.0664,8.0625,8.1797,8.1289,8.1445,8.2304,8.2304,8.2304,8.2304,8.2304,8.2304,8.2304,8.2304,8.2304,8.2303,8.2304,8.1796,8.1014,8.1015,8.1015,8.1015,8.1015,8.1561,8.2297,8.5507,8.5078,8.4453,8.2967,8.2497,8.2301,8.23,8.2296,8.2295,8.2299,8.2297,8.2296,8.2299,8.2299,8.2301,8.2303,8.2303,8.2304,8.2304,8.2304,8.2304,8.2304,8.2304,8.2304,8.2304,8.2304,8.1562,8.0117,7.9844,7.8984,7.7617,7.7344,7.7187,7.7187,7.7187,7.7187,7.7187,7.6914,7.6445,7.5781,7.4648,7.3828,7.3203,7.2344,7.1992,7.2109,7.3008,7.293,7.2539,7.3398,7.3711,7.3711,7.3711,7.4297,7.5312,7.6758,7.8008,7.9062,7.9883,8.0312,8.0195,7.8828,7.9101,7.9336,7.793,7.8906,8.0117,8.0117,8.0781,8.1406,8.1406,8.0937,8.0429,8.0156,7.8538,7.7603,7.854,7.7526,7.6702,7.667,7.7221,7.7311,7.6585,7.729,7.7744,7.7617,7.7578,7.7968,7.8828,7.9922,8.1054,8.2265,8.1719,8.1719,8.2304,8.1719,8.1719,8.2304,8.2304,8.2304,8.2304,8.2304,8.2304,8.2304,8.2304,8.2304,8.2303,8.2304,8.1953,8.1405,8.1406,8.1406,8.1406,8.1406,8.1795,8.23,8.6172,8.5508,8.4609,8.375,8.289,8.2303,8.2304,8.2301,8.2297,8.2304,8.2303,8.2303,8.2304,8.2304,8.2304,8.2304,8.2304,8.2304,8.2304,8.2304,8.2304,8.2304,8.2304,8.2304,8.2304,8.2304,8.1875,8.1015,8.0117,7.9297,7.8476,7.7617,7.7187,7.7187,7.7187,7.7187,7.7148,7.6289,7.5898,7.5742,7.4023,7.332,7.3203,7.2344,7.1992,7.2148,7.3008,7.332,7.3437,7.4336,7.4609,7.4609,7.4609,7.5195,7.6094,7.6953,7.8398,7.9883,8.0781,8.164,8.1679,7.914,7.9101,7.9492,7.8672,7.9805,8.1015,8.1015,8.1679,8.2304,8.2304,8.2304,8.2031,8.1133,8.0883,8.0495,7.9636,7.9403,7.9325,7.9325,7.9325,7.9065,7.8377,7.903,7.9215,7.8554,7.8436,7.8787,7.9648,8.1367,8.2304,8.2304,8.2304,8.2304,8.2304,8.2304,8.2304,8.2304,8.2304,8.2304,8.2304,8.2304,8.2304,8.2304,8.2304,8.2304,8.2304,8.2304,8.2304,8.2304,8.2304,8.2304,8.2304,8.2304,8.2304,8.2304,8.4492,8.4648,8.4414,8.2969,8.2969,8.3007,8.2383,8.2304,8.2304,8.2304,8.2304,8.2304,8.2304,8.2304,8.2304,8.2304,8.2304,8.2304,8.2304,8.2217,8.2214,8.2304,8.2304,8.2304,8.2304,8.2304,8.1875,8.1015,8.0117,7.9297,7.8476,7.7617,7.7187,7.7187,7.7187,7.7187,7.7187,7.6914,7.6797,7.6719,7.5586,7.5117,7.4961,7.3476,7.3281,7.3867,7.4101,7.4219,7.4336,7.5234,7.5508,7.5625,7.6211,7.6601,7.7109,7.8515,7.9297,8.0039,8.1523,8.2109,8.1953,8.0586,8.0429,8.039,7.9531,8.0195,8.1015,8.1015,8.1679,8.2304,8.2304,8.2304,8.2226,8.1953,8.1781,8.1627,8.1353,8.1202,8.0896,8.0273,8.0201,7.9923,7.9225,7.9342,7.9449,7.9333,7.9882,8.0351,8.0586,8.1679,8.2304,8.2304,8.2304,8.2304,8.2304,8.2304,8.2304,8.2304,8.2304,8.2304,8.2304,8.2304,8.2304,8.2304,8.2304,8.2304,8.2304,8.2304,8.2304,8.2304,8.2304,8.2304,8.2303,8.2303,8.23,8.229,8.414,8.4258,8.4062,8.3008,8.2969,8.289,8.2383,8.2304,8.2304,8.2304,8.2304,8.2304,8.2304,8.2304,8.2304,8.2304,8.2262,8.2222,8.2304,8.2168,8.2161,8.2304,8.2304,8.2304,8.2304,8.2304,8.2031,8.1523,8.0312,7.9453,7.8945,7.7773,7.7187,7.7187,7.7187,7.7187,7.7187,7.6836,7.6875,7.7109,7.5898,7.5586,7.5742,7.4336,7.414,7.4648,7.5,7.5117,7.5234,7.6133,7.6406,7.6445,7.664,7.7148,7.789,7.8945,7.9687,8.0508,8.1914,8.2304,8.2187,8.164,8.1523,8.1289,8.039,8.0898,8.1523,8.1523,8.1914,8.2304,8.2304,8.2304,8.2304,8.2304,8.2171,8.2098,8.2098,8.1987,8.1714,8.1175,8.1097,8.0825,8.0087,8.0321,8.0423,8.0229,8.1015,8.1367,8.1015,8.1836,8.2304,8.2304,8.2304,8.2304,8.2304,8.2304,8.2304,8.2304,8.2304,8.2304,8.2304,8.2304,8.2304,8.2304,8.2304,8.2304,8.2304,8.2304,8.2304,8.2304,8.2304,8.2303,8.2299,8.2299,8.2293,8.2283,8.4726,8.4258,8.3672,8.3594,8.2929,8.2383,8.2304,8.2304,8.2304,8.2304,8.2304,8.2304,8.2304,8.2304,8.2304,8.2304,8.2168,8.2161,8.2304,8.2168,8.2161,8.2304,8.2304,8.2304,8.2304,8.2304,8.2304,8.2304,8.0547,7.9687,7.9648,7.7969,7.7187,7.7187,7.7187,7.7187,7.7148,7.6367,7.6484,7.707,7.5469,7.5312,7.5937,7.5039,7.4765,7.4922,7.5625,7.5937,7.6133,7.6914,7.7187,7.707,7.6367,7.7226,7.8515,7.8672,7.9805,8.1172,8.207,8.2304,8.2304,8.2304,8.2304,8.2109,8.1289,8.1679,8.2226,8.2265,8.2304,8.2304,8.2304,8.2304,8.2304,8.2304,8.2212,8.2107,8.2107,8.2006,8.1945,8.1945,8.1945,8.167,8.1005,8.1659,8.1834,8.1168,8.1835,8.1953,8.1172,8.1875,8.2304,8.2304,8.2304,8.2304,8.2304,8.2304,8.2304,8.2304,8.2304,8.2304,8.2304,8.2304,8.2304,8.2304,8.2303,8.2303,8.2304,8.2303,8.2301,8.2301,8.2301,8.2299,8.2293,8.2293,8.2292,8.229,8.4844,8.4765,8.4414,8.3711,8.3437,8.3086,8.2383,8.2304,8.2304,8.2304,8.2304,8.2304,8.2304,8.2304,8.2304,8.2304,8.2168,8.2161,8.2304,8.2168,8.2161,8.2304,8.2304,8.2304,8.2304,8.2304,8.2304,8.2304,8.0547,7.9687,7.9648,7.7969,7.7187,7.7187,7.7187,7.7187,7.7187,7.6992,7.7031,7.7187,7.6797,7.6758,7.6836,7.5937,7.6055,7.6562,7.6094,7.6328,7.6953,7.7148,7.7187,7.7305,7.7773,7.8203,7.875,8.0078,8.0703,8.1172,8.207,8.2304,8.2304,8.2304,8.2304,8.2265,8.207,8.164,8.1484,8.2148,8.2304,8.2304,8.2304,8.2304,8.2304,8.2304,8.2265,8.2263,8.2263,8.222,8.2217,8.2217,8.2217,8.2139,8.1984,8.2139,8.2179,8.2028,8.2187,8.2226,8.2031,8.2187,8.2304,8.2304,8.2304,8.2304,8.2304,8.2304,8.2304,8.2304,8.2304,8.2304,8.2304,8.2304,8.2304,8.2304,8.2303,8.2302,8.2302,8.2297,8.2299,8.2301,8.2301,8.2301,8.23,8.2295,8.2287,8.2318,8.4804,8.4883,8.4648,8.375,8.3594,8.332,8.2422,8.2304,8.2304,8.2304,8.2304,8.2304,8.2304,8.2304,8.2304,8.2304,8.2168,8.2161,8.2304,8.2168,8.2161,8.2304,8.2304,8.2304,8.2304,8.2304,8.2304,8.2304,8.0976,8.0117,7.9687,7.8398,7.7617,7.7187,7.7187,7.7187,7.7187,7.7187,7.7187,7.7187,7.7187,7.7187,7.7148,7.668,7.6797,7.7148,7.668,7.6797,7.7187,7.7187,7.7187,7.7265,7.7734,7.8164,7.8672,7.9531,8.0351,8.1094,8.1562,8.1992,8.2304,8.2304,8.2304,8.2304,8.2304,8.1953,8.1758,8.2226,8.2304,8.2304,8.2304,8.2304,8.2304,8.2304,8.2304,8.2304,8.2304,8.2304,8.2304,8.2304,8.2304,8.2304,8.2304,8.2304,8.2304,8.2304,8.2304,8.2304,8.2304,8.2304,8.2304,8.2304,8.2304,8.2304,8.2304,8.2304,8.2304,8.2304,8.2304,8.2304,8.2304,8.2304,8.2304,8.2304,8.2303,8.2303,8.2303,8.2297,8.2296,8.2301,8.2299,8.2297,8.2297,8.2293,8.2287,8.2313,8.4961,8.4883,8.4453,8.3711,8.3476,8.3125,8.2422,8.2304,8.2304,8.2304,8.2304,8.2304,8.2304,8.2304,8.2304,8.2304,8.2214,8.217,8.2304,8.2212,8.217,8.2304,8.2304,8.2304,8.2304,8.2304,8.2304,8.2304,8.1445,8.0547,7.9687,7.9023,7.8242,7.7422,7.7422,7.7422,7.7422,7.7265,7.7187,7.7187,7.7187,7.7187,7.7187,7.7187,7.7187,7.7187,7.7187,7.7187,7.7187,7.7187,7.7187,7.7226,7.7383,7.793,7.8515,7.8672,7.9805,8.1015,8.1015,8.164,8.2304,8.2304,8.2304,8.2304,8.2304,8.2304,8.2304,8.2304,8.2304,8.2304,8.2304,8.2304,8.2304,8.2304,8.2304,8.2304,8.2304,8.2304,8.2304,8.2304,8.2304,8.2304,8.2304,8.2304,8.2304,8.2304,8.2304,8.2383,8.25,8.2383,8.2383,8.2539,8.2383,8.2304,8.2304,8.2304,8.2304,8.2304,8.2304,8.2304,8.2304,8.2304,8.2304,8.2304,8.2303,8.2303,8.2304,8.2297,8.2296,8.2301,8.2296,8.2295,8.2296,8.2295,8.2287,8.2315,8.6015,8.4804,8.375,8.3633,8.2969,8.2422,8.2304,8.2304,8.2304,8.2304,8.2304,8.2304,8.2304,8.2304,8.2304,8.2304,8.2265,8.2265,8.2304,8.2265,8.2265,8.2304,8.2304,8.2304,8.2304,8.2304,8.2304,8.2304,8.1445,8.0547,7.9687,7.9609,7.9101,7.832,7.832,7.832,7.8281,7.7539,7.7187,7.7187,7.7187,7.7187,7.7187,7.7187,7.7187,7.7187,7.7187,7.7187,7.7187,7.7187,7.7187,7.7344,7.8086,7.8398,7.8633,7.9336,8.0234,8.1015,8.1015,8.164,8.2304,8.2304,8.2304,8.2304,8.2304,8.2304,8.2304,8.2304,8.2304,8.2304,8.2304,8.2304,8.2304,8.2304,8.2304,8.2304,8.2304,8.2304,8.2304,8.2304,8.2304,8.2304,8.2304,8.2304,8.2304,8.2304,8.2304,8.2617,8.3398,8.2695,8.2656,8.3398,8.2695,8.2304,8.2304,8.2304,8.2304,8.2304,8.2304,8.2304,8.2304,8.2304,8.2304,8.2304,8.2303,8.2302,8.2302,8.2296,8.2296,8.2301,8.2301,8.2303,8.2304,8.2302,8.2293,8.2315,8.6077,8.5543,8.4765,8.3789,8.3281,8.2851,8.2383,8.2304,8.2304,8.2304,8.2304,8.2304,8.2304,8.2304,8.2304,8.2304,8.2304,8.2304,8.2304,8.2304,8.2304,8.2304,8.2304,8.2304,8.2304,8.2304,8.2304,8.2304,8.1914,8.1289,8.0429,8.0429,7.9961,7.914,7.8711,7.8515,7.8398,7.7031,7.6484,7.6445,7.5937,7.6055,7.6484,7.6484,7.6797,7.7186,7.7186,7.7186,7.7145,7.7186,7.7186,7.7223,7.7655,7.8085,7.8515,7.8906,7.9961,8.1015,8.1015,8.164,8.2304,8.2304,8.2304,8.2304,8.2304,8.2304,8.2304,8.2304,8.2304,8.2304,8.2304,8.2304,8.2304,8.2304,8.2304,8.2304,8.2304,8.2304,8.2304,8.2304,8.2304,8.2304,8.2304,8.2304,8.2304,8.2304,8.2734,8.2969,8.289,8.2969,8.2969,8.289,8.25,8.2304,8.2304,8.2304,8.2304,8.2304,8.2304,8.2304,8.2304,8.2304,8.2304,8.2304,8.2304,8.2304,8.2304,8.2301,8.2301,8.2304,8.2302,8.2303,8.2303,8.2302,8.2293,8.2315]}]]